<?xml version="1.0" encoding="UTF-8" standalone="no" ?>
<gpx xmlns="http://www.topografix.com/GPX/1/1" xmlns:xsi="http://www.w3.org/2001/XMLSchema-instance" xsi:schemaLocation="http://www.topografix.com/GPX/1/1 http://www.topografix.com/GPX/1/1/gpx.xsd" version="1.1" creator="VisuGPX - https://www.visugpx.com">
  <metadata>
    <name>Marche nordique</name>
    <desc><![CDATA[Par une belle matinée ensoleillé et sous les couleurs de l\\\'automne  ]]></desc>
  </metadata>
  <trk>
    <name><![CDATA[09/11/2013 8:11]]></name>
    <desc><![CDATA[]]></desc>
    <trkseg>
      <trkpt lat="47.32546" lon="4.95854">
        <ele>404</ele>
        <time>2013-11-09T07:11:18.949Z</time>
      </trkpt>
      <trkpt lat="47.32542" lon="4.95849">
        <ele>404</ele>
        <time>2013-11-09T07:11:27.032Z</time>
      </trkpt>
      <trkpt lat="47.32542" lon="4.95849">
        <ele>404</ele>
        <time>2013-11-09T07:11:29.064Z</time>
      </trkpt>
      <trkpt lat="47.32545" lon="4.9585">
        <ele>404</ele>
        <time>2013-11-09T07:11:31.963Z</time>
      </trkpt>
      <trkpt lat="47.32545" lon="4.9585">
        <ele>404</ele>
        <time>2013-11-09T07:11:33.995Z</time>
      </trkpt>
      <trkpt lat="47.32545" lon="4.9585">
        <ele>404</ele>
        <time>2013-11-09T07:12:06.962Z</time>
      </trkpt>
      <trkpt lat="47.3254" lon="4.95855">
        <ele>404</ele>
        <time>2013-11-09T07:12:09.040Z</time>
      </trkpt>
      <trkpt lat="47.32535" lon="4.9586">
        <ele>404</ele>
        <time>2013-11-09T07:12:13.063Z</time>
      </trkpt>
      <trkpt lat="47.32532" lon="4.95864">
        <ele>404</ele>
        <time>2013-11-09T07:12:15.959Z</time>
      </trkpt>
      <trkpt lat="47.32526" lon="4.95867">
        <ele>404</ele>
        <time>2013-11-09T07:12:20.075Z</time>
      </trkpt>
      <trkpt lat="47.32522" lon="4.95869">
        <ele>404</ele>
        <time>2013-11-09T07:12:22.954Z</time>
      </trkpt>
      <trkpt lat="47.32514" lon="4.95873">
        <ele>404</ele>
        <time>2013-11-09T07:12:27.959Z</time>
      </trkpt>
      <trkpt lat="47.32511" lon="4.95875">
        <ele>404</ele>
        <time>2013-11-09T07:12:29.963Z</time>
      </trkpt>
      <trkpt lat="47.32504" lon="4.95881">
        <ele>404</ele>
        <time>2013-11-09T07:12:34.966Z</time>
      </trkpt>
      <trkpt lat="47.32498" lon="4.95885">
        <ele>405</ele>
        <time>2013-11-09T07:12:37.965Z</time>
      </trkpt>
      <trkpt lat="47.32495" lon="4.95888">
        <ele>405</ele>
        <time>2013-11-09T07:12:39.968Z</time>
      </trkpt>
      <trkpt lat="47.3249" lon="4.95892">
        <ele>405</ele>
        <time>2013-11-09T07:12:42.984Z</time>
      </trkpt>
      <trkpt lat="47.32485" lon="4.95895">
        <ele>405</ele>
        <time>2013-11-09T07:12:45.978Z</time>
      </trkpt>
      <trkpt lat="47.3248" lon="4.95898">
        <ele>405</ele>
        <time>2013-11-09T07:12:48.944Z</time>
      </trkpt>
      <trkpt lat="47.32474" lon="4.95902">
        <ele>405</ele>
        <time>2013-11-09T07:12:52.959Z</time>
      </trkpt>
      <trkpt lat="47.32471" lon="4.95904">
        <ele>405</ele>
        <time>2013-11-09T07:12:54.964Z</time>
      </trkpt>
      <trkpt lat="47.32464" lon="4.95907">
        <ele>405</ele>
        <time>2013-11-09T07:12:59.962Z</time>
      </trkpt>
      <trkpt lat="47.3246" lon="4.95909">
        <ele>405</ele>
        <time>2013-11-09T07:13:01.967Z</time>
      </trkpt>
      <trkpt lat="47.32454" lon="4.95912">
        <ele>405</ele>
        <time>2013-11-09T07:13:06.058Z</time>
      </trkpt>
      <trkpt lat="47.32449" lon="4.95913">
        <ele>405</ele>
        <time>2013-11-09T07:13:08.944Z</time>
      </trkpt>
      <trkpt lat="47.32442" lon="4.95917">
        <ele>405</ele>
        <time>2013-11-09T07:13:13.966Z</time>
      </trkpt>
      <trkpt lat="47.32437" lon="4.95919">
        <ele>405</ele>
        <time>2013-11-09T07:13:16.955Z</time>
      </trkpt>
      <trkpt lat="47.3243" lon="4.95923">
        <ele>406</ele>
        <time>2013-11-09T07:13:22.479Z</time>
      </trkpt>
      <trkpt lat="47.32427" lon="4.95924">
        <ele>406</ele>
        <time>2013-11-09T07:13:24.490Z</time>
      </trkpt>
      <trkpt lat="47.32419" lon="4.95925">
        <ele>406</ele>
        <time>2013-11-09T07:13:30.477Z</time>
      </trkpt>
      <trkpt lat="47.32417" lon="4.95925">
        <ele>406</ele>
        <time>2013-11-09T07:13:32.482Z</time>
      </trkpt>
      <trkpt lat="47.32408" lon="4.95929">
        <ele>405</ele>
        <time>2013-11-09T07:13:38.483Z</time>
      </trkpt>
      <trkpt lat="47.32404" lon="4.9593">
        <ele>405</ele>
        <time>2013-11-09T07:13:41.467Z</time>
      </trkpt>
      <trkpt lat="47.32396" lon="4.95932">
        <ele>405</ele>
        <time>2013-11-09T07:13:47.481Z</time>
      </trkpt>
      <trkpt lat="47.32394" lon="4.95933">
        <ele>405</ele>
        <time>2013-11-09T07:13:49.487Z</time>
      </trkpt>
      <trkpt lat="47.32386" lon="4.95934">
        <ele>405</ele>
        <time>2013-11-09T07:13:55.474Z</time>
      </trkpt>
      <trkpt lat="47.32383" lon="4.95934">
        <ele>405</ele>
        <time>2013-11-09T07:13:57.481Z</time>
      </trkpt>
      <trkpt lat="47.32377" lon="4.95935">
        <ele>405</ele>
        <time>2013-11-09T07:14:02.409Z</time>
      </trkpt>
      <trkpt lat="47.32372" lon="4.95938">
        <ele>405</ele>
        <time>2013-11-09T07:14:05.411Z</time>
      </trkpt>
      <trkpt lat="47.32365" lon="4.9594">
        <ele>405</ele>
        <time>2013-11-09T07:14:10.459Z</time>
      </trkpt>
      <trkpt lat="47.3236" lon="4.95943">
        <ele>405</ele>
        <time>2013-11-09T07:14:13.399Z</time>
      </trkpt>
      <trkpt lat="47.32353" lon="4.95945">
        <ele>405</ele>
        <time>2013-11-09T07:14:18.402Z</time>
      </trkpt>
      <trkpt lat="47.3235" lon="4.95945">
        <ele>405</ele>
        <time>2013-11-09T07:14:20.433Z</time>
      </trkpt>
      <trkpt lat="47.32343" lon="4.95947">
        <ele>405</ele>
        <time>2013-11-09T07:14:25.408Z</time>
      </trkpt>
      <trkpt lat="47.32337" lon="4.95949">
        <ele>405</ele>
        <time>2013-11-09T07:14:28.402Z</time>
      </trkpt>
      <trkpt lat="47.3233" lon="4.95953">
        <ele>403</ele>
        <time>2013-11-09T07:14:33.420Z</time>
      </trkpt>
      <trkpt lat="47.32326" lon="4.95954">
        <ele>403</ele>
        <time>2013-11-09T07:14:36.395Z</time>
      </trkpt>
      <trkpt lat="47.32318" lon="4.95957">
        <ele>403</ele>
        <time>2013-11-09T07:14:41.419Z</time>
      </trkpt>
      <trkpt lat="47.32314" lon="4.95957">
        <ele>403</ele>
        <time>2013-11-09T07:14:44.426Z</time>
      </trkpt>
      <trkpt lat="47.32307" lon="4.95955">
        <ele>403</ele>
        <time>2013-11-09T07:14:49.407Z</time>
      </trkpt>
      <trkpt lat="47.32305" lon="4.95956">
        <ele>403</ele>
        <time>2013-11-09T07:14:51.479Z</time>
      </trkpt>
      <trkpt lat="47.32298" lon="4.95959">
        <ele>403</ele>
        <time>2013-11-09T07:14:56.418Z</time>
      </trkpt>
      <trkpt lat="47.32294" lon="4.9596">
        <ele>403</ele>
        <time>2013-11-09T07:14:59.396Z</time>
      </trkpt>
      <trkpt lat="47.32286" lon="4.95963">
        <ele>403</ele>
        <time>2013-11-09T07:15:04.504Z</time>
      </trkpt>
      <trkpt lat="47.32281" lon="4.95964">
        <ele>403</ele>
        <time>2013-11-09T07:15:07.449Z</time>
      </trkpt>
      <trkpt lat="47.32274" lon="4.95966">
        <ele>402</ele>
        <time>2013-11-09T07:15:11.380Z</time>
      </trkpt>
      <trkpt lat="47.32271" lon="4.95966">
        <ele>402</ele>
        <time>2013-11-09T07:15:13.410Z</time>
      </trkpt>
      <trkpt lat="47.32264" lon="4.95968">
        <ele>402</ele>
        <time>2013-11-09T07:15:18.398Z</time>
      </trkpt>
      <trkpt lat="47.32261" lon="4.95969">
        <ele>402</ele>
        <time>2013-11-09T07:15:20.412Z</time>
      </trkpt>
      <trkpt lat="47.32253" lon="4.9597">
        <ele>402</ele>
        <time>2013-11-09T07:15:25.419Z</time>
      </trkpt>
      <trkpt lat="47.32248" lon="4.95971">
        <ele>398</ele>
        <time>2013-11-09T07:15:28.488Z</time>
      </trkpt>
      <trkpt lat="47.32242" lon="4.9597">
        <ele>398</ele>
        <time>2013-11-09T07:15:32.562Z</time>
      </trkpt>
      <trkpt lat="47.32238" lon="4.95969">
        <ele>398</ele>
        <time>2013-11-09T07:15:35.534Z</time>
      </trkpt>
      <trkpt lat="47.32232" lon="4.95965">
        <ele>397</ele>
        <time>2013-11-09T07:15:39.540Z</time>
      </trkpt>
      <trkpt lat="47.32229" lon="4.95962">
        <ele>397</ele>
        <time>2013-11-09T07:15:41.555Z</time>
      </trkpt>
      <trkpt lat="47.32224" lon="4.95954">
        <ele>397</ele>
        <time>2013-11-09T07:15:46.555Z</time>
      </trkpt>
      <trkpt lat="47.32222" lon="4.95951">
        <ele>397</ele>
        <time>2013-11-09T07:15:48.569Z</time>
      </trkpt>
      <trkpt lat="47.32219" lon="4.95942">
        <ele>397</ele>
        <time>2013-11-09T07:15:53.549Z</time>
      </trkpt>
      <trkpt lat="47.32218" lon="4.95938">
        <ele>397</ele>
        <time>2013-11-09T07:15:55.559Z</time>
      </trkpt>
      <trkpt lat="47.32215" lon="4.9593">
        <ele>397</ele>
        <time>2013-11-09T07:15:59.568Z</time>
      </trkpt>
      <trkpt lat="47.32213" lon="4.95925">
        <ele>397</ele>
        <time>2013-11-09T07:16:02.432Z</time>
      </trkpt>
      <trkpt lat="47.32211" lon="4.95914">
        <ele>398</ele>
        <time>2013-11-09T07:16:07.389Z</time>
      </trkpt>
      <trkpt lat="47.3221" lon="4.9591">
        <ele>398</ele>
        <time>2013-11-09T07:16:09.388Z</time>
      </trkpt>
      <trkpt lat="47.32208" lon="4.95901">
        <ele>398</ele>
        <time>2013-11-09T07:16:14.434Z</time>
      </trkpt>
      <trkpt lat="47.32206" lon="4.95896">
        <ele>398</ele>
        <time>2013-11-09T07:16:17.393Z</time>
      </trkpt>
      <trkpt lat="47.32202" lon="4.95885">
        <ele>398</ele>
        <time>2013-11-09T07:16:23.427Z</time>
      </trkpt>
      <trkpt lat="47.322" lon="4.9588">
        <ele>398</ele>
        <time>2013-11-09T07:16:26.413Z</time>
      </trkpt>
      <trkpt lat="47.32197" lon="4.95869">
        <ele>398</ele>
        <time>2013-11-09T07:16:32.413Z</time>
      </trkpt>
      <trkpt lat="47.32195" lon="4.95863">
        <ele>398</ele>
        <time>2013-11-09T07:16:35.404Z</time>
      </trkpt>
      <trkpt lat="47.32191" lon="4.95854">
        <ele>398</ele>
        <time>2013-11-09T07:16:40.409Z</time>
      </trkpt>
      <trkpt lat="47.3219" lon="4.9585">
        <ele>398</ele>
        <time>2013-11-09T07:16:42.427Z</time>
      </trkpt>
      <trkpt lat="47.32187" lon="4.9584">
        <ele>398</ele>
        <time>2013-11-09T07:16:47.418Z</time>
      </trkpt>
      <trkpt lat="47.32185" lon="4.95835">
        <ele>398</ele>
        <time>2013-11-09T07:16:50.416Z</time>
      </trkpt>
      <trkpt lat="47.32181" lon="4.95826">
        <ele>399</ele>
        <time>2013-11-09T07:16:55.427Z</time>
      </trkpt>
      <trkpt lat="47.32179" lon="4.9582">
        <ele>399</ele>
        <time>2013-11-09T07:16:58.435Z</time>
      </trkpt>
      <trkpt lat="47.32175" lon="4.95808">
        <ele>400</ele>
        <time>2013-11-09T07:17:04.403Z</time>
      </trkpt>
      <trkpt lat="47.32173" lon="4.95805">
        <ele>400</ele>
        <time>2013-11-09T07:17:06.403Z</time>
      </trkpt>
      <trkpt lat="47.32169" lon="4.95793">
        <ele>400</ele>
        <time>2013-11-09T07:17:13.410Z</time>
      </trkpt>
      <trkpt lat="47.32168" lon="4.95789">
        <ele>400</ele>
        <time>2013-11-09T07:17:15.413Z</time>
      </trkpt>
      <trkpt lat="47.32165" lon="4.95783">
        <ele>396</ele>
        <time>2013-11-09T07:17:19.421Z</time>
      </trkpt>
      <trkpt lat="47.32162" lon="4.95778">
        <ele>396</ele>
        <time>2013-11-09T07:17:22.429Z</time>
      </trkpt>
      <trkpt lat="47.32158" lon="4.95768">
        <ele>396</ele>
        <time>2013-11-09T07:17:27.408Z</time>
      </trkpt>
      <trkpt lat="47.32157" lon="4.95764">
        <ele>397</ele>
        <time>2013-11-09T07:17:29.418Z</time>
      </trkpt>
      <trkpt lat="47.32153" lon="4.95754">
        <ele>397</ele>
        <time>2013-11-09T07:17:34.403Z</time>
      </trkpt>
      <trkpt lat="47.32151" lon="4.95749">
        <ele>398</ele>
        <time>2013-11-09T07:17:37.399Z</time>
      </trkpt>
      <trkpt lat="47.32147" lon="4.9574">
        <ele>398</ele>
        <time>2013-11-09T07:17:42.382Z</time>
      </trkpt>
      <trkpt lat="47.32146" lon="4.95736">
        <ele>398</ele>
        <time>2013-11-09T07:17:44.415Z</time>
      </trkpt>
      <trkpt lat="47.32142" lon="4.95727">
        <ele>397</ele>
        <time>2013-11-09T07:17:49.395Z</time>
      </trkpt>
      <trkpt lat="47.32141" lon="4.95723">
        <ele>397</ele>
        <time>2013-11-09T07:17:51.416Z</time>
      </trkpt>
      <trkpt lat="47.32137" lon="4.95713">
        <ele>397</ele>
        <time>2013-11-09T07:17:56.424Z</time>
      </trkpt>
      <trkpt lat="47.32135" lon="4.95709">
        <ele>397</ele>
        <time>2013-11-09T07:17:58.431Z</time>
      </trkpt>
      <trkpt lat="47.32132" lon="4.957">
        <ele>397</ele>
        <time>2013-11-09T07:18:03.401Z</time>
      </trkpt>
      <trkpt lat="47.3213" lon="4.95696">
        <ele>397</ele>
        <time>2013-11-09T07:18:05.406Z</time>
      </trkpt>
      <trkpt lat="47.32127" lon="4.95686">
        <ele>397</ele>
        <time>2013-11-09T07:18:10.407Z</time>
      </trkpt>
      <trkpt lat="47.32126" lon="4.95684">
        <ele>397</ele>
        <time>2013-11-09T07:18:11.417Z</time>
      </trkpt>
      <trkpt lat="47.32123" lon="4.95673">
        <ele>397</ele>
        <time>2013-11-09T07:18:16.426Z</time>
      </trkpt>
      <trkpt lat="47.32121" lon="4.95667">
        <ele>399</ele>
        <time>2013-11-09T07:18:19.443Z</time>
      </trkpt>
      <trkpt lat="47.32117" lon="4.95656">
        <ele>399</ele>
        <time>2013-11-09T07:18:24.433Z</time>
      </trkpt>
      <trkpt lat="47.32115" lon="4.9565">
        <ele>399</ele>
        <time>2013-11-09T07:18:27.435Z</time>
      </trkpt>
      <trkpt lat="47.32111" lon="4.9564">
        <ele>399</ele>
        <time>2013-11-09T07:18:32.434Z</time>
      </trkpt>
      <trkpt lat="47.32109" lon="4.95634">
        <ele>399</ele>
        <time>2013-11-09T07:18:35.416Z</time>
      </trkpt>
      <trkpt lat="47.32107" lon="4.95628">
        <ele>400</ele>
        <time>2013-11-09T07:18:38.411Z</time>
      </trkpt>
      <trkpt lat="47.32105" lon="4.95622">
        <ele>400</ele>
        <time>2013-11-09T07:18:41.436Z</time>
      </trkpt>
      <trkpt lat="47.32103" lon="4.95615">
        <ele>400</ele>
        <time>2013-11-09T07:18:44.421Z</time>
      </trkpt>
      <trkpt lat="47.32101" lon="4.95609">
        <ele>400</ele>
        <time>2013-11-09T07:18:47.413Z</time>
      </trkpt>
      <trkpt lat="47.32099" lon="4.95603">
        <ele>400</ele>
        <time>2013-11-09T07:18:50.436Z</time>
      </trkpt>
      <trkpt lat="47.32097" lon="4.95597">
        <ele>400</ele>
        <time>2013-11-09T07:18:53.409Z</time>
      </trkpt>
      <trkpt lat="47.32094" lon="4.95587">
        <ele>400</ele>
        <time>2013-11-09T07:18:58.408Z</time>
      </trkpt>
      <trkpt lat="47.32092" lon="4.95581">
        <ele>401</ele>
        <time>2013-11-09T07:19:01.400Z</time>
      </trkpt>
      <trkpt lat="47.32089" lon="4.95573">
        <ele>401</ele>
        <time>2013-11-09T07:19:05.417Z</time>
      </trkpt>
      <trkpt lat="47.32086" lon="4.95567">
        <ele>402</ele>
        <time>2013-11-09T07:19:08.425Z</time>
      </trkpt>
      <trkpt lat="47.32083" lon="4.95557">
        <ele>400</ele>
        <time>2013-11-09T07:19:13.403Z</time>
      </trkpt>
      <trkpt lat="47.32081" lon="4.95554">
        <ele>400</ele>
        <time>2013-11-09T07:19:15.437Z</time>
      </trkpt>
      <trkpt lat="47.32077" lon="4.95544">
        <ele>400</ele>
        <time>2013-11-09T07:19:20.463Z</time>
      </trkpt>
      <trkpt lat="47.32075" lon="4.95538">
        <ele>400</ele>
        <time>2013-11-09T07:19:23.418Z</time>
      </trkpt>
      <trkpt lat="47.32071" lon="4.95528">
        <ele>401</ele>
        <time>2013-11-09T07:19:28.376Z</time>
      </trkpt>
      <trkpt lat="47.32069" lon="4.95524">
        <ele>401</ele>
        <time>2013-11-09T07:19:30.400Z</time>
      </trkpt>
      <trkpt lat="47.32065" lon="4.95514">
        <ele>401</ele>
        <time>2013-11-09T07:19:35.405Z</time>
      </trkpt>
      <trkpt lat="47.32064" lon="4.9551">
        <ele>401</ele>
        <time>2013-11-09T07:19:37.405Z</time>
      </trkpt>
      <trkpt lat="47.3206" lon="4.95502">
        <ele>401</ele>
        <time>2013-11-09T07:19:41.409Z</time>
      </trkpt>
      <trkpt lat="47.32058" lon="4.95497">
        <ele>403</ele>
        <time>2013-11-09T07:19:44.431Z</time>
      </trkpt>
      <trkpt lat="47.32053" lon="4.95488">
        <ele>403</ele>
        <time>2013-11-09T07:19:49.446Z</time>
      </trkpt>
      <trkpt lat="47.3205" lon="4.95483">
        <ele>403</ele>
        <time>2013-11-09T07:19:52.415Z</time>
      </trkpt>
      <trkpt lat="47.32046" lon="4.95475">
        <ele>403</ele>
        <time>2013-11-09T07:19:57.440Z</time>
      </trkpt>
      <trkpt lat="47.32044" lon="4.9547">
        <ele>403</ele>
        <time>2013-11-09T07:20:00.408Z</time>
      </trkpt>
      <trkpt lat="47.3204" lon="4.9546">
        <ele>403</ele>
        <time>2013-11-09T07:20:05.408Z</time>
      </trkpt>
      <trkpt lat="47.32037" lon="4.95455">
        <ele>403</ele>
        <time>2013-11-09T07:20:08.404Z</time>
      </trkpt>
      <trkpt lat="47.32035" lon="4.95449">
        <ele>403</ele>
        <time>2013-11-09T07:20:11.418Z</time>
      </trkpt>
      <trkpt lat="47.32032" lon="4.95444">
        <ele>403</ele>
        <time>2013-11-09T07:20:14.426Z</time>
      </trkpt>
      <trkpt lat="47.32028" lon="4.95434">
        <ele>403</ele>
        <time>2013-11-09T07:20:19.395Z</time>
      </trkpt>
      <trkpt lat="47.32026" lon="4.95431">
        <ele>403</ele>
        <time>2013-11-09T07:20:21.449Z</time>
      </trkpt>
      <trkpt lat="47.32022" lon="4.95422">
        <ele>403</ele>
        <time>2013-11-09T07:20:26.419Z</time>
      </trkpt>
      <trkpt lat="47.32019" lon="4.95416">
        <ele>405</ele>
        <time>2013-11-09T07:20:29.394Z</time>
      </trkpt>
      <trkpt lat="47.32015" lon="4.95406">
        <ele>405</ele>
        <time>2013-11-09T07:20:34.420Z</time>
      </trkpt>
      <trkpt lat="47.32013" lon="4.954">
        <ele>405</ele>
        <time>2013-11-09T07:20:37.401Z</time>
      </trkpt>
      <trkpt lat="47.32009" lon="4.95392">
        <ele>405</ele>
        <time>2013-11-09T07:20:41.415Z</time>
      </trkpt>
      <trkpt lat="47.32007" lon="4.95387">
        <ele>405</ele>
        <time>2013-11-09T07:20:44.417Z</time>
      </trkpt>
      <trkpt lat="47.32002" lon="4.95377">
        <ele>406</ele>
        <time>2013-11-09T07:20:49.432Z</time>
      </trkpt>
      <trkpt lat="47.32" lon="4.95372">
        <ele>405</ele>
        <time>2013-11-09T07:20:52.452Z</time>
      </trkpt>
      <trkpt lat="47.31994" lon="4.95361">
        <ele>405</ele>
        <time>2013-11-09T07:20:58.372Z</time>
      </trkpt>
      <trkpt lat="47.31993" lon="4.95357">
        <ele>406</ele>
        <time>2013-11-09T07:21:00.418Z</time>
      </trkpt>
      <trkpt lat="47.31988" lon="4.95348">
        <ele>406</ele>
        <time>2013-11-09T07:21:05.408Z</time>
      </trkpt>
      <trkpt lat="47.31986" lon="4.95343">
        <ele>406</ele>
        <time>2013-11-09T07:21:08.438Z</time>
      </trkpt>
      <trkpt lat="47.31981" lon="4.95334">
        <ele>406</ele>
        <time>2013-11-09T07:21:13.406Z</time>
      </trkpt>
      <trkpt lat="47.31979" lon="4.9533">
        <ele>407</ele>
        <time>2013-11-09T07:21:15.447Z</time>
      </trkpt>
      <trkpt lat="47.31975" lon="4.95322">
        <ele>407</ele>
        <time>2013-11-09T07:21:20.430Z</time>
      </trkpt>
      <trkpt lat="47.31972" lon="4.95317">
        <ele>407</ele>
        <time>2013-11-09T07:21:23.443Z</time>
      </trkpt>
      <trkpt lat="47.31967" lon="4.95309">
        <ele>407</ele>
        <time>2013-11-09T07:21:28.475Z</time>
      </trkpt>
      <trkpt lat="47.31964" lon="4.95304">
        <ele>407</ele>
        <time>2013-11-09T07:21:31.395Z</time>
      </trkpt>
      <trkpt lat="47.3196" lon="4.95297">
        <ele>407</ele>
        <time>2013-11-09T07:21:35.418Z</time>
      </trkpt>
      <trkpt lat="47.31957" lon="4.95292">
        <ele>407</ele>
        <time>2013-11-09T07:21:38.412Z</time>
      </trkpt>
      <trkpt lat="47.31954" lon="4.95284">
        <ele>407</ele>
        <time>2013-11-09T07:21:42.406Z</time>
      </trkpt>
      <trkpt lat="47.31951" lon="4.9528">
        <ele>407</ele>
        <time>2013-11-09T07:21:44.428Z</time>
      </trkpt>
      <trkpt lat="47.31946" lon="4.95273">
        <ele>407</ele>
        <time>2013-11-09T07:21:49.417Z</time>
      </trkpt>
      <trkpt lat="47.31943" lon="4.95268">
        <ele>407</ele>
        <time>2013-11-09T07:21:52.419Z</time>
      </trkpt>
      <trkpt lat="47.31939" lon="4.9526">
        <ele>407</ele>
        <time>2013-11-09T07:21:56.451Z</time>
      </trkpt>
      <trkpt lat="47.31936" lon="4.95254">
        <ele>407</ele>
        <time>2013-11-09T07:21:59.420Z</time>
      </trkpt>
      <trkpt lat="47.31931" lon="4.95244">
        <ele>408</ele>
        <time>2013-11-09T07:22:04.373Z</time>
      </trkpt>
      <trkpt lat="47.31928" lon="4.9524">
        <ele>408</ele>
        <time>2013-11-09T07:22:07.383Z</time>
      </trkpt>
      <trkpt lat="47.31924" lon="4.95234">
        <ele>408</ele>
        <time>2013-11-09T07:22:11.396Z</time>
      </trkpt>
      <trkpt lat="47.31921" lon="4.95229">
        <ele>408</ele>
        <time>2013-11-09T07:22:14.418Z</time>
      </trkpt>
      <trkpt lat="47.31916" lon="4.95221">
        <ele>409</ele>
        <time>2013-11-09T07:22:18.515Z</time>
      </trkpt>
      <trkpt lat="47.31913" lon="4.95216">
        <ele>409</ele>
        <time>2013-11-09T07:22:21.405Z</time>
      </trkpt>
      <trkpt lat="47.31909" lon="4.9521">
        <ele>409</ele>
        <time>2013-11-09T07:22:25.459Z</time>
      </trkpt>
      <trkpt lat="47.31906" lon="4.95205">
        <ele>409</ele>
        <time>2013-11-09T07:22:28.446Z</time>
      </trkpt>
      <trkpt lat="47.31901" lon="4.95198">
        <ele>409</ele>
        <time>2013-11-09T07:22:33.410Z</time>
      </trkpt>
      <trkpt lat="47.31897" lon="4.95193">
        <ele>409</ele>
        <time>2013-11-09T07:22:36.397Z</time>
      </trkpt>
      <trkpt lat="47.31892" lon="4.95185">
        <ele>410</ele>
        <time>2013-11-09T07:22:41.408Z</time>
      </trkpt>
      <trkpt lat="47.31888" lon="4.95181">
        <ele>410</ele>
        <time>2013-11-09T07:22:44.410Z</time>
      </trkpt>
      <trkpt lat="47.31883" lon="4.95175">
        <ele>410</ele>
        <time>2013-11-09T07:22:49.442Z</time>
      </trkpt>
      <trkpt lat="47.3188" lon="4.95171">
        <ele>410</ele>
        <time>2013-11-09T07:22:52.447Z</time>
      </trkpt>
      <trkpt lat="47.31875" lon="4.9517">
        <ele>410</ele>
        <time>2013-11-09T07:22:55.444Z</time>
      </trkpt>
      <trkpt lat="47.3187" lon="4.95171">
        <ele>410</ele>
        <time>2013-11-09T07:22:58.446Z</time>
      </trkpt>
      <trkpt lat="47.31865" lon="4.95174">
        <ele>410</ele>
        <time>2013-11-09T07:23:01.404Z</time>
      </trkpt>
      <trkpt lat="47.31861" lon="4.95178">
        <ele>410</ele>
        <time>2013-11-09T07:23:04.411Z</time>
      </trkpt>
      <trkpt lat="47.31855" lon="4.95185">
        <ele>410</ele>
        <time>2013-11-09T07:23:09.396Z</time>
      </trkpt>
      <trkpt lat="47.31853" lon="4.95189">
        <ele>410</ele>
        <time>2013-11-09T07:23:11.412Z</time>
      </trkpt>
      <trkpt lat="47.31849" lon="4.952">
        <ele>410</ele>
        <time>2013-11-09T07:23:16.447Z</time>
      </trkpt>
      <trkpt lat="47.31846" lon="4.95206">
        <ele>410</ele>
        <time>2013-11-09T07:23:19.432Z</time>
      </trkpt>
      <trkpt lat="47.31844" lon="4.95213">
        <ele>410</ele>
        <time>2013-11-09T07:23:22.437Z</time>
      </trkpt>
      <trkpt lat="47.31841" lon="4.9522">
        <ele>410</ele>
        <time>2013-11-09T07:23:25.446Z</time>
      </trkpt>
      <trkpt lat="47.31837" lon="4.95226">
        <ele>410</ele>
        <time>2013-11-09T07:23:28.426Z</time>
      </trkpt>
      <trkpt lat="47.31834" lon="4.95233">
        <ele>410</ele>
        <time>2013-11-09T07:23:31.399Z</time>
      </trkpt>
      <trkpt lat="47.31832" lon="4.95239">
        <ele>412</ele>
        <time>2013-11-09T07:23:33.414Z</time>
      </trkpt>
      <trkpt lat="47.31829" lon="4.95248">
        <ele>411</ele>
        <time>2013-11-09T07:23:36.398Z</time>
      </trkpt>
      <trkpt lat="47.31826" lon="4.95257">
        <ele>411</ele>
        <time>2013-11-09T07:23:39.634Z</time>
      </trkpt>
      <trkpt lat="47.31824" lon="4.95263">
        <ele>411</ele>
        <time>2013-11-09T07:23:41.685Z</time>
      </trkpt>
      <trkpt lat="47.31821" lon="4.95272">
        <ele>411</ele>
        <time>2013-11-09T07:23:44.691Z</time>
      </trkpt>
      <trkpt lat="47.31819" lon="4.95278">
        <ele>411</ele>
        <time>2013-11-09T07:23:46.718Z</time>
      </trkpt>
      <trkpt lat="47.31817" lon="4.95288">
        <ele>411</ele>
        <time>2013-11-09T07:23:49.724Z</time>
      </trkpt>
      <trkpt lat="47.31813" lon="4.95297">
        <ele>411</ele>
        <time>2013-11-09T07:23:52.746Z</time>
      </trkpt>
      <trkpt lat="47.3181" lon="4.95306">
        <ele>411</ele>
        <time>2013-11-09T07:23:55.709Z</time>
      </trkpt>
      <trkpt lat="47.31808" lon="4.95312">
        <ele>411</ele>
        <time>2013-11-09T07:23:57.713Z</time>
      </trkpt>
      <trkpt lat="47.31805" lon="4.9532">
        <ele>411</ele>
        <time>2013-11-09T07:24:00.730Z</time>
      </trkpt>
      <trkpt lat="47.31804" lon="4.95326">
        <ele>411</ele>
        <time>2013-11-09T07:24:02.746Z</time>
      </trkpt>
      <trkpt lat="47.31802" lon="4.95335">
        <ele>411</ele>
        <time>2013-11-09T07:24:05.733Z</time>
      </trkpt>
      <trkpt lat="47.31799" lon="4.95345">
        <ele>411</ele>
        <time>2013-11-09T07:24:08.726Z</time>
      </trkpt>
      <trkpt lat="47.31797" lon="4.95354">
        <ele>411</ele>
        <time>2013-11-09T07:24:11.724Z</time>
      </trkpt>
      <trkpt lat="47.31794" lon="4.95363">
        <ele>411</ele>
        <time>2013-11-09T07:24:14.756Z</time>
      </trkpt>
      <trkpt lat="47.31792" lon="4.95368">
        <ele>411</ele>
        <time>2013-11-09T07:24:16.770Z</time>
      </trkpt>
      <trkpt lat="47.31789" lon="4.95377">
        <ele>411</ele>
        <time>2013-11-09T07:24:19.741Z</time>
      </trkpt>
      <trkpt lat="47.31787" lon="4.95383">
        <ele>411</ele>
        <time>2013-11-09T07:24:21.745Z</time>
      </trkpt>
      <trkpt lat="47.31785" lon="4.95389">
        <ele>411</ele>
        <time>2013-11-09T07:24:23.747Z</time>
      </trkpt>
      <trkpt lat="47.31783" lon="4.95396">
        <ele>411</ele>
        <time>2013-11-09T07:24:25.749Z</time>
      </trkpt>
      <trkpt lat="47.3178" lon="4.95406">
        <ele>411</ele>
        <time>2013-11-09T07:24:28.744Z</time>
      </trkpt>
      <trkpt lat="47.31777" lon="4.95414">
        <ele>411</ele>
        <time>2013-11-09T07:24:31.728Z</time>
      </trkpt>
      <trkpt lat="47.31776" lon="4.95419">
        <ele>411</ele>
        <time>2013-11-09T07:24:33.732Z</time>
      </trkpt>
      <trkpt lat="47.31774" lon="4.95424">
        <ele>411</ele>
        <time>2013-11-09T07:24:35.732Z</time>
      </trkpt>
      <trkpt lat="47.3177" lon="4.95432">
        <ele>411</ele>
        <time>2013-11-09T07:24:38.736Z</time>
      </trkpt>
      <trkpt lat="47.31767" lon="4.95439">
        <ele>411</ele>
        <time>2013-11-09T07:24:41.733Z</time>
      </trkpt>
      <trkpt lat="47.31765" lon="4.95445">
        <ele>411</ele>
        <time>2013-11-09T07:24:43.734Z</time>
      </trkpt>
      <trkpt lat="47.31763" lon="4.9545">
        <ele>411</ele>
        <time>2013-11-09T07:24:45.749Z</time>
      </trkpt>
      <trkpt lat="47.31761" lon="4.95458">
        <ele>411</ele>
        <time>2013-11-09T07:24:48.760Z</time>
      </trkpt>
      <trkpt lat="47.31758" lon="4.95463">
        <ele>411</ele>
        <time>2013-11-09T07:24:50.760Z</time>
      </trkpt>
      <trkpt lat="47.31755" lon="4.95471">
        <ele>411</ele>
        <time>2013-11-09T07:24:53.766Z</time>
      </trkpt>
      <trkpt lat="47.31753" lon="4.95476">
        <ele>411</ele>
        <time>2013-11-09T07:24:55.770Z</time>
      </trkpt>
      <trkpt lat="47.31749" lon="4.95484">
        <ele>412</ele>
        <time>2013-11-09T07:24:58.743Z</time>
      </trkpt>
      <trkpt lat="47.31745" lon="4.95492">
        <ele>412</ele>
        <time>2013-11-09T07:25:01.743Z</time>
      </trkpt>
      <trkpt lat="47.31742" lon="4.95499">
        <ele>412</ele>
        <time>2013-11-09T07:25:04.716Z</time>
      </trkpt>
      <trkpt lat="47.3174" lon="4.95505">
        <ele>412</ele>
        <time>2013-11-09T07:25:06.736Z</time>
      </trkpt>
      <trkpt lat="47.31736" lon="4.95512">
        <ele>413</ele>
        <time>2013-11-09T07:25:09.720Z</time>
      </trkpt>
      <trkpt lat="47.31732" lon="4.95523">
        <ele>413</ele>
        <time>2013-11-09T07:25:13.734Z</time>
      </trkpt>
      <trkpt lat="47.31731" lon="4.95529">
        <ele>413</ele>
        <time>2013-11-09T07:25:15.781Z</time>
      </trkpt>
      <trkpt lat="47.31727" lon="4.95537">
        <ele>413</ele>
        <time>2013-11-09T07:25:18.743Z</time>
      </trkpt>
      <trkpt lat="47.31725" lon="4.95543">
        <ele>413</ele>
        <time>2013-11-09T07:25:20.785Z</time>
      </trkpt>
      <trkpt lat="47.31722" lon="4.95551">
        <ele>414</ele>
        <time>2013-11-09T07:25:23.785Z</time>
      </trkpt>
      <trkpt lat="47.31718" lon="4.95559">
        <ele>414</ele>
        <time>2013-11-09T07:25:26.713Z</time>
      </trkpt>
      <trkpt lat="47.31715" lon="4.95566">
        <ele>414</ele>
        <time>2013-11-09T07:25:29.846Z</time>
      </trkpt>
      <trkpt lat="47.31713" lon="4.95572">
        <ele>414</ele>
        <time>2013-11-09T07:25:31.846Z</time>
      </trkpt>
      <trkpt lat="47.31711" lon="4.95578">
        <ele>414</ele>
        <time>2013-11-09T07:25:33.881Z</time>
      </trkpt>
      <trkpt lat="47.31707" lon="4.95586">
        <ele>415</ele>
        <time>2013-11-09T07:25:36.914Z</time>
      </trkpt>
      <trkpt lat="47.31704" lon="4.95594">
        <ele>415</ele>
        <time>2013-11-09T07:25:39.897Z</time>
      </trkpt>
      <trkpt lat="47.31702" lon="4.95599">
        <ele>415</ele>
        <time>2013-11-09T07:25:41.903Z</time>
      </trkpt>
      <trkpt lat="47.31698" lon="4.95608">
        <ele>415</ele>
        <time>2013-11-09T07:25:44.905Z</time>
      </trkpt>
      <trkpt lat="47.31696" lon="4.95613">
        <ele>415</ele>
        <time>2013-11-09T07:25:46.911Z</time>
      </trkpt>
      <trkpt lat="47.31691" lon="4.95624">
        <ele>415</ele>
        <time>2013-11-09T07:25:50.954Z</time>
      </trkpt>
      <trkpt lat="47.31687" lon="4.95632">
        <ele>415</ele>
        <time>2013-11-09T07:25:53.974Z</time>
      </trkpt>
      <trkpt lat="47.31683" lon="4.9564">
        <ele>416</ele>
        <time>2013-11-09T07:25:56.922Z</time>
      </trkpt>
      <trkpt lat="47.31681" lon="4.95645">
        <ele>416</ele>
        <time>2013-11-09T07:25:58.967Z</time>
      </trkpt>
      <trkpt lat="47.31678" lon="4.95654">
        <ele>416</ele>
        <time>2013-11-09T07:26:01.912Z</time>
      </trkpt>
      <trkpt lat="47.31674" lon="4.95661">
        <ele>417</ele>
        <time>2013-11-09T07:26:04.892Z</time>
      </trkpt>
      <trkpt lat="47.31669" lon="4.95672">
        <ele>417</ele>
        <time>2013-11-09T07:26:08.937Z</time>
      </trkpt>
      <trkpt lat="47.31665" lon="4.9568">
        <ele>419</ele>
        <time>2013-11-09T07:26:11.941Z</time>
      </trkpt>
      <trkpt lat="47.31661" lon="4.95687">
        <ele>419</ele>
        <time>2013-11-09T07:26:14.938Z</time>
      </trkpt>
      <trkpt lat="47.31658" lon="4.95691">
        <ele>419</ele>
        <time>2013-11-09T07:26:16.967Z</time>
      </trkpt>
      <trkpt lat="47.31654" lon="4.95698">
        <ele>419</ele>
        <time>2013-11-09T07:26:19.948Z</time>
      </trkpt>
      <trkpt lat="47.31651" lon="4.95703">
        <ele>419</ele>
        <time>2013-11-09T07:26:21.950Z</time>
      </trkpt>
      <trkpt lat="47.31646" lon="4.95711">
        <ele>419</ele>
        <time>2013-11-09T07:26:25.997Z</time>
      </trkpt>
      <trkpt lat="47.31643" lon="4.95711">
        <ele>419</ele>
        <time>2013-11-09T07:26:27.992Z</time>
      </trkpt>
      <trkpt lat="47.31639" lon="4.95704">
        <ele>419</ele>
        <time>2013-11-09T07:26:32.941Z</time>
      </trkpt>
      <trkpt lat="47.31638" lon="4.95699">
        <ele>419</ele>
        <time>2013-11-09T07:26:35.935Z</time>
      </trkpt>
      <trkpt lat="47.31635" lon="4.95689">
        <ele>419</ele>
        <time>2013-11-09T07:26:42.929Z</time>
      </trkpt>
      <trkpt lat="47.31635" lon="4.95686">
        <ele>419</ele>
        <time>2013-11-09T07:26:44.939Z</time>
      </trkpt>
      <trkpt lat="47.31632" lon="4.95678">
        <ele>419</ele>
        <time>2013-11-09T07:26:49.640Z</time>
      </trkpt>
      <trkpt lat="47.31629" lon="4.95674">
        <ele>419</ele>
        <time>2013-11-09T07:26:52.242Z</time>
      </trkpt>
      <trkpt lat="47.31624" lon="4.95671">
        <ele>420</ele>
        <time>2013-11-09T07:26:55.360Z</time>
      </trkpt>
      <trkpt lat="47.3162" lon="4.95668">
        <ele>420</ele>
        <time>2013-11-09T07:26:57.983Z</time>
      </trkpt>
      <trkpt lat="47.31615" lon="4.95665">
        <ele>420</ele>
        <time>2013-11-09T07:27:00.944Z</time>
      </trkpt>
      <trkpt lat="47.31609" lon="4.9566">
        <ele>420</ele>
        <time>2013-11-09T07:27:03.931Z</time>
      </trkpt>
      <trkpt lat="47.31605" lon="4.95657">
        <ele>420</ele>
        <time>2013-11-09T07:27:05.948Z</time>
      </trkpt>
      <trkpt lat="47.316" lon="4.95653">
        <ele>420</ele>
        <time>2013-11-09T07:27:07.977Z</time>
      </trkpt>
      <trkpt lat="47.31595" lon="4.95649">
        <ele>420</ele>
        <time>2013-11-09T07:27:10.954Z</time>
      </trkpt>
      <trkpt lat="47.31592" lon="4.95647">
        <ele>420</ele>
        <time>2013-11-09T07:27:12.966Z</time>
      </trkpt>
      <trkpt lat="47.31584" lon="4.95643">
        <ele>420</ele>
        <time>2013-11-09T07:27:17.978Z</time>
      </trkpt>
      <trkpt lat="47.3158" lon="4.95641">
        <ele>422</ele>
        <time>2013-11-09T07:27:19.979Z</time>
      </trkpt>
      <trkpt lat="47.31576" lon="4.95638">
        <ele>422</ele>
        <time>2013-11-09T07:27:21.983Z</time>
      </trkpt>
      <trkpt lat="47.31571" lon="4.95631">
        <ele>422</ele>
        <time>2013-11-09T07:27:25.016Z</time>
      </trkpt>
      <trkpt lat="47.31567" lon="4.95626">
        <ele>422</ele>
        <time>2013-11-09T07:27:27.991Z</time>
      </trkpt>
      <trkpt lat="47.31562" lon="4.95621">
        <ele>422</ele>
        <time>2013-11-09T07:27:30.949Z</time>
      </trkpt>
      <trkpt lat="47.31557" lon="4.95614">
        <ele>422</ele>
        <time>2013-11-09T07:27:33.943Z</time>
      </trkpt>
      <trkpt lat="47.31553" lon="4.95611">
        <ele>422</ele>
        <time>2013-11-09T07:27:35.944Z</time>
      </trkpt>
      <trkpt lat="47.31547" lon="4.95614">
        <ele>422</ele>
        <time>2013-11-09T07:27:39.947Z</time>
      </trkpt>
      <trkpt lat="47.31543" lon="4.95621">
        <ele>422</ele>
        <time>2013-11-09T07:27:42.932Z</time>
      </trkpt>
      <trkpt lat="47.3154" lon="4.95626">
        <ele>423</ele>
        <time>2013-11-09T07:27:45.007Z</time>
      </trkpt>
      <trkpt lat="47.31537" lon="4.95633">
        <ele>423</ele>
        <time>2013-11-09T07:27:47.974Z</time>
      </trkpt>
      <trkpt lat="47.31534" lon="4.95641">
        <ele>423</ele>
        <time>2013-11-09T07:27:51.986Z</time>
      </trkpt>
      <trkpt lat="47.31532" lon="4.95647">
        <ele>423</ele>
        <time>2013-11-09T07:27:54.962Z</time>
      </trkpt>
      <trkpt lat="47.31528" lon="4.95657">
        <ele>423</ele>
        <time>2013-11-09T07:27:59.010Z</time>
      </trkpt>
      <trkpt lat="47.31526" lon="4.95665">
        <ele>423</ele>
        <time>2013-11-09T07:28:01.940Z</time>
      </trkpt>
      <trkpt lat="47.31524" lon="4.95672">
        <ele>423</ele>
        <time>2013-11-09T07:28:04.952Z</time>
      </trkpt>
      <trkpt lat="47.31522" lon="4.95681">
        <ele>423</ele>
        <time>2013-11-09T07:28:07.969Z</time>
      </trkpt>
      <trkpt lat="47.31521" lon="4.95689">
        <ele>423</ele>
        <time>2013-11-09T07:28:10.930Z</time>
      </trkpt>
      <trkpt lat="47.3152" lon="4.95695">
        <ele>423</ele>
        <time>2013-11-09T07:28:12.951Z</time>
      </trkpt>
      <trkpt lat="47.31518" lon="4.95701">
        <ele>423</ele>
        <time>2013-11-09T07:28:15.007Z</time>
      </trkpt>
      <trkpt lat="47.31515" lon="4.95709">
        <ele>423</ele>
        <time>2013-11-09T07:28:17.988Z</time>
      </trkpt>
      <trkpt lat="47.31513" lon="4.95714">
        <ele>423</ele>
        <time>2013-11-09T07:28:20.064Z</time>
      </trkpt>
      <trkpt lat="47.31511" lon="4.95722">
        <ele>423</ele>
        <time>2013-11-09T07:28:22.990Z</time>
      </trkpt>
      <trkpt lat="47.31508" lon="4.95731">
        <ele>423</ele>
        <time>2013-11-09T07:28:27.971Z</time>
      </trkpt>
      <trkpt lat="47.31505" lon="4.95739">
        <ele>423</ele>
        <time>2013-11-09T07:28:30.950Z</time>
      </trkpt>
      <trkpt lat="47.31503" lon="4.95745">
        <ele>424</ele>
        <time>2013-11-09T07:28:32.957Z</time>
      </trkpt>
      <trkpt lat="47.315" lon="4.95751">
        <ele>424</ele>
        <time>2013-11-09T07:28:34.959Z</time>
      </trkpt>
      <trkpt lat="47.31497" lon="4.95759">
        <ele>424</ele>
        <time>2013-11-09T07:28:37.968Z</time>
      </trkpt>
      <trkpt lat="47.31494" lon="4.95766">
        <ele>423</ele>
        <time>2013-11-09T07:28:40.943Z</time>
      </trkpt>
      <trkpt lat="47.31491" lon="4.95777">
        <ele>423</ele>
        <time>2013-11-09T07:28:44.956Z</time>
      </trkpt>
      <trkpt lat="47.31489" lon="4.95783">
        <ele>423</ele>
        <time>2013-11-09T07:28:46.984Z</time>
      </trkpt>
      <trkpt lat="47.31487" lon="4.95789">
        <ele>423</ele>
        <time>2013-11-09T07:28:48.991Z</time>
      </trkpt>
      <trkpt lat="47.31485" lon="4.95797">
        <ele>423</ele>
        <time>2013-11-09T07:28:51.984Z</time>
      </trkpt>
      <trkpt lat="47.31483" lon="4.95808">
        <ele>422</ele>
        <time>2013-11-09T07:28:56.990Z</time>
      </trkpt>
      <trkpt lat="47.31484" lon="4.95813">
        <ele>422</ele>
        <time>2013-11-09T07:28:59.032Z</time>
      </trkpt>
      <trkpt lat="47.31486" lon="4.95819">
        <ele>422</ele>
        <time>2013-11-09T07:29:01.950Z</time>
      </trkpt>
      <trkpt lat="47.3149" lon="4.95823">
        <ele>422</ele>
        <time>2013-11-09T07:29:04.946Z</time>
      </trkpt>
      <trkpt lat="47.31495" lon="4.95831">
        <ele>421</ele>
        <time>2013-11-09T07:29:09.959Z</time>
      </trkpt>
      <trkpt lat="47.31497" lon="4.95832">
        <ele>421</ele>
        <time>2013-11-09T07:29:10.943Z</time>
      </trkpt>
      <trkpt lat="47.31501" lon="4.95839">
        <ele>421</ele>
        <time>2013-11-09T07:29:15.036Z</time>
      </trkpt>
      <trkpt lat="47.31503" lon="4.95843">
        <ele>421</ele>
        <time>2013-11-09T07:29:17.047Z</time>
      </trkpt>
      <trkpt lat="47.31507" lon="4.95849">
        <ele>420</ele>
        <time>2013-11-09T07:29:20.011Z</time>
      </trkpt>
      <trkpt lat="47.3151" lon="4.95852">
        <ele>420</ele>
        <time>2013-11-09T07:29:22.038Z</time>
      </trkpt>
      <trkpt lat="47.31518" lon="4.95873">
        <ele>420</ele>
        <time>2013-11-09T07:29:25.024Z</time>
      </trkpt>
      <trkpt lat="47.31525" lon="4.95886">
        <ele>420</ele>
        <time>2013-11-09T07:29:28.026Z</time>
      </trkpt>
      <trkpt lat="47.3153" lon="4.95893">
        <ele>420</ele>
        <time>2013-11-09T07:29:30.965Z</time>
      </trkpt>
      <trkpt lat="47.31534" lon="4.95899">
        <ele>420</ele>
        <time>2013-11-09T07:29:33.960Z</time>
      </trkpt>
      <trkpt lat="47.31538" lon="4.95906">
        <ele>420</ele>
        <time>2013-11-09T07:29:36.947Z</time>
      </trkpt>
      <trkpt lat="47.31544" lon="4.95911">
        <ele>419</ele>
        <time>2013-11-09T07:29:39.944Z</time>
      </trkpt>
      <trkpt lat="47.31548" lon="4.95919">
        <ele>418</ele>
        <time>2013-11-09T07:29:42.906Z</time>
      </trkpt>
      <trkpt lat="47.31552" lon="4.95924">
        <ele>418</ele>
        <time>2013-11-09T07:29:44.913Z</time>
      </trkpt>
      <trkpt lat="47.31558" lon="4.95931">
        <ele>418</ele>
        <time>2013-11-09T07:29:48.987Z</time>
      </trkpt>
      <trkpt lat="47.31562" lon="4.95937">
        <ele>418</ele>
        <time>2013-11-09T07:29:51.957Z</time>
      </trkpt>
      <trkpt lat="47.31566" lon="4.95943">
        <ele>418</ele>
        <time>2013-11-09T07:29:53.957Z</time>
      </trkpt>
      <trkpt lat="47.3157" lon="4.95949">
        <ele>418</ele>
        <time>2013-11-09T07:29:55.975Z</time>
      </trkpt>
      <trkpt lat="47.31575" lon="4.95954">
        <ele>418</ele>
        <time>2013-11-09T07:29:58.990Z</time>
      </trkpt>
      <trkpt lat="47.3158" lon="4.95959">
        <ele>418</ele>
        <time>2013-11-09T07:30:01.955Z</time>
      </trkpt>
      <trkpt lat="47.31585" lon="4.95965">
        <ele>418</ele>
        <time>2013-11-09T07:30:04.936Z</time>
      </trkpt>
      <trkpt lat="47.31588" lon="4.95968">
        <ele>418</ele>
        <time>2013-11-09T07:30:06.955Z</time>
      </trkpt>
      <trkpt lat="47.31593" lon="4.95975">
        <ele>418</ele>
        <time>2013-11-09T07:30:10.964Z</time>
      </trkpt>
      <trkpt lat="47.31597" lon="4.95979">
        <ele>418</ele>
        <time>2013-11-09T07:30:13.946Z</time>
      </trkpt>
      <trkpt lat="47.31604" lon="4.95983">
        <ele>418</ele>
        <time>2013-11-09T07:30:19.040Z</time>
      </trkpt>
      <trkpt lat="47.31609" lon="4.95987">
        <ele>418</ele>
        <time>2013-11-09T07:30:21.966Z</time>
      </trkpt>
      <trkpt lat="47.31615" lon="4.95979">
        <ele>418</ele>
        <time>2013-11-09T07:30:30.935Z</time>
      </trkpt>
      <trkpt lat="47.31616" lon="4.95975">
        <ele>418</ele>
        <time>2013-11-09T07:30:32.941Z</time>
      </trkpt>
      <trkpt lat="47.31619" lon="4.95964">
        <ele>418</ele>
        <time>2013-11-09T07:30:37.941Z</time>
      </trkpt>
      <trkpt lat="47.31621" lon="4.95959">
        <ele>418</ele>
        <time>2013-11-09T07:30:39.962Z</time>
      </trkpt>
      <trkpt lat="47.31622" lon="4.95951">
        <ele>418</ele>
        <time>2013-11-09T07:30:42.930Z</time>
      </trkpt>
      <trkpt lat="47.31623" lon="4.95945">
        <ele>418</ele>
        <time>2013-11-09T07:30:44.937Z</time>
      </trkpt>
      <trkpt lat="47.31625" lon="4.95934">
        <ele>418</ele>
        <time>2013-11-09T07:30:48.959Z</time>
      </trkpt>
      <trkpt lat="47.31625" lon="4.95928">
        <ele>418</ele>
        <time>2013-11-09T07:30:51.974Z</time>
      </trkpt>
      <trkpt lat="47.31625" lon="4.95921">
        <ele>419</ele>
        <time>2013-11-09T07:30:54.952Z</time>
      </trkpt>
      <trkpt lat="47.31625" lon="4.95914">
        <ele>419</ele>
        <time>2013-11-09T07:30:58.005Z</time>
      </trkpt>
      <trkpt lat="47.31625" lon="4.95908">
        <ele>419</ele>
        <time>2013-11-09T07:31:00.960Z</time>
      </trkpt>
      <trkpt lat="47.31626" lon="4.959">
        <ele>419</ele>
        <time>2013-11-09T07:31:03.933Z</time>
      </trkpt>
      <trkpt lat="47.31628" lon="4.95889">
        <ele>419</ele>
        <time>2013-11-09T07:31:07.940Z</time>
      </trkpt>
      <trkpt lat="47.3163" lon="4.95878">
        <ele>420</ele>
        <time>2013-11-09T07:31:10.907Z</time>
      </trkpt>
      <trkpt lat="47.31632" lon="4.95869">
        <ele>420</ele>
        <time>2013-11-09T07:31:12.919Z</time>
      </trkpt>
      <trkpt lat="47.31633" lon="4.95863">
        <ele>420</ele>
        <time>2013-11-09T07:31:14.982Z</time>
      </trkpt>
      <trkpt lat="47.31633" lon="4.95854">
        <ele>420</ele>
        <time>2013-11-09T07:31:17.950Z</time>
      </trkpt>
      <trkpt lat="47.31633" lon="4.95846">
        <ele>420</ele>
        <time>2013-11-09T07:31:20.956Z</time>
      </trkpt>
      <trkpt lat="47.31634" lon="4.95839">
        <ele>420</ele>
        <time>2013-11-09T07:31:23.944Z</time>
      </trkpt>
      <trkpt lat="47.31634" lon="4.95833">
        <ele>420</ele>
        <time>2013-11-09T07:31:25.968Z</time>
      </trkpt>
      <trkpt lat="47.31636" lon="4.95822">
        <ele>420</ele>
        <time>2013-11-09T07:31:28.952Z</time>
      </trkpt>
      <trkpt lat="47.31638" lon="4.95813">
        <ele>420</ele>
        <time>2013-11-09T07:31:31.932Z</time>
      </trkpt>
      <trkpt lat="47.31638" lon="4.95803">
        <ele>420</ele>
        <time>2013-11-09T07:31:35.937Z</time>
      </trkpt>
      <trkpt lat="47.31638" lon="4.95798">
        <ele>420</ele>
        <time>2013-11-09T07:31:37.972Z</time>
      </trkpt>
      <trkpt lat="47.31638" lon="4.95786">
        <ele>420</ele>
        <time>2013-11-09T07:31:42.938Z</time>
      </trkpt>
      <trkpt lat="47.31638" lon="4.95782">
        <ele>420</ele>
        <time>2013-11-09T07:31:44.944Z</time>
      </trkpt>
      <trkpt lat="47.31638" lon="4.95774">
        <ele>420</ele>
        <time>2013-11-09T07:31:48.953Z</time>
      </trkpt>
      <trkpt lat="47.31638" lon="4.95767">
        <ele>420</ele>
        <time>2013-11-09T07:31:51.955Z</time>
      </trkpt>
      <trkpt lat="47.31637" lon="4.95757">
        <ele>420</ele>
        <time>2013-11-09T07:31:55.963Z</time>
      </trkpt>
      <trkpt lat="47.31638" lon="4.95747">
        <ele>419</ele>
        <time>2013-11-09T07:31:58.950Z</time>
      </trkpt>
      <trkpt lat="47.31638" lon="4.95738">
        <ele>419</ele>
        <time>2013-11-09T07:32:01.942Z</time>
      </trkpt>
      <trkpt lat="47.31637" lon="4.9573">
        <ele>419</ele>
        <time>2013-11-09T07:32:04.939Z</time>
      </trkpt>
      <trkpt lat="47.31637" lon="4.95719">
        <ele>419</ele>
        <time>2013-11-09T07:32:10.936Z</time>
      </trkpt>
      <trkpt lat="47.31636" lon="4.95717">
        <ele>419</ele>
        <time>2013-11-09T07:32:12.939Z</time>
      </trkpt>
      <trkpt lat="47.31635" lon="4.95707">
        <ele>419</ele>
        <time>2013-11-09T07:32:16.955Z</time>
      </trkpt>
      <trkpt lat="47.31634" lon="4.95701">
        <ele>419</ele>
        <time>2013-11-09T07:32:18.974Z</time>
      </trkpt>
      <trkpt lat="47.31632" lon="4.95693">
        <ele>419</ele>
        <time>2013-11-09T07:32:21.972Z</time>
      </trkpt>
      <trkpt lat="47.31627" lon="4.95685">
        <ele>419</ele>
        <time>2013-11-09T07:32:24.941Z</time>
      </trkpt>
      <trkpt lat="47.3162" lon="4.95678">
        <ele>420</ele>
        <time>2013-11-09T07:32:28.962Z</time>
      </trkpt>
      <trkpt lat="47.31615" lon="4.95675">
        <ele>420</ele>
        <time>2013-11-09T07:32:31.913Z</time>
      </trkpt>
      <trkpt lat="47.31608" lon="4.9567">
        <ele>420</ele>
        <time>2013-11-09T07:32:35.985Z</time>
      </trkpt>
      <trkpt lat="47.31602" lon="4.95665">
        <ele>420</ele>
        <time>2013-11-09T07:32:38.935Z</time>
      </trkpt>
      <trkpt lat="47.31597" lon="4.95662">
        <ele>420</ele>
        <time>2013-11-09T07:32:40.941Z</time>
      </trkpt>
      <trkpt lat="47.31591" lon="4.95659">
        <ele>420</ele>
        <time>2013-11-09T07:32:43.942Z</time>
      </trkpt>
      <trkpt lat="47.31584" lon="4.95654">
        <ele>420</ele>
        <time>2013-11-09T07:32:48.954Z</time>
      </trkpt>
      <trkpt lat="47.31579" lon="4.95652">
        <ele>422</ele>
        <time>2013-11-09T07:32:51.941Z</time>
      </trkpt>
      <trkpt lat="47.31572" lon="4.95648">
        <ele>422</ele>
        <time>2013-11-09T07:32:55.969Z</time>
      </trkpt>
      <trkpt lat="47.31566" lon="4.95645">
        <ele>422</ele>
        <time>2013-11-09T07:32:58.954Z</time>
      </trkpt>
      <trkpt lat="47.3156" lon="4.9564">
        <ele>422</ele>
        <time>2013-11-09T07:33:01.974Z</time>
      </trkpt>
      <trkpt lat="47.31555" lon="4.95636">
        <ele>422</ele>
        <time>2013-11-09T07:33:04.940Z</time>
      </trkpt>
      <trkpt lat="47.31551" lon="4.95634">
        <ele>422</ele>
        <time>2013-11-09T07:33:06.955Z</time>
      </trkpt>
      <trkpt lat="47.31545" lon="4.95631">
        <ele>422</ele>
        <time>2013-11-09T07:33:09.942Z</time>
      </trkpt>
      <trkpt lat="47.31538" lon="4.9563">
        <ele>423</ele>
        <time>2013-11-09T07:33:14.971Z</time>
      </trkpt>
      <trkpt lat="47.31536" lon="4.95631">
        <ele>423</ele>
        <time>2013-11-09T07:33:16.974Z</time>
      </trkpt>
      <trkpt lat="47.31531" lon="4.95638">
        <ele>423</ele>
        <time>2013-11-09T07:33:22.961Z</time>
      </trkpt>
      <trkpt lat="47.31529" lon="4.95645">
        <ele>423</ele>
        <time>2013-11-09T07:33:25.962Z</time>
      </trkpt>
      <trkpt lat="47.31525" lon="4.95655">
        <ele>423</ele>
        <time>2013-11-09T07:33:30.954Z</time>
      </trkpt>
      <trkpt lat="47.31522" lon="4.95659">
        <ele>423</ele>
        <time>2013-11-09T07:33:33.940Z</time>
      </trkpt>
      <trkpt lat="47.31518" lon="4.95667">
        <ele>423</ele>
        <time>2013-11-09T07:33:37.981Z</time>
      </trkpt>
      <trkpt lat="47.31514" lon="4.95669">
        <ele>423</ele>
        <time>2013-11-09T07:33:40.960Z</time>
      </trkpt>
      <trkpt lat="47.31508" lon="4.95669">
        <ele>424</ele>
        <time>2013-11-09T07:33:43.964Z</time>
      </trkpt>
      <trkpt lat="47.31502" lon="4.95668">
        <ele>424</ele>
        <time>2013-11-09T07:33:46.957Z</time>
      </trkpt>
      <trkpt lat="47.31494" lon="4.95667">
        <ele>424</ele>
        <time>2013-11-09T07:33:50.964Z</time>
      </trkpt>
      <trkpt lat="47.31487" lon="4.95667">
        <ele>424</ele>
        <time>2013-11-09T07:33:53.965Z</time>
      </trkpt>
      <trkpt lat="47.31481" lon="4.95667">
        <ele>424</ele>
        <time>2013-11-09T07:33:55.980Z</time>
      </trkpt>
      <trkpt lat="47.31475" lon="4.95666">
        <ele>424</ele>
        <time>2013-11-09T07:33:58.935Z</time>
      </trkpt>
      <trkpt lat="47.3147" lon="4.95666">
        <ele>424</ele>
        <time>2013-11-09T07:34:00.935Z</time>
      </trkpt>
      <trkpt lat="47.31462" lon="4.95664">
        <ele>424</ele>
        <time>2013-11-09T07:34:03.934Z</time>
      </trkpt>
      <trkpt lat="47.31458" lon="4.95662">
        <ele>423</ele>
        <time>2013-11-09T07:34:05.939Z</time>
      </trkpt>
      <trkpt lat="47.31453" lon="4.9566">
        <ele>423</ele>
        <time>2013-11-09T07:34:07.947Z</time>
      </trkpt>
      <trkpt lat="47.31446" lon="4.95656">
        <ele>423</ele>
        <time>2013-11-09T07:34:10.941Z</time>
      </trkpt>
      <trkpt lat="47.31442" lon="4.95654">
        <ele>423</ele>
        <time>2013-11-09T07:34:12.948Z</time>
      </trkpt>
      <trkpt lat="47.31437" lon="4.95652">
        <ele>423</ele>
        <time>2013-11-09T07:34:14.951Z</time>
      </trkpt>
      <trkpt lat="47.31431" lon="4.95649">
        <ele>423</ele>
        <time>2013-11-09T07:34:17.950Z</time>
      </trkpt>
      <trkpt lat="47.31427" lon="4.95646">
        <ele>423</ele>
        <time>2013-11-09T07:34:19.955Z</time>
      </trkpt>
      <trkpt lat="47.31423" lon="4.95642">
        <ele>423</ele>
        <time>2013-11-09T07:34:21.958Z</time>
      </trkpt>
      <trkpt lat="47.31417" lon="4.95636">
        <ele>423</ele>
        <time>2013-11-09T07:34:24.933Z</time>
      </trkpt>
      <trkpt lat="47.31413" lon="4.95633">
        <ele>423</ele>
        <time>2013-11-09T07:34:26.971Z</time>
      </trkpt>
      <trkpt lat="47.31407" lon="4.95631">
        <ele>423</ele>
        <time>2013-11-09T07:34:29.932Z</time>
      </trkpt>
      <trkpt lat="47.31404" lon="4.95629">
        <ele>424</ele>
        <time>2013-11-09T07:34:31.954Z</time>
      </trkpt>
      <trkpt lat="47.31398" lon="4.95628">
        <ele>424</ele>
        <time>2013-11-09T07:34:34.927Z</time>
      </trkpt>
      <trkpt lat="47.31394" lon="4.95627">
        <ele>424</ele>
        <time>2013-11-09T07:34:36.934Z</time>
      </trkpt>
      <trkpt lat="47.3139" lon="4.95624">
        <ele>424</ele>
        <time>2013-11-09T07:34:38.939Z</time>
      </trkpt>
      <trkpt lat="47.31385" lon="4.95618">
        <ele>424</ele>
        <time>2013-11-09T07:34:41.939Z</time>
      </trkpt>
      <trkpt lat="47.31381" lon="4.95614">
        <ele>424</ele>
        <time>2013-11-09T07:34:43.942Z</time>
      </trkpt>
      <trkpt lat="47.31377" lon="4.95609">
        <ele>424</ele>
        <time>2013-11-09T07:34:45.966Z</time>
      </trkpt>
      <trkpt lat="47.31372" lon="4.95601">
        <ele>424</ele>
        <time>2013-11-09T07:34:49.002Z</time>
      </trkpt>
      <trkpt lat="47.31367" lon="4.95593">
        <ele>424</ele>
        <time>2013-11-09T07:34:51.951Z</time>
      </trkpt>
      <trkpt lat="47.3136" lon="4.95589">
        <ele>424</ele>
        <time>2013-11-09T07:34:56.946Z</time>
      </trkpt>
      <trkpt lat="47.31356" lon="4.95587">
        <ele>425</ele>
        <time>2013-11-09T07:34:58.947Z</time>
      </trkpt>
      <trkpt lat="47.31351" lon="4.95582">
        <ele>425</ele>
        <time>2013-11-09T07:35:01.927Z</time>
      </trkpt>
      <trkpt lat="47.31348" lon="4.95579">
        <ele>425</ele>
        <time>2013-11-09T07:35:03.931Z</time>
      </trkpt>
      <trkpt lat="47.31343" lon="4.95572">
        <ele>425</ele>
        <time>2013-11-09T07:35:07.939Z</time>
      </trkpt>
      <trkpt lat="47.31341" lon="4.95568">
        <ele>425</ele>
        <time>2013-11-09T07:35:09.939Z</time>
      </trkpt>
      <trkpt lat="47.31334" lon="4.95559">
        <ele>424</ele>
        <time>2013-11-09T07:35:14.953Z</time>
      </trkpt>
      <trkpt lat="47.31331" lon="4.95555">
        <ele>422</ele>
        <time>2013-11-09T07:35:16.969Z</time>
      </trkpt>
      <trkpt lat="47.31326" lon="4.95551">
        <ele>422</ele>
        <time>2013-11-09T07:35:19.982Z</time>
      </trkpt>
      <trkpt lat="47.31322" lon="4.95547">
        <ele>421</ele>
        <time>2013-11-09T07:35:22.951Z</time>
      </trkpt>
      <trkpt lat="47.31318" lon="4.95542">
        <ele>421</ele>
        <time>2013-11-09T07:35:25.984Z</time>
      </trkpt>
      <trkpt lat="47.31315" lon="4.95535">
        <ele>421</ele>
        <time>2013-11-09T07:35:28.948Z</time>
      </trkpt>
      <trkpt lat="47.31312" lon="4.95528">
        <ele>421</ele>
        <time>2013-11-09T07:35:31.950Z</time>
      </trkpt>
      <trkpt lat="47.3131" lon="4.95522">
        <ele>421</ele>
        <time>2013-11-09T07:35:33.955Z</time>
      </trkpt>
      <trkpt lat="47.31308" lon="4.95515">
        <ele>420</ele>
        <time>2013-11-09T07:35:36.949Z</time>
      </trkpt>
      <trkpt lat="47.31306" lon="4.95507">
        <ele>420</ele>
        <time>2013-11-09T07:35:39.955Z</time>
      </trkpt>
      <trkpt lat="47.31306" lon="4.95496">
        <ele>419</ele>
        <time>2013-11-09T07:35:44.958Z</time>
      </trkpt>
      <trkpt lat="47.31307" lon="4.95489">
        <ele>419</ele>
        <time>2013-11-09T07:35:47.973Z</time>
      </trkpt>
      <trkpt lat="47.31307" lon="4.95484">
        <ele>418</ele>
        <time>2013-11-09T07:35:49.990Z</time>
      </trkpt>
      <trkpt lat="47.31308" lon="4.95476">
        <ele>418</ele>
        <time>2013-11-09T07:35:52.956Z</time>
      </trkpt>
      <trkpt lat="47.31308" lon="4.95471">
        <ele>418</ele>
        <time>2013-11-09T07:35:54.959Z</time>
      </trkpt>
      <trkpt lat="47.31307" lon="4.95461">
        <ele>417</ele>
        <time>2013-11-09T07:35:58.010Z</time>
      </trkpt>
      <trkpt lat="47.31306" lon="4.95451">
        <ele>417</ele>
        <time>2013-11-09T07:36:00.931Z</time>
      </trkpt>
      <trkpt lat="47.31304" lon="4.95444">
        <ele>417</ele>
        <time>2013-11-09T07:36:02.941Z</time>
      </trkpt>
      <trkpt lat="47.31301" lon="4.95432">
        <ele>416</ele>
        <time>2013-11-09T07:36:07.951Z</time>
      </trkpt>
      <trkpt lat="47.31301" lon="4.95426">
        <ele>416</ele>
        <time>2013-11-09T07:36:10.938Z</time>
      </trkpt>
      <trkpt lat="47.313" lon="4.95415">
        <ele>415</ele>
        <time>2013-11-09T07:36:15.944Z</time>
      </trkpt>
      <trkpt lat="47.31298" lon="4.95412">
        <ele>415</ele>
        <time>2013-11-09T07:36:17.950Z</time>
      </trkpt>
      <trkpt lat="47.31296" lon="4.95403">
        <ele>414</ele>
        <time>2013-11-09T07:36:20.927Z</time>
      </trkpt>
      <trkpt lat="47.31294" lon="4.95397">
        <ele>414</ele>
        <time>2013-11-09T07:36:23.914Z</time>
      </trkpt>
      <trkpt lat="47.31292" lon="4.9539">
        <ele>414</ele>
        <time>2013-11-09T07:36:25.915Z</time>
      </trkpt>
      <trkpt lat="47.31292" lon="4.95382">
        <ele>414</ele>
        <time>2013-11-09T07:36:27.916Z</time>
      </trkpt>
      <trkpt lat="47.3129" lon="4.95372">
        <ele>414</ele>
        <time>2013-11-09T07:36:29.926Z</time>
      </trkpt>
      <trkpt lat="47.31293" lon="4.95338">
        <ele>414</ele>
        <time>2013-11-09T07:36:32.915Z</time>
      </trkpt>
      <trkpt lat="47.31293" lon="4.95322">
        <ele>414</ele>
        <time>2013-11-09T07:36:35.915Z</time>
      </trkpt>
      <trkpt lat="47.31289" lon="4.95314">
        <ele>414</ele>
        <time>2013-11-09T07:36:39.916Z</time>
      </trkpt>
      <trkpt lat="47.31287" lon="4.95308">
        <ele>414</ele>
        <time>2013-11-09T07:36:41.927Z</time>
      </trkpt>
      <trkpt lat="47.31286" lon="4.95299">
        <ele>414</ele>
        <time>2013-11-09T07:36:44.931Z</time>
      </trkpt>
      <trkpt lat="47.31285" lon="4.95293">
        <ele>414</ele>
        <time>2013-11-09T07:36:46.963Z</time>
      </trkpt>
      <trkpt lat="47.31284" lon="4.95285">
        <ele>414</ele>
        <time>2013-11-09T07:36:49.934Z</time>
      </trkpt>
      <trkpt lat="47.31284" lon="4.95279">
        <ele>414</ele>
        <time>2013-11-09T07:36:52.936Z</time>
      </trkpt>
      <trkpt lat="47.31283" lon="4.95271">
        <ele>414</ele>
        <time>2013-11-09T07:36:56.950Z</time>
      </trkpt>
      <trkpt lat="47.31282" lon="4.95266">
        <ele>414</ele>
        <time>2013-11-09T07:36:59.938Z</time>
      </trkpt>
      <trkpt lat="47.3128" lon="4.95256">
        <ele>413</ele>
        <time>2013-11-09T07:37:03.943Z</time>
      </trkpt>
      <trkpt lat="47.31278" lon="4.95249">
        <ele>414</ele>
        <time>2013-11-09T07:37:06.925Z</time>
      </trkpt>
      <trkpt lat="47.31275" lon="4.95238">
        <ele>414</ele>
        <time>2013-11-09T07:37:11.908Z</time>
      </trkpt>
      <trkpt lat="47.31273" lon="4.95234">
        <ele>414</ele>
        <time>2013-11-09T07:37:13.929Z</time>
      </trkpt>
      <trkpt lat="47.31271" lon="4.95221">
        <ele>414</ele>
        <time>2013-11-09T07:37:19.946Z</time>
      </trkpt>
      <trkpt lat="47.3127" lon="4.95214">
        <ele>414</ele>
        <time>2013-11-09T07:37:22.942Z</time>
      </trkpt>
      <trkpt lat="47.31269" lon="4.95202">
        <ele>415</ele>
        <time>2013-11-09T07:37:25.925Z</time>
      </trkpt>
      <trkpt lat="47.31269" lon="4.95194">
        <ele>415</ele>
        <time>2013-11-09T07:37:27.942Z</time>
      </trkpt>
      <trkpt lat="47.31267" lon="4.95186">
        <ele>415</ele>
        <time>2013-11-09T07:37:30.887Z</time>
      </trkpt>
      <trkpt lat="47.31266" lon="4.9518">
        <ele>415</ele>
        <time>2013-11-09T07:37:32.890Z</time>
      </trkpt>
      <trkpt lat="47.31264" lon="4.95169">
        <ele>415</ele>
        <time>2013-11-09T07:37:35.888Z</time>
      </trkpt>
      <trkpt lat="47.31263" lon="4.95162">
        <ele>415</ele>
        <time>2013-11-09T07:37:37.935Z</time>
      </trkpt>
      <trkpt lat="47.31262" lon="4.95155">
        <ele>415</ele>
        <time>2013-11-09T07:37:39.949Z</time>
      </trkpt>
      <trkpt lat="47.31261" lon="4.95145">
        <ele>415</ele>
        <time>2013-11-09T07:37:42.951Z</time>
      </trkpt>
      <trkpt lat="47.3126" lon="4.95136">
        <ele>416</ele>
        <time>2013-11-09T07:37:45.948Z</time>
      </trkpt>
      <trkpt lat="47.3126" lon="4.95131">
        <ele>416</ele>
        <time>2013-11-09T07:37:48.002Z</time>
      </trkpt>
      <trkpt lat="47.31258" lon="4.95122">
        <ele>416</ele>
        <time>2013-11-09T07:37:50.981Z</time>
      </trkpt>
      <trkpt lat="47.31256" lon="4.95114">
        <ele>416</ele>
        <time>2013-11-09T07:37:53.938Z</time>
      </trkpt>
      <trkpt lat="47.31251" lon="4.95108">
        <ele>416</ele>
        <time>2013-11-09T07:37:58.947Z</time>
      </trkpt>
      <trkpt lat="47.31247" lon="4.95108">
        <ele>416</ele>
        <time>2013-11-09T07:38:01.933Z</time>
      </trkpt>
      <trkpt lat="47.3124" lon="4.95102">
        <ele>416</ele>
        <time>2013-11-09T07:38:08.955Z</time>
      </trkpt>
      <trkpt lat="47.31238" lon="4.95101">
        <ele>416</ele>
        <time>2013-11-09T07:38:11.923Z</time>
      </trkpt>
      <trkpt lat="47.31237" lon="4.951">
        <ele>416</ele>
        <time>2013-11-09T07:38:14.933Z</time>
      </trkpt>
      <trkpt lat="47.31237" lon="4.951">
        <ele>416</ele>
        <time>2013-11-09T07:38:16.956Z</time>
      </trkpt>
      <trkpt lat="47.31237" lon="4.951">
        <ele>416</ele>
        <time>2013-11-09T07:38:25.945Z</time>
      </trkpt>
      <trkpt lat="47.31236" lon="4.95103">
        <ele>416</ele>
        <time>2013-11-09T07:38:28.931Z</time>
      </trkpt>
      <trkpt lat="47.31231" lon="4.95113">
        <ele>416</ele>
        <time>2013-11-09T07:38:36.423Z</time>
      </trkpt>
      <trkpt lat="47.31231" lon="4.95116">
        <ele>416</ele>
        <time>2013-11-09T07:38:38.433Z</time>
      </trkpt>
      <trkpt lat="47.31231" lon="4.9512">
        <ele>416</ele>
        <time>2013-11-09T07:38:43.410Z</time>
      </trkpt>
      <trkpt lat="47.31231" lon="4.9512">
        <ele>416</ele>
        <time>2013-11-09T07:38:45.420Z</time>
      </trkpt>
      <trkpt lat="47.31231" lon="4.9512">
        <ele>416</ele>
        <time>2013-11-09T07:38:47.463Z</time>
      </trkpt>
      <trkpt lat="47.31232" lon="4.95125">
        <ele>416</ele>
        <time>2013-11-09T07:38:50.460Z</time>
      </trkpt>
      <trkpt lat="47.31228" lon="4.95135">
        <ele>416</ele>
        <time>2013-11-09T07:38:56.442Z</time>
      </trkpt>
      <trkpt lat="47.31229" lon="4.95142">
        <ele>415</ele>
        <time>2013-11-09T07:38:59.423Z</time>
      </trkpt>
      <trkpt lat="47.3123" lon="4.95151">
        <ele>415</ele>
        <time>2013-11-09T07:39:04.438Z</time>
      </trkpt>
      <trkpt lat="47.3123" lon="4.95156">
        <ele>415</ele>
        <time>2013-11-09T07:39:07.427Z</time>
      </trkpt>
      <trkpt lat="47.3123" lon="4.95165">
        <ele>415</ele>
        <time>2013-11-09T07:39:11.423Z</time>
      </trkpt>
      <trkpt lat="47.3123" lon="4.95173">
        <ele>414</ele>
        <time>2013-11-09T07:39:14.817Z</time>
      </trkpt>
      <trkpt lat="47.31227" lon="4.95185">
        <ele>414</ele>
        <time>2013-11-09T07:39:19.847Z</time>
      </trkpt>
      <trkpt lat="47.31227" lon="4.95189">
        <ele>414</ele>
        <time>2013-11-09T07:39:21.849Z</time>
      </trkpt>
      <trkpt lat="47.31228" lon="4.952">
        <ele>413</ele>
        <time>2013-11-09T07:39:25.874Z</time>
      </trkpt>
      <trkpt lat="47.31226" lon="4.95208">
        <ele>413</ele>
        <time>2013-11-09T07:39:28.860Z</time>
      </trkpt>
      <trkpt lat="47.31223" lon="4.95216">
        <ele>413</ele>
        <time>2013-11-09T07:39:31.831Z</time>
      </trkpt>
      <trkpt lat="47.31221" lon="4.95221">
        <ele>413</ele>
        <time>2013-11-09T07:39:33.833Z</time>
      </trkpt>
      <trkpt lat="47.31219" lon="4.95226">
        <ele>413</ele>
        <time>2013-11-09T07:39:35.838Z</time>
      </trkpt>
      <trkpt lat="47.31217" lon="4.95233">
        <ele>413</ele>
        <time>2013-11-09T07:39:38.868Z</time>
      </trkpt>
      <trkpt lat="47.31215" lon="4.95243">
        <ele>413</ele>
        <time>2013-11-09T07:39:41.840Z</time>
      </trkpt>
      <trkpt lat="47.31214" lon="4.95254">
        <ele>410</ele>
        <time>2013-11-09T07:39:44.841Z</time>
      </trkpt>
      <trkpt lat="47.31212" lon="4.95266">
        <ele>410</ele>
        <time>2013-11-09T07:39:48.850Z</time>
      </trkpt>
      <trkpt lat="47.3121" lon="4.9527">
        <ele>410</ele>
        <time>2013-11-09T07:39:50.885Z</time>
      </trkpt>
      <trkpt lat="47.31207" lon="4.95275">
        <ele>410</ele>
        <time>2013-11-09T07:39:53.860Z</time>
      </trkpt>
      <trkpt lat="47.31202" lon="4.95285">
        <ele>410</ele>
        <time>2013-11-09T07:39:56.896Z</time>
      </trkpt>
      <trkpt lat="47.31196" lon="4.95302">
        <ele>409</ele>
        <time>2013-11-09T07:39:59.840Z</time>
      </trkpt>
      <trkpt lat="47.31192" lon="4.95315">
        <ele>409</ele>
        <time>2013-11-09T07:40:02.851Z</time>
      </trkpt>
      <trkpt lat="47.31191" lon="4.95324">
        <ele>408</ele>
        <time>2013-11-09T07:40:05.815Z</time>
      </trkpt>
      <trkpt lat="47.3119" lon="4.9533">
        <ele>408</ele>
        <time>2013-11-09T07:40:07.827Z</time>
      </trkpt>
      <trkpt lat="47.3119" lon="4.95342">
        <ele>405</ele>
        <time>2013-11-09T07:40:11.817Z</time>
      </trkpt>
      <trkpt lat="47.31189" lon="4.95347">
        <ele>405</ele>
        <time>2013-11-09T07:40:13.831Z</time>
      </trkpt>
      <trkpt lat="47.31185" lon="4.95357">
        <ele>405</ele>
        <time>2013-11-09T07:40:19.898Z</time>
      </trkpt>
      <trkpt lat="47.31184" lon="4.95363">
        <ele>404</ele>
        <time>2013-11-09T07:40:22.893Z</time>
      </trkpt>
      <trkpt lat="47.31181" lon="4.95372">
        <ele>404</ele>
        <time>2013-11-09T07:40:27.869Z</time>
      </trkpt>
      <trkpt lat="47.3118" lon="4.95377">
        <ele>404</ele>
        <time>2013-11-09T07:40:30.832Z</time>
      </trkpt>
      <trkpt lat="47.31176" lon="4.95389">
        <ele>403</ele>
        <time>2013-11-09T07:40:35.830Z</time>
      </trkpt>
      <trkpt lat="47.31176" lon="4.95396">
        <ele>402</ele>
        <time>2013-11-09T07:40:37.832Z</time>
      </trkpt>
      <trkpt lat="47.31176" lon="4.95406">
        <ele>400</ele>
        <time>2013-11-09T07:40:41.833Z</time>
      </trkpt>
      <trkpt lat="47.31173" lon="4.95415">
        <ele>399</ele>
        <time>2013-11-09T07:40:44.828Z</time>
      </trkpt>
      <trkpt lat="47.31171" lon="4.95426">
        <ele>399</ele>
        <time>2013-11-09T07:40:48.840Z</time>
      </trkpt>
      <trkpt lat="47.31169" lon="4.95433">
        <ele>399</ele>
        <time>2013-11-09T07:40:51.850Z</time>
      </trkpt>
      <trkpt lat="47.31168" lon="4.95438">
        <ele>400</ele>
        <time>2013-11-09T07:40:53.850Z</time>
      </trkpt>
      <trkpt lat="47.31165" lon="4.95445">
        <ele>397</ele>
        <time>2013-11-09T07:40:56.846Z</time>
      </trkpt>
      <trkpt lat="47.31164" lon="4.95451">
        <ele>397</ele>
        <time>2013-11-09T07:40:58.847Z</time>
      </trkpt>
      <trkpt lat="47.31162" lon="4.95461">
        <ele>396</ele>
        <time>2013-11-09T07:41:01.534Z</time>
      </trkpt>
      <trkpt lat="47.31161" lon="4.95469">
        <ele>396</ele>
        <time>2013-11-09T07:41:05.584Z</time>
      </trkpt>
      <trkpt lat="47.31159" lon="4.95482">
        <ele>395</ele>
        <time>2013-11-09T07:41:08.586Z</time>
      </trkpt>
      <trkpt lat="47.31159" lon="4.95491">
        <ele>394</ele>
        <time>2013-11-09T07:41:11.580Z</time>
      </trkpt>
      <trkpt lat="47.31158" lon="4.955">
        <ele>394</ele>
        <time>2013-11-09T07:41:14.579Z</time>
      </trkpt>
      <trkpt lat="47.31155" lon="4.9551">
        <ele>392</ele>
        <time>2013-11-09T07:41:17.586Z</time>
      </trkpt>
      <trkpt lat="47.31153" lon="4.95518">
        <ele>391</ele>
        <time>2013-11-09T07:41:19.613Z</time>
      </trkpt>
      <trkpt lat="47.31152" lon="4.95527">
        <ele>391</ele>
        <time>2013-11-09T07:41:21.615Z</time>
      </trkpt>
      <trkpt lat="47.3115" lon="4.95541">
        <ele>390</ele>
        <time>2013-11-09T07:41:24.591Z</time>
      </trkpt>
      <trkpt lat="47.31147" lon="4.95552">
        <ele>389</ele>
        <time>2013-11-09T07:41:27.586Z</time>
      </trkpt>
      <trkpt lat="47.31144" lon="4.95557">
        <ele>389</ele>
        <time>2013-11-09T07:41:29.591Z</time>
      </trkpt>
      <trkpt lat="47.31141" lon="4.95564">
        <ele>389</ele>
        <time>2013-11-09T07:41:32.569Z</time>
      </trkpt>
      <trkpt lat="47.31138" lon="4.95571">
        <ele>389</ele>
        <time>2013-11-09T07:41:35.575Z</time>
      </trkpt>
      <trkpt lat="47.31134" lon="4.95579">
        <ele>389</ele>
        <time>2013-11-09T07:41:38.583Z</time>
      </trkpt>
      <trkpt lat="47.31132" lon="4.9559">
        <ele>384</ele>
        <time>2013-11-09T07:41:41.567Z</time>
      </trkpt>
      <trkpt lat="47.3113" lon="4.95598">
        <ele>383</ele>
        <time>2013-11-09T07:41:43.568Z</time>
      </trkpt>
      <trkpt lat="47.31128" lon="4.95606">
        <ele>383</ele>
        <time>2013-11-09T07:41:45.573Z</time>
      </trkpt>
      <trkpt lat="47.31124" lon="4.95616">
        <ele>382</ele>
        <time>2013-11-09T07:41:49.603Z</time>
      </trkpt>
      <trkpt lat="47.31123" lon="4.95621">
        <ele>382</ele>
        <time>2013-11-09T07:41:52.569Z</time>
      </trkpt>
      <trkpt lat="47.31121" lon="4.95628">
        <ele>382</ele>
        <time>2013-11-09T07:41:56.583Z</time>
      </trkpt>
      <trkpt lat="47.3112" lon="4.95633">
        <ele>381</ele>
        <time>2013-11-09T07:41:58.584Z</time>
      </trkpt>
      <trkpt lat="47.31116" lon="4.95644">
        <ele>380</ele>
        <time>2013-11-09T07:42:02.600Z</time>
      </trkpt>
      <trkpt lat="47.31113" lon="4.9565">
        <ele>380</ele>
        <time>2013-11-09T07:42:05.585Z</time>
      </trkpt>
      <trkpt lat="47.31109" lon="4.95656">
        <ele>379</ele>
        <time>2013-11-09T07:42:08.600Z</time>
      </trkpt>
      <trkpt lat="47.31106" lon="4.95661">
        <ele>378</ele>
        <time>2013-11-09T07:42:11.589Z</time>
      </trkpt>
      <trkpt lat="47.31103" lon="4.95672">
        <ele>374</ele>
        <time>2013-11-09T07:42:16.627Z</time>
      </trkpt>
      <trkpt lat="47.31099" lon="4.95679">
        <ele>374</ele>
        <time>2013-11-09T07:42:19.656Z</time>
      </trkpt>
      <trkpt lat="47.31096" lon="4.95688">
        <ele>374</ele>
        <time>2013-11-09T07:42:22.633Z</time>
      </trkpt>
      <trkpt lat="47.31094" lon="4.95696">
        <ele>374</ele>
        <time>2013-11-09T07:42:24.645Z</time>
      </trkpt>
      <trkpt lat="47.31092" lon="4.95704">
        <ele>374</ele>
        <time>2013-11-09T07:42:26.648Z</time>
      </trkpt>
      <trkpt lat="47.31087" lon="4.95718">
        <ele>372</ele>
        <time>2013-11-09T07:42:29.648Z</time>
      </trkpt>
      <trkpt lat="47.31082" lon="4.95723">
        <ele>365</ele>
        <time>2013-11-09T07:42:32.582Z</time>
      </trkpt>
      <trkpt lat="47.31079" lon="4.95724">
        <ele>365</ele>
        <time>2013-11-09T07:42:34.591Z</time>
      </trkpt>
      <trkpt lat="47.31075" lon="4.95712">
        <ele>365</ele>
        <time>2013-11-09T07:42:46.683Z</time>
      </trkpt>
      <trkpt lat="47.31075" lon="4.95711">
        <ele>366</ele>
        <time>2013-11-09T07:42:49.729Z</time>
      </trkpt>
      <trkpt lat="47.31075" lon="4.95712">
        <ele>365</ele>
        <time>2013-11-09T07:42:52.709Z</time>
      </trkpt>
      <trkpt lat="47.31075" lon="4.95712">
        <ele>365</ele>
        <time>2013-11-09T07:42:55.656Z</time>
      </trkpt>
      <trkpt lat="47.31076" lon="4.95712">
        <ele>365</ele>
        <time>2013-11-09T07:42:58.659Z</time>
      </trkpt>
      <trkpt lat="47.31077" lon="4.95714">
        <ele>365</ele>
        <time>2013-11-09T07:43:01.587Z</time>
      </trkpt>
      <trkpt lat="47.31077" lon="4.95714">
        <ele>365</ele>
        <time>2013-11-09T07:43:03.588Z</time>
      </trkpt>
      <trkpt lat="47.31076" lon="4.95714">
        <ele>365</ele>
        <time>2013-11-09T07:43:20.750Z</time>
      </trkpt>
      <trkpt lat="47.31076" lon="4.95708">
        <ele>366</ele>
        <time>2013-11-09T07:43:23.728Z</time>
      </trkpt>
      <trkpt lat="47.31076" lon="4.95707">
        <ele>366</ele>
        <time>2013-11-09T07:43:25.748Z</time>
      </trkpt>
      <trkpt lat="47.31076" lon="4.95708">
        <ele>366</ele>
        <time>2013-11-09T07:43:28.653Z</time>
      </trkpt>
      <trkpt lat="47.31076" lon="4.95708">
        <ele>366</ele>
        <time>2013-11-09T07:43:39.616Z</time>
      </trkpt>
      <trkpt lat="47.31074" lon="4.9571">
        <ele>366</ele>
        <time>2013-11-09T07:43:42.621Z</time>
      </trkpt>
      <trkpt lat="47.3107" lon="4.95716">
        <ele>365</ele>
        <time>2013-11-09T07:43:45.693Z</time>
      </trkpt>
      <trkpt lat="47.31069" lon="4.95721">
        <ele>365</ele>
        <time>2013-11-09T07:43:48.708Z</time>
      </trkpt>
      <trkpt lat="47.31066" lon="4.95727">
        <ele>365</ele>
        <time>2013-11-09T07:43:51.610Z</time>
      </trkpt>
      <trkpt lat="47.31062" lon="4.95735">
        <ele>364</ele>
        <time>2013-11-09T07:43:54.606Z</time>
      </trkpt>
      <trkpt lat="47.3106" lon="4.95739">
        <ele>364</ele>
        <time>2013-11-09T07:43:56.618Z</time>
      </trkpt>
      <trkpt lat="47.31056" lon="4.95746">
        <ele>364</ele>
        <time>2013-11-09T07:43:59.595Z</time>
      </trkpt>
      <trkpt lat="47.31051" lon="4.95753">
        <ele>362</ele>
        <time>2013-11-09T07:44:04.585Z</time>
      </trkpt>
      <trkpt lat="47.31049" lon="4.95757">
        <ele>362</ele>
        <time>2013-11-09T07:44:06.594Z</time>
      </trkpt>
      <trkpt lat="47.31044" lon="4.95765">
        <ele>362</ele>
        <time>2013-11-09T07:44:11.606Z</time>
      </trkpt>
      <trkpt lat="47.31039" lon="4.95766">
        <ele>362</ele>
        <time>2013-11-09T07:44:14.582Z</time>
      </trkpt>
      <trkpt lat="47.31031" lon="4.95761">
        <ele>362</ele>
        <time>2013-11-09T07:44:22.620Z</time>
      </trkpt>
      <trkpt lat="47.31028" lon="4.95758">
        <ele>362</ele>
        <time>2013-11-09T07:44:25.624Z</time>
      </trkpt>
      <trkpt lat="47.3102" lon="4.95752">
        <ele>362</ele>
        <time>2013-11-09T07:44:33.587Z</time>
      </trkpt>
      <trkpt lat="47.31019" lon="4.95749">
        <ele>363</ele>
        <time>2013-11-09T07:44:35.602Z</time>
      </trkpt>
      <trkpt lat="47.31016" lon="4.95745">
        <ele>363</ele>
        <time>2013-11-09T07:44:39.615Z</time>
      </trkpt>
      <trkpt lat="47.31016" lon="4.95745">
        <ele>363</ele>
        <time>2013-11-09T07:44:42.603Z</time>
      </trkpt>
      <trkpt lat="47.31014" lon="4.9574">
        <ele>363</ele>
        <time>2013-11-09T07:44:45.605Z</time>
      </trkpt>
      <trkpt lat="47.31009" lon="4.95731">
        <ele>363</ele>
        <time>2013-11-09T07:44:57.605Z</time>
      </trkpt>
      <trkpt lat="47.31007" lon="4.95728">
        <ele>363</ele>
        <time>2013-11-09T07:45:00.591Z</time>
      </trkpt>
      <trkpt lat="47.31005" lon="4.95722">
        <ele>364</ele>
        <time>2013-11-09T07:45:05.590Z</time>
      </trkpt>
      <trkpt lat="47.31004" lon="4.95715">
        <ele>364</ele>
        <time>2013-11-09T07:45:08.597Z</time>
      </trkpt>
      <trkpt lat="47.31002" lon="4.95707">
        <ele>364</ele>
        <time>2013-11-09T07:45:14.583Z</time>
      </trkpt>
      <trkpt lat="47.31" lon="4.95701">
        <ele>365</ele>
        <time>2013-11-09T07:45:16.600Z</time>
      </trkpt>
      <trkpt lat="47.30999" lon="4.95695">
        <ele>371</ele>
        <time>2013-11-09T07:45:18.621Z</time>
      </trkpt>
      <trkpt lat="47.30996" lon="4.95685">
        <ele>371</ele>
        <time>2013-11-09T07:45:21.611Z</time>
      </trkpt>
      <trkpt lat="47.30995" lon="4.95678">
        <ele>369</ele>
        <time>2013-11-09T07:45:23.612Z</time>
      </trkpt>
      <trkpt lat="47.30995" lon="4.95668">
        <ele>367</ele>
        <time>2013-11-09T07:45:26.625Z</time>
      </trkpt>
      <trkpt lat="47.30993" lon="4.95659">
        <ele>370</ele>
        <time>2013-11-09T07:45:29.598Z</time>
      </trkpt>
      <trkpt lat="47.30991" lon="4.9565">
        <ele>372</ele>
        <time>2013-11-09T07:45:32.609Z</time>
      </trkpt>
      <trkpt lat="47.30991" lon="4.95637">
        <ele>374</ele>
        <time>2013-11-09T07:45:37.593Z</time>
      </trkpt>
      <trkpt lat="47.30991" lon="4.95634">
        <ele>374</ele>
        <time>2013-11-09T07:45:39.597Z</time>
      </trkpt>
      <trkpt lat="47.3099" lon="4.95633">
        <ele>374</ele>
        <time>2013-11-09T07:45:42.591Z</time>
      </trkpt>
      <trkpt lat="47.3099" lon="4.95634">
        <ele>374</ele>
        <time>2013-11-09T07:45:44.601Z</time>
      </trkpt>
      <trkpt lat="47.30989" lon="4.9563">
        <ele>375</ele>
        <time>2013-11-09T07:45:46.615Z</time>
      </trkpt>
      <trkpt lat="47.30985" lon="4.95624">
        <ele>375</ele>
        <time>2013-11-09T07:45:48.624Z</time>
      </trkpt>
      <trkpt lat="47.30984" lon="4.95619">
        <ele>376</ele>
        <time>2013-11-09T07:45:51.631Z</time>
      </trkpt>
      <trkpt lat="47.30984" lon="4.95609">
        <ele>375</ele>
        <time>2013-11-09T07:45:56.641Z</time>
      </trkpt>
      <trkpt lat="47.30984" lon="4.95602">
        <ele>375</ele>
        <time>2013-11-09T07:45:59.615Z</time>
      </trkpt>
      <trkpt lat="47.30982" lon="4.95593">
        <ele>375</ele>
        <time>2013-11-09T07:46:02.600Z</time>
      </trkpt>
      <trkpt lat="47.30984" lon="4.95584">
        <ele>374</ele>
        <time>2013-11-09T07:46:05.590Z</time>
      </trkpt>
      <trkpt lat="47.30986" lon="4.95576">
        <ele>375</ele>
        <time>2013-11-09T07:46:07.608Z</time>
      </trkpt>
      <trkpt lat="47.30987" lon="4.95567">
        <ele>376</ele>
        <time>2013-11-09T07:46:10.589Z</time>
      </trkpt>
      <trkpt lat="47.30986" lon="4.95557">
        <ele>377</ele>
        <time>2013-11-09T07:46:14.586Z</time>
      </trkpt>
      <trkpt lat="47.30985" lon="4.95552">
        <ele>378</ele>
        <time>2013-11-09T07:46:16.613Z</time>
      </trkpt>
      <trkpt lat="47.30984" lon="4.95543">
        <ele>378</ele>
        <time>2013-11-09T07:46:21.620Z</time>
      </trkpt>
      <trkpt lat="47.30982" lon="4.95539">
        <ele>379</ele>
        <time>2013-11-09T07:46:24.590Z</time>
      </trkpt>
      <trkpt lat="47.30979" lon="4.95529">
        <ele>379</ele>
        <time>2013-11-09T07:46:29.613Z</time>
      </trkpt>
      <trkpt lat="47.30976" lon="4.95521">
        <ele>379</ele>
        <time>2013-11-09T07:46:32.614Z</time>
      </trkpt>
      <trkpt lat="47.30974" lon="4.95513">
        <ele>380</ele>
        <time>2013-11-09T07:46:35.599Z</time>
      </trkpt>
      <trkpt lat="47.30973" lon="4.95508">
        <ele>380</ele>
        <time>2013-11-09T07:46:37.603Z</time>
      </trkpt>
      <trkpt lat="47.30973" lon="4.95497">
        <ele>381</ele>
        <time>2013-11-09T07:46:42.581Z</time>
      </trkpt>
      <trkpt lat="47.30972" lon="4.95493">
        <ele>382</ele>
        <time>2013-11-09T07:46:44.584Z</time>
      </trkpt>
      <trkpt lat="47.30969" lon="4.95483">
        <ele>382</ele>
        <time>2013-11-09T07:46:48.600Z</time>
      </trkpt>
      <trkpt lat="47.30967" lon="4.95478">
        <ele>382</ele>
        <time>2013-11-09T07:46:50.602Z</time>
      </trkpt>
      <trkpt lat="47.30967" lon="4.95468">
        <ele>382</ele>
        <time>2013-11-09T07:46:54.619Z</time>
      </trkpt>
      <trkpt lat="47.30966" lon="4.9546">
        <ele>383</ele>
        <time>2013-11-09T07:46:57.625Z</time>
      </trkpt>
      <trkpt lat="47.30964" lon="4.95452">
        <ele>383</ele>
        <time>2013-11-09T07:47:00.949Z</time>
      </trkpt>
      <trkpt lat="47.30963" lon="4.95446">
        <ele>383</ele>
        <time>2013-11-09T07:47:03.005Z</time>
      </trkpt>
      <trkpt lat="47.30963" lon="4.9544">
        <ele>383</ele>
        <time>2013-11-09T07:47:05.013Z</time>
      </trkpt>
      <trkpt lat="47.30962" lon="4.95432">
        <ele>383</ele>
        <time>2013-11-09T07:47:07.986Z</time>
      </trkpt>
      <trkpt lat="47.3096" lon="4.95422">
        <ele>383</ele>
        <time>2013-11-09T07:47:12.013Z</time>
      </trkpt>
      <trkpt lat="47.30957" lon="4.95417">
        <ele>383</ele>
        <time>2013-11-09T07:47:15.017Z</time>
      </trkpt>
      <trkpt lat="47.30954" lon="4.95407">
        <ele>385</ele>
        <time>2013-11-09T07:47:21.031Z</time>
      </trkpt>
      <trkpt lat="47.30952" lon="4.95401">
        <ele>385</ele>
        <time>2013-11-09T07:47:23.044Z</time>
      </trkpt>
      <trkpt lat="47.3095" lon="4.95392">
        <ele>385</ele>
        <time>2013-11-09T07:47:25.994Z</time>
      </trkpt>
      <trkpt lat="47.30949" lon="4.95384">
        <ele>385</ele>
        <time>2013-11-09T07:47:28.986Z</time>
      </trkpt>
      <trkpt lat="47.3095" lon="4.95372">
        <ele>385</ele>
        <time>2013-11-09T07:47:34.002Z</time>
      </trkpt>
      <trkpt lat="47.30951" lon="4.95366">
        <ele>385</ele>
        <time>2013-11-09T07:47:36.016Z</time>
      </trkpt>
      <trkpt lat="47.30954" lon="4.95353">
        <ele>385</ele>
        <time>2013-11-09T07:47:39.010Z</time>
      </trkpt>
      <trkpt lat="47.30955" lon="4.95341">
        <ele>386</ele>
        <time>2013-11-09T07:47:42.011Z</time>
      </trkpt>
      <trkpt lat="47.30954" lon="4.95335">
        <ele>386</ele>
        <time>2013-11-09T07:47:45.011Z</time>
      </trkpt>
      <trkpt lat="47.30949" lon="4.95329">
        <ele>387</ele>
        <time>2013-11-09T07:47:53.027Z</time>
      </trkpt>
      <trkpt lat="47.30946" lon="4.95324">
        <ele>387</ele>
        <time>2013-11-09T07:47:56.065Z</time>
      </trkpt>
      <trkpt lat="47.30945" lon="4.95318">
        <ele>387</ele>
        <time>2013-11-09T07:47:59.028Z</time>
      </trkpt>
      <trkpt lat="47.30944" lon="4.9531">
        <ele>387</ele>
        <time>2013-11-09T07:48:01.992Z</time>
      </trkpt>
      <trkpt lat="47.30943" lon="4.95299">
        <ele>387</ele>
        <time>2013-11-09T07:48:06.030Z</time>
      </trkpt>
      <trkpt lat="47.30941" lon="4.95292">
        <ele>388</ele>
        <time>2013-11-09T07:48:09.012Z</time>
      </trkpt>
      <trkpt lat="47.30941" lon="4.95283">
        <ele>388</ele>
        <time>2013-11-09T07:48:12.029Z</time>
      </trkpt>
      <trkpt lat="47.30943" lon="4.95274">
        <ele>388</ele>
        <time>2013-11-09T07:48:15.008Z</time>
      </trkpt>
      <trkpt lat="47.30943" lon="4.95266">
        <ele>388</ele>
        <time>2013-11-09T07:48:19.045Z</time>
      </trkpt>
      <trkpt lat="47.30944" lon="4.95259">
        <ele>388</ele>
        <time>2013-11-09T07:48:22.022Z</time>
      </trkpt>
      <trkpt lat="47.30942" lon="4.95247">
        <ele>390</ele>
        <time>2013-11-09T07:48:29.088Z</time>
      </trkpt>
      <trkpt lat="47.30941" lon="4.9524">
        <ele>390</ele>
        <time>2013-11-09T07:48:32.004Z</time>
      </trkpt>
      <trkpt lat="47.30939" lon="4.95232">
        <ele>390</ele>
        <time>2013-11-09T07:48:36.014Z</time>
      </trkpt>
      <trkpt lat="47.30938" lon="4.95226">
        <ele>390</ele>
        <time>2013-11-09T07:48:39.012Z</time>
      </trkpt>
      <trkpt lat="47.30937" lon="4.95215">
        <ele>391</ele>
        <time>2013-11-09T07:48:43.031Z</time>
      </trkpt>
      <trkpt lat="47.30938" lon="4.95208">
        <ele>391</ele>
        <time>2013-11-09T07:48:46.135Z</time>
      </trkpt>
      <trkpt lat="47.30938" lon="4.95196">
        <ele>391</ele>
        <time>2013-11-09T07:48:51.164Z</time>
      </trkpt>
      <trkpt lat="47.30938" lon="4.95185">
        <ele>391</ele>
        <time>2013-11-09T07:48:54.155Z</time>
      </trkpt>
      <trkpt lat="47.30939" lon="4.95176">
        <ele>391</ele>
        <time>2013-11-09T07:48:56.155Z</time>
      </trkpt>
      <trkpt lat="47.30938" lon="4.95165">
        <ele>393</ele>
        <time>2013-11-09T07:48:59.063Z</time>
      </trkpt>
      <trkpt lat="47.30936" lon="4.95155">
        <ele>393</ele>
        <time>2013-11-09T07:49:02.019Z</time>
      </trkpt>
      <trkpt lat="47.30933" lon="4.95146">
        <ele>394</ele>
        <time>2013-11-09T07:49:04.995Z</time>
      </trkpt>
      <trkpt lat="47.30931" lon="4.9514">
        <ele>394</ele>
        <time>2013-11-09T07:49:07.006Z</time>
      </trkpt>
      <trkpt lat="47.30929" lon="4.95132">
        <ele>394</ele>
        <time>2013-11-09T07:49:09.037Z</time>
      </trkpt>
      <trkpt lat="47.30929" lon="4.95122">
        <ele>394</ele>
        <time>2013-11-09T07:49:11.039Z</time>
      </trkpt>
      <trkpt lat="47.30929" lon="4.95117">
        <ele>394</ele>
        <time>2013-11-09T07:49:12.017Z</time>
      </trkpt>
      <trkpt lat="47.30929" lon="4.95105">
        <ele>394</ele>
        <time>2013-11-09T07:49:15.009Z</time>
      </trkpt>
      <trkpt lat="47.30928" lon="4.95099">
        <ele>394</ele>
        <time>2013-11-09T07:49:17.124Z</time>
      </trkpt>
      <trkpt lat="47.30923" lon="4.9509">
        <ele>392</ele>
        <time>2013-11-09T07:49:21.140Z</time>
      </trkpt>
      <trkpt lat="47.30919" lon="4.95083">
        <ele>391</ele>
        <time>2013-11-09T07:49:24.056Z</time>
      </trkpt>
      <trkpt lat="47.3092" lon="4.95075">
        <ele>393</ele>
        <time>2013-11-09T07:49:26.140Z</time>
      </trkpt>
      <trkpt lat="47.30922" lon="4.95064">
        <ele>395</ele>
        <time>2013-11-09T07:49:29.140Z</time>
      </trkpt>
      <trkpt lat="47.30921" lon="4.95053">
        <ele>396</ele>
        <time>2013-11-09T07:49:36.002Z</time>
      </trkpt>
      <trkpt lat="47.30922" lon="4.95049">
        <ele>396</ele>
        <time>2013-11-09T07:49:38.003Z</time>
      </trkpt>
      <trkpt lat="47.30925" lon="4.95038">
        <ele>396</ele>
        <time>2013-11-09T07:49:43.003Z</time>
      </trkpt>
      <trkpt lat="47.30925" lon="4.95028">
        <ele>396</ele>
        <time>2013-11-09T07:49:46.003Z</time>
      </trkpt>
      <trkpt lat="47.30924" lon="4.95022">
        <ele>396</ele>
        <time>2013-11-09T07:49:48.022Z</time>
      </trkpt>
      <trkpt lat="47.30924" lon="4.95012">
        <ele>395</ele>
        <time>2013-11-09T07:49:51.023Z</time>
      </trkpt>
      <trkpt lat="47.30925" lon="4.95004">
        <ele>394</ele>
        <time>2013-11-09T07:49:54.012Z</time>
      </trkpt>
      <trkpt lat="47.30926" lon="4.94998">
        <ele>395</ele>
        <time>2013-11-09T07:49:57.018Z</time>
      </trkpt>
      <trkpt lat="47.30926" lon="4.9499">
        <ele>396</ele>
        <time>2013-11-09T07:50:00.017Z</time>
      </trkpt>
      <trkpt lat="47.30927" lon="4.94984">
        <ele>397</ele>
        <time>2013-11-09T07:50:03.015Z</time>
      </trkpt>
      <trkpt lat="47.3093" lon="4.94974">
        <ele>399</ele>
        <time>2013-11-09T07:50:08.003Z</time>
      </trkpt>
      <trkpt lat="47.30931" lon="4.9497">
        <ele>399</ele>
        <time>2013-11-09T07:50:10.012Z</time>
      </trkpt>
      <trkpt lat="47.30932" lon="4.9496">
        <ele>400</ele>
        <time>2013-11-09T07:50:13.989Z</time>
      </trkpt>
      <trkpt lat="47.30932" lon="4.94956">
        <ele>400</ele>
        <time>2013-11-09T07:50:15.999Z</time>
      </trkpt>
      <trkpt lat="47.30934" lon="4.94946">
        <ele>401</ele>
        <time>2013-11-09T07:50:20.013Z</time>
      </trkpt>
      <trkpt lat="47.30933" lon="4.94937">
        <ele>401</ele>
        <time>2013-11-09T07:50:23.014Z</time>
      </trkpt>
      <trkpt lat="47.30934" lon="4.94925">
        <ele>401</ele>
        <time>2013-11-09T07:50:27.057Z</time>
      </trkpt>
      <trkpt lat="47.30937" lon="4.94919">
        <ele>401</ele>
        <time>2013-11-09T07:50:30.003Z</time>
      </trkpt>
      <trkpt lat="47.3094" lon="4.94909">
        <ele>403</ele>
        <time>2013-11-09T07:50:32.999Z</time>
      </trkpt>
      <trkpt lat="47.30942" lon="4.94901">
        <ele>404</ele>
        <time>2013-11-09T07:50:35.985Z</time>
      </trkpt>
      <trkpt lat="47.30944" lon="4.94893">
        <ele>404</ele>
        <time>2013-11-09T07:50:39.996Z</time>
      </trkpt>
      <trkpt lat="47.30948" lon="4.94889">
        <ele>405</ele>
        <time>2013-11-09T07:50:42.987Z</time>
      </trkpt>
      <trkpt lat="47.30948" lon="4.94901">
        <ele>404</ele>
        <time>2013-11-09T07:50:54.014Z</time>
      </trkpt>
      <trkpt lat="47.30947" lon="4.94904">
        <ele>404</ele>
        <time>2013-11-09T07:50:56.030Z</time>
      </trkpt>
      <trkpt lat="47.30946" lon="4.94915">
        <ele>404</ele>
        <time>2013-11-09T07:51:01.985Z</time>
      </trkpt>
      <trkpt lat="47.30946" lon="4.94918">
        <ele>402</ele>
        <time>2013-11-09T07:51:04.015Z</time>
      </trkpt>
      <trkpt lat="47.30945" lon="4.9493">
        <ele>402</ele>
        <time>2013-11-09T07:51:09.996Z</time>
      </trkpt>
      <trkpt lat="47.30944" lon="4.94934">
        <ele>402</ele>
        <time>2013-11-09T07:51:12.000Z</time>
      </trkpt>
      <trkpt lat="47.30941" lon="4.94942">
        <ele>401</ele>
        <time>2013-11-09T07:51:18.021Z</time>
      </trkpt>
      <trkpt lat="47.3094" lon="4.94945">
        <ele>401</ele>
        <time>2013-11-09T07:51:21.004Z</time>
      </trkpt>
      <trkpt lat="47.30936" lon="4.94954">
        <ele>401</ele>
        <time>2013-11-09T07:51:30.007Z</time>
      </trkpt>
      <trkpt lat="47.30935" lon="4.94955">
        <ele>401</ele>
        <time>2013-11-09T07:51:32.995Z</time>
      </trkpt>
      <trkpt lat="47.30933" lon="4.94959">
        <ele>400</ele>
        <time>2013-11-09T07:51:35.995Z</time>
      </trkpt>
      <trkpt lat="47.3093" lon="4.94969">
        <ele>399</ele>
        <time>2013-11-09T07:51:41.997Z</time>
      </trkpt>
      <trkpt lat="47.3093" lon="4.94974">
        <ele>399</ele>
        <time>2013-11-09T07:51:44.996Z</time>
      </trkpt>
      <trkpt lat="47.30929" lon="4.94985">
        <ele>397</ele>
        <time>2013-11-09T07:51:51.014Z</time>
      </trkpt>
      <trkpt lat="47.30928" lon="4.9499">
        <ele>396</ele>
        <time>2013-11-09T07:51:54.013Z</time>
      </trkpt>
      <trkpt lat="47.30921" lon="4.94994">
        <ele>394</ele>
        <time>2013-11-09T07:52:03.020Z</time>
      </trkpt>
      <trkpt lat="47.3092" lon="4.94995">
        <ele>393</ele>
        <time>2013-11-09T07:52:05.983Z</time>
      </trkpt>
      <trkpt lat="47.30917" lon="4.94999">
        <ele>391</ele>
        <time>2013-11-09T07:52:11.983Z</time>
      </trkpt>
      <trkpt lat="47.30917" lon="4.94999">
        <ele>392</ele>
        <time>2013-11-09T07:52:13.999Z</time>
      </trkpt>
      <trkpt lat="47.30918" lon="4.94999">
        <ele>392</ele>
        <time>2013-11-09T07:52:24.012Z</time>
      </trkpt>
      <trkpt lat="47.30916" lon="4.94993">
        <ele>394</ele>
        <time>2013-11-09T07:52:27.022Z</time>
      </trkpt>
      <trkpt lat="47.30917" lon="4.94993">
        <ele>394</ele>
        <time>2013-11-09T07:52:30.011Z</time>
      </trkpt>
      <trkpt lat="47.30917" lon="4.94993">
        <ele>394</ele>
        <time>2013-11-09T07:52:37.995Z</time>
      </trkpt>
      <trkpt lat="47.30913" lon="4.94991">
        <ele>395</ele>
        <time>2013-11-09T07:52:40.989Z</time>
      </trkpt>
      <trkpt lat="47.30911" lon="4.94991">
        <ele>395</ele>
        <time>2013-11-09T07:52:46.022Z</time>
      </trkpt>
      <trkpt lat="47.30911" lon="4.94991">
        <ele>395</ele>
        <time>2013-11-09T07:52:49.012Z</time>
      </trkpt>
      <trkpt lat="47.30911" lon="4.94991">
        <ele>395</ele>
        <time>2013-11-09T07:52:56.025Z</time>
      </trkpt>
      <trkpt lat="47.30907" lon="4.94986">
        <ele>397</ele>
        <time>2013-11-09T07:52:59.002Z</time>
      </trkpt>
      <trkpt lat="47.30907" lon="4.94986">
        <ele>397</ele>
        <time>2013-11-09T07:53:01.982Z</time>
      </trkpt>
      <trkpt lat="47.30907" lon="4.94987">
        <ele>396</ele>
        <time>2013-11-09T07:53:23.013Z</time>
      </trkpt>
      <trkpt lat="47.30904" lon="4.94985">
        <ele>397</ele>
        <time>2013-11-09T07:53:26.008Z</time>
      </trkpt>
      <trkpt lat="47.30904" lon="4.94985">
        <ele>397</ele>
        <time>2013-11-09T07:53:28.988Z</time>
      </trkpt>
      <trkpt lat="47.30904" lon="4.94985">
        <ele>397</ele>
        <time>2013-11-09T07:53:33.994Z</time>
      </trkpt>
      <trkpt lat="47.30903" lon="4.94987">
        <ele>397</ele>
        <time>2013-11-09T07:53:37.009Z</time>
      </trkpt>
      <trkpt lat="47.309" lon="4.94995">
        <ele>397</ele>
        <time>2013-11-09T07:53:39.987Z</time>
      </trkpt>
      <trkpt lat="47.30899" lon="4.94999">
        <ele>397</ele>
        <time>2013-11-09T07:53:41.991Z</time>
      </trkpt>
      <trkpt lat="47.30899" lon="4.95007">
        <ele>395</ele>
        <time>2013-11-09T07:53:49.013Z</time>
      </trkpt>
      <trkpt lat="47.30899" lon="4.95007">
        <ele>395</ele>
        <time>2013-11-09T07:53:51.015Z</time>
      </trkpt>
      <trkpt lat="47.30899" lon="4.95007">
        <ele>395</ele>
        <time>2013-11-09T07:53:54.011Z</time>
      </trkpt>
      <trkpt lat="47.309" lon="4.9501">
        <ele>395</ele>
        <time>2013-11-09T07:53:56.024Z</time>
      </trkpt>
      <trkpt lat="47.30899" lon="4.95013">
        <ele>396</ele>
        <time>2013-11-09T07:53:58.999Z</time>
      </trkpt>
      <trkpt lat="47.30898" lon="4.95012">
        <ele>396</ele>
        <time>2013-11-09T07:54:01.980Z</time>
      </trkpt>
      <trkpt lat="47.30896" lon="4.95012">
        <ele>396</ele>
        <time>2013-11-09T07:54:03.987Z</time>
      </trkpt>
      <trkpt lat="47.30889" lon="4.95003">
        <ele>397</ele>
        <time>2013-11-09T07:54:11.991Z</time>
      </trkpt>
      <trkpt lat="47.30886" lon="4.95003">
        <ele>397</ele>
        <time>2013-11-09T07:54:15.010Z</time>
      </trkpt>
      <trkpt lat="47.30881" lon="4.95004">
        <ele>398</ele>
        <time>2013-11-09T07:54:20.011Z</time>
      </trkpt>
      <trkpt lat="47.30881" lon="4.95004">
        <ele>398</ele>
        <time>2013-11-09T07:54:23.054Z</time>
      </trkpt>
      <trkpt lat="47.30879" lon="4.95006">
        <ele>398</ele>
        <time>2013-11-09T07:54:26.004Z</time>
      </trkpt>
      <trkpt lat="47.30874" lon="4.9501">
        <ele>399</ele>
        <time>2013-11-09T07:54:33.001Z</time>
      </trkpt>
      <trkpt lat="47.30874" lon="4.95011">
        <ele>399</ele>
        <time>2013-11-09T07:54:35.984Z</time>
      </trkpt>
      <trkpt lat="47.30874" lon="4.95011">
        <ele>399</ele>
        <time>2013-11-09T07:54:40.989Z</time>
      </trkpt>
      <trkpt lat="47.30873" lon="4.95014">
        <ele>399</ele>
        <time>2013-11-09T07:54:43.981Z</time>
      </trkpt>
      <trkpt lat="47.3087" lon="4.95025">
        <ele>400</ele>
        <time>2013-11-09T07:54:52.017Z</time>
      </trkpt>
      <trkpt lat="47.30869" lon="4.9503">
        <ele>400</ele>
        <time>2013-11-09T07:54:55.021Z</time>
      </trkpt>
      <trkpt lat="47.30869" lon="4.95041">
        <ele>400</ele>
        <time>2013-11-09T07:55:03.001Z</time>
      </trkpt>
      <trkpt lat="47.30869" lon="4.95044">
        <ele>400</ele>
        <time>2013-11-09T07:55:05.994Z</time>
      </trkpt>
      <trkpt lat="47.30869" lon="4.9505">
        <ele>400</ele>
        <time>2013-11-09T07:55:07.999Z</time>
      </trkpt>
      <trkpt lat="47.30869" lon="4.95058">
        <ele>400</ele>
        <time>2013-11-09T07:55:09.999Z</time>
      </trkpt>
      <trkpt lat="47.30869" lon="4.95066">
        <ele>400</ele>
        <time>2013-11-09T07:55:11.993Z</time>
      </trkpt>
      <trkpt lat="47.30867" lon="4.95074">
        <ele>400</ele>
        <time>2013-11-09T07:55:13.996Z</time>
      </trkpt>
      <trkpt lat="47.30867" lon="4.9508">
        <ele>400</ele>
        <time>2013-11-09T07:55:16.013Z</time>
      </trkpt>
      <trkpt lat="47.30866" lon="4.95087">
        <ele>399</ele>
        <time>2013-11-09T07:55:18.999Z</time>
      </trkpt>
      <trkpt lat="47.30866" lon="4.95094">
        <ele>399</ele>
        <time>2013-11-09T07:55:21.016Z</time>
      </trkpt>
      <trkpt lat="47.30866" lon="4.95101">
        <ele>399</ele>
        <time>2013-11-09T07:55:23.994Z</time>
      </trkpt>
      <trkpt lat="47.30869" lon="4.95111">
        <ele>398</ele>
        <time>2013-11-09T07:55:28.996Z</time>
      </trkpt>
      <trkpt lat="47.30868" lon="4.95114">
        <ele>398</ele>
        <time>2013-11-09T07:55:31.021Z</time>
      </trkpt>
      <trkpt lat="47.30868" lon="4.95126">
        <ele>398</ele>
        <time>2013-11-09T07:55:35.992Z</time>
      </trkpt>
      <trkpt lat="47.30868" lon="4.95129">
        <ele>398</ele>
        <time>2013-11-09T07:55:37.997Z</time>
      </trkpt>
      <trkpt lat="47.30869" lon="4.95141">
        <ele>398</ele>
        <time>2013-11-09T07:55:46.004Z</time>
      </trkpt>
      <trkpt lat="47.3087" lon="4.95149">
        <ele>398</ele>
        <time>2013-11-09T07:55:48.999Z</time>
      </trkpt>
      <trkpt lat="47.3087" lon="4.9516">
        <ele>398</ele>
        <time>2013-11-09T07:55:53.995Z</time>
      </trkpt>
      <trkpt lat="47.3087" lon="4.95165">
        <ele>398</ele>
        <time>2013-11-09T07:55:55.997Z</time>
      </trkpt>
      <trkpt lat="47.30869" lon="4.95175">
        <ele>396</ele>
        <time>2013-11-09T07:55:58.996Z</time>
      </trkpt>
      <trkpt lat="47.30868" lon="4.95182">
        <ele>396</ele>
        <time>2013-11-09T07:56:00.996Z</time>
      </trkpt>
      <trkpt lat="47.30868" lon="4.95189">
        <ele>396</ele>
        <time>2013-11-09T07:56:03.014Z</time>
      </trkpt>
      <trkpt lat="47.30869" lon="4.95198">
        <ele>396</ele>
        <time>2013-11-09T07:56:05.999Z</time>
      </trkpt>
      <trkpt lat="47.3087" lon="4.95204">
        <ele>396</ele>
        <time>2013-11-09T07:56:09.014Z</time>
      </trkpt>
      <trkpt lat="47.3087" lon="4.95213">
        <ele>396</ele>
        <time>2013-11-09T07:56:11.999Z</time>
      </trkpt>
      <trkpt lat="47.3087" lon="4.95226">
        <ele>396</ele>
        <time>2013-11-09T07:56:17.983Z</time>
      </trkpt>
      <trkpt lat="47.3087" lon="4.95231">
        <ele>396</ele>
        <time>2013-11-09T07:56:19.995Z</time>
      </trkpt>
      <trkpt lat="47.30869" lon="4.9524">
        <ele>396</ele>
        <time>2013-11-09T07:56:23.998Z</time>
      </trkpt>
      <trkpt lat="47.3087" lon="4.95246">
        <ele>396</ele>
        <time>2013-11-09T07:56:26.000Z</time>
      </trkpt>
      <trkpt lat="47.30873" lon="4.95251">
        <ele>394</ele>
        <time>2013-11-09T07:56:28.003Z</time>
      </trkpt>
      <trkpt lat="47.30874" lon="4.95258">
        <ele>394</ele>
        <time>2013-11-09T07:56:30.994Z</time>
      </trkpt>
      <trkpt lat="47.30875" lon="4.95269">
        <ele>394</ele>
        <time>2013-11-09T07:56:35.986Z</time>
      </trkpt>
      <trkpt lat="47.30875" lon="4.95273">
        <ele>394</ele>
        <time>2013-11-09T07:56:39.007Z</time>
      </trkpt>
      <trkpt lat="47.30874" lon="4.95282">
        <ele>394</ele>
        <time>2013-11-09T07:56:44.013Z</time>
      </trkpt>
      <trkpt lat="47.30873" lon="4.9529">
        <ele>394</ele>
        <time>2013-11-09T07:56:46.022Z</time>
      </trkpt>
      <trkpt lat="47.30873" lon="4.95299">
        <ele>394</ele>
        <time>2013-11-09T07:56:49.007Z</time>
      </trkpt>
      <trkpt lat="47.30873" lon="4.95304">
        <ele>394</ele>
        <time>2013-11-09T07:56:51.013Z</time>
      </trkpt>
      <trkpt lat="47.30872" lon="4.95313">
        <ele>394</ele>
        <time>2013-11-09T07:56:53.998Z</time>
      </trkpt>
      <trkpt lat="47.30872" lon="4.95319">
        <ele>394</ele>
        <time>2013-11-09T07:56:56.010Z</time>
      </trkpt>
      <trkpt lat="47.30872" lon="4.95325">
        <ele>394</ele>
        <time>2013-11-09T07:56:58.014Z</time>
      </trkpt>
      <trkpt lat="47.30872" lon="4.95335">
        <ele>394</ele>
        <time>2013-11-09T07:57:01.005Z</time>
      </trkpt>
      <trkpt lat="47.30873" lon="4.95345">
        <ele>394</ele>
        <time>2013-11-09T07:57:05.994Z</time>
      </trkpt>
      <trkpt lat="47.30874" lon="4.95352">
        <ele>393</ele>
        <time>2013-11-09T07:57:08.425Z</time>
      </trkpt>
      <trkpt lat="47.30877" lon="4.95363">
        <ele>393</ele>
        <time>2013-11-09T07:57:14.438Z</time>
      </trkpt>
      <trkpt lat="47.30878" lon="4.9537">
        <ele>393</ele>
        <time>2013-11-09T07:57:17.416Z</time>
      </trkpt>
      <trkpt lat="47.30879" lon="4.95375">
        <ele>393</ele>
        <time>2013-11-09T07:57:19.425Z</time>
      </trkpt>
      <trkpt lat="47.30883" lon="4.95385">
        <ele>392</ele>
        <time>2013-11-09T07:57:22.428Z</time>
      </trkpt>
      <trkpt lat="47.30887" lon="4.95395">
        <ele>392</ele>
        <time>2013-11-09T07:57:25.423Z</time>
      </trkpt>
      <trkpt lat="47.3089" lon="4.95401">
        <ele>391</ele>
        <time>2013-11-09T07:57:27.423Z</time>
      </trkpt>
      <trkpt lat="47.30891" lon="4.95409">
        <ele>390</ele>
        <time>2013-11-09T07:57:32.419Z</time>
      </trkpt>
      <trkpt lat="47.30892" lon="4.95414">
        <ele>390</ele>
        <time>2013-11-09T07:57:35.417Z</time>
      </trkpt>
      <trkpt lat="47.30893" lon="4.95425">
        <ele>391</ele>
        <time>2013-11-09T07:57:41.423Z</time>
      </trkpt>
      <trkpt lat="47.30893" lon="4.9543">
        <ele>391</ele>
        <time>2013-11-09T07:57:43.431Z</time>
      </trkpt>
      <trkpt lat="47.30894" lon="4.95438">
        <ele>391</ele>
        <time>2013-11-09T07:57:46.419Z</time>
      </trkpt>
      <trkpt lat="47.30893" lon="4.95444">
        <ele>392</ele>
        <time>2013-11-09T07:57:48.419Z</time>
      </trkpt>
      <trkpt lat="47.30893" lon="4.95452">
        <ele>392</ele>
        <time>2013-11-09T07:57:52.446Z</time>
      </trkpt>
      <trkpt lat="47.30895" lon="4.95459">
        <ele>392</ele>
        <time>2013-11-09T07:57:55.430Z</time>
      </trkpt>
      <trkpt lat="47.30899" lon="4.95471">
        <ele>391</ele>
        <time>2013-11-09T07:58:00.068Z</time>
      </trkpt>
      <trkpt lat="47.30899" lon="4.95477">
        <ele>391</ele>
        <time>2013-11-09T07:58:03.041Z</time>
      </trkpt>
      <trkpt lat="47.30899" lon="4.95488">
        <ele>390</ele>
        <time>2013-11-09T07:58:08.062Z</time>
      </trkpt>
      <trkpt lat="47.309" lon="4.95494">
        <ele>390</ele>
        <time>2013-11-09T07:58:11.035Z</time>
      </trkpt>
      <trkpt lat="47.30901" lon="4.95502">
        <ele>390</ele>
        <time>2013-11-09T07:58:15.044Z</time>
      </trkpt>
      <trkpt lat="47.30902" lon="4.95507">
        <ele>391</ele>
        <time>2013-11-09T07:58:18.067Z</time>
      </trkpt>
      <trkpt lat="47.30903" lon="4.95516">
        <ele>391</ele>
        <time>2013-11-09T07:58:21.041Z</time>
      </trkpt>
      <trkpt lat="47.30905" lon="4.95523">
        <ele>392</ele>
        <time>2013-11-09T07:58:23.058Z</time>
      </trkpt>
      <trkpt lat="47.30906" lon="4.95536">
        <ele>393</ele>
        <time>2013-11-09T07:58:29.041Z</time>
      </trkpt>
      <trkpt lat="47.30906" lon="4.95541">
        <ele>393</ele>
        <time>2013-11-09T07:58:31.055Z</time>
      </trkpt>
      <trkpt lat="47.30907" lon="4.95547">
        <ele>393</ele>
        <time>2013-11-09T07:58:34.039Z</time>
      </trkpt>
      <trkpt lat="47.30907" lon="4.95555">
        <ele>393</ele>
        <time>2013-11-09T07:58:37.035Z</time>
      </trkpt>
      <trkpt lat="47.30908" lon="4.95564">
        <ele>392</ele>
        <time>2013-11-09T07:58:42.025Z</time>
      </trkpt>
      <trkpt lat="47.30909" lon="4.95568">
        <ele>392</ele>
        <time>2013-11-09T07:58:45.026Z</time>
      </trkpt>
      <trkpt lat="47.30909" lon="4.95575">
        <ele>391</ele>
        <time>2013-11-09T07:58:49.042Z</time>
      </trkpt>
      <trkpt lat="47.3091" lon="4.95583">
        <ele>390</ele>
        <time>2013-11-09T07:58:51.042Z</time>
      </trkpt>
      <trkpt lat="47.30911" lon="4.9559">
        <ele>391</ele>
        <time>2013-11-09T07:58:53.044Z</time>
      </trkpt>
      <trkpt lat="47.30912" lon="4.95597">
        <ele>392</ele>
        <time>2013-11-09T07:58:56.054Z</time>
      </trkpt>
      <trkpt lat="47.30914" lon="4.95606">
        <ele>394</ele>
        <time>2013-11-09T07:59:01.009Z</time>
      </trkpt>
      <trkpt lat="47.30915" lon="4.95613">
        <ele>394</ele>
        <time>2013-11-09T07:59:04.022Z</time>
      </trkpt>
      <trkpt lat="47.30916" lon="4.95624">
        <ele>395</ele>
        <time>2013-11-09T07:59:08.054Z</time>
      </trkpt>
      <trkpt lat="47.30917" lon="4.95629">
        <ele>383</ele>
        <time>2013-11-09T07:59:11.057Z</time>
      </trkpt>
      <trkpt lat="47.30918" lon="4.95641">
        <ele>384</ele>
        <time>2013-11-09T07:59:18.043Z</time>
      </trkpt>
      <trkpt lat="47.30917" lon="4.95645">
        <ele>384</ele>
        <time>2013-11-09T07:59:20.060Z</time>
      </trkpt>
      <trkpt lat="47.30917" lon="4.95651">
        <ele>386</ele>
        <time>2013-11-09T07:59:23.052Z</time>
      </trkpt>
      <trkpt lat="47.30919" lon="4.9566">
        <ele>388</ele>
        <time>2013-11-09T07:59:26.059Z</time>
      </trkpt>
      <trkpt lat="47.30919" lon="4.95671">
        <ele>388</ele>
        <time>2013-11-09T07:59:29.048Z</time>
      </trkpt>
      <trkpt lat="47.30919" lon="4.95677">
        <ele>386</ele>
        <time>2013-11-09T07:59:31.049Z</time>
      </trkpt>
      <trkpt lat="47.30919" lon="4.95683">
        <ele>385</ele>
        <time>2013-11-09T07:59:33.050Z</time>
      </trkpt>
      <trkpt lat="47.30921" lon="4.95691">
        <ele>383</ele>
        <time>2013-11-09T07:59:36.038Z</time>
      </trkpt>
      <trkpt lat="47.30921" lon="4.95697">
        <ele>382</ele>
        <time>2013-11-09T07:59:38.057Z</time>
      </trkpt>
      <trkpt lat="47.30921" lon="4.95704">
        <ele>382</ele>
        <time>2013-11-09T07:59:41.058Z</time>
      </trkpt>
      <trkpt lat="47.30921" lon="4.95712">
        <ele>382</ele>
        <time>2013-11-09T07:59:44.061Z</time>
      </trkpt>
      <trkpt lat="47.30922" lon="4.95718">
        <ele>382</ele>
        <time>2013-11-09T07:59:47.051Z</time>
      </trkpt>
      <trkpt lat="47.30924" lon="4.95728">
        <ele>383</ele>
        <time>2013-11-09T07:59:52.043Z</time>
      </trkpt>
      <trkpt lat="47.30926" lon="4.95731">
        <ele>383</ele>
        <time>2013-11-09T07:59:54.060Z</time>
      </trkpt>
      <trkpt lat="47.30929" lon="4.95741">
        <ele>384</ele>
        <time>2013-11-09T07:59:59.052Z</time>
      </trkpt>
      <trkpt lat="47.3093" lon="4.95745">
        <ele>384</ele>
        <time>2013-11-09T08:00:01.062Z</time>
      </trkpt>
      <trkpt lat="47.30932" lon="4.95756">
        <ele>383</ele>
        <time>2013-11-09T08:00:06.072Z</time>
      </trkpt>
      <trkpt lat="47.30932" lon="4.95763">
        <ele>382</ele>
        <time>2013-11-09T08:00:09.068Z</time>
      </trkpt>
      <trkpt lat="47.30933" lon="4.95773">
        <ele>381</ele>
        <time>2013-11-09T08:00:15.093Z</time>
      </trkpt>
      <trkpt lat="47.30933" lon="4.95778">
        <ele>380</ele>
        <time>2013-11-09T08:00:18.070Z</time>
      </trkpt>
      <trkpt lat="47.30936" lon="4.95787">
        <ele>380</ele>
        <time>2013-11-09T08:00:25.502Z</time>
      </trkpt>
      <trkpt lat="47.30939" lon="4.95791">
        <ele>379</ele>
        <time>2013-11-09T08:00:27.505Z</time>
      </trkpt>
      <trkpt lat="47.30943" lon="4.95801">
        <ele>379</ele>
        <time>2013-11-09T08:00:30.487Z</time>
      </trkpt>
      <trkpt lat="47.30945" lon="4.95808">
        <ele>379</ele>
        <time>2013-11-09T08:00:32.504Z</time>
      </trkpt>
      <trkpt lat="47.30947" lon="4.95817">
        <ele>379</ele>
        <time>2013-11-09T08:00:35.491Z</time>
      </trkpt>
      <trkpt lat="47.30948" lon="4.95822">
        <ele>379</ele>
        <time>2013-11-09T08:00:37.497Z</time>
      </trkpt>
      <trkpt lat="47.30948" lon="4.95832">
        <ele>379</ele>
        <time>2013-11-09T08:00:41.518Z</time>
      </trkpt>
      <trkpt lat="47.30948" lon="4.95841">
        <ele>379</ele>
        <time>2013-11-09T08:00:44.498Z</time>
      </trkpt>
      <trkpt lat="47.30947" lon="4.9585">
        <ele>379</ele>
        <time>2013-11-09T08:00:47.493Z</time>
      </trkpt>
      <trkpt lat="47.30948" lon="4.95855">
        <ele>378</ele>
        <time>2013-11-09T08:00:49.497Z</time>
      </trkpt>
      <trkpt lat="47.30948" lon="4.95863">
        <ele>378</ele>
        <time>2013-11-09T08:00:52.498Z</time>
      </trkpt>
      <trkpt lat="47.30949" lon="4.9587">
        <ele>378</ele>
        <time>2013-11-09T08:00:54.498Z</time>
      </trkpt>
      <trkpt lat="47.30949" lon="4.95878">
        <ele>377</ele>
        <time>2013-11-09T08:00:56.509Z</time>
      </trkpt>
      <trkpt lat="47.30947" lon="4.95892">
        <ele>378</ele>
        <time>2013-11-09T08:00:59.493Z</time>
      </trkpt>
      <trkpt lat="47.30945" lon="4.95902">
        <ele>378</ele>
        <time>2013-11-09T08:01:02.414Z</time>
      </trkpt>
      <trkpt lat="47.3094" lon="4.95908">
        <ele>378</ele>
        <time>2013-11-09T08:01:05.396Z</time>
      </trkpt>
      <trkpt lat="47.30935" lon="4.95912">
        <ele>379</ele>
        <time>2013-11-09T08:01:07.401Z</time>
      </trkpt>
      <trkpt lat="47.30929" lon="4.95914">
        <ele>380</ele>
        <time>2013-11-09T08:01:09.402Z</time>
      </trkpt>
      <trkpt lat="47.30923" lon="4.95911">
        <ele>381</ele>
        <time>2013-11-09T08:01:14.403Z</time>
      </trkpt>
      <trkpt lat="47.3092" lon="4.95907">
        <ele>380</ele>
        <time>2013-11-09T08:01:17.391Z</time>
      </trkpt>
      <trkpt lat="47.30915" lon="4.95898">
        <ele>384</ele>
        <time>2013-11-09T08:01:24.401Z</time>
      </trkpt>
      <trkpt lat="47.30913" lon="4.95895">
        <ele>384</ele>
        <time>2013-11-09T08:01:26.414Z</time>
      </trkpt>
      <trkpt lat="47.30908" lon="4.9589">
        <ele>385</ele>
        <time>2013-11-09T08:01:29.398Z</time>
      </trkpt>
      <trkpt lat="47.30905" lon="4.95888">
        <ele>385</ele>
        <time>2013-11-09T08:01:31.401Z</time>
      </trkpt>
      <trkpt lat="47.30898" lon="4.95881">
        <ele>385</ele>
        <time>2013-11-09T08:01:36.408Z</time>
      </trkpt>
      <trkpt lat="47.30895" lon="4.95879">
        <ele>385</ele>
        <time>2013-11-09T08:01:38.413Z</time>
      </trkpt>
      <trkpt lat="47.30886" lon="4.95878">
        <ele>385</ele>
        <time>2013-11-09T08:01:43.401Z</time>
      </trkpt>
      <trkpt lat="47.30883" lon="4.95879">
        <ele>385</ele>
        <time>2013-11-09T08:01:45.414Z</time>
      </trkpt>
      <trkpt lat="47.30875" lon="4.95878">
        <ele>385</ele>
        <time>2013-11-09T08:01:50.402Z</time>
      </trkpt>
      <trkpt lat="47.3087" lon="4.95876">
        <ele>386</ele>
        <time>2013-11-09T08:01:53.399Z</time>
      </trkpt>
      <trkpt lat="47.30863" lon="4.95872">
        <ele>386</ele>
        <time>2013-11-09T08:01:58.385Z</time>
      </trkpt>
      <trkpt lat="47.30861" lon="4.95871">
        <ele>386</ele>
        <time>2013-11-09T08:02:00.404Z</time>
      </trkpt>
      <trkpt lat="47.30852" lon="4.95869">
        <ele>387</ele>
        <time>2013-11-09T08:02:08.393Z</time>
      </trkpt>
      <trkpt lat="47.30848" lon="4.95872">
        <ele>386</ele>
        <time>2013-11-09T08:02:11.392Z</time>
      </trkpt>
      <trkpt lat="47.30843" lon="4.95876">
        <ele>386</ele>
        <time>2013-11-09T08:02:15.425Z</time>
      </trkpt>
      <trkpt lat="47.30839" lon="4.95877">
        <ele>385</ele>
        <time>2013-11-09T08:02:18.385Z</time>
      </trkpt>
      <trkpt lat="47.30831" lon="4.95875">
        <ele>385</ele>
        <time>2013-11-09T08:02:23.394Z</time>
      </trkpt>
      <trkpt lat="47.30827" lon="4.95873">
        <ele>385</ele>
        <time>2013-11-09T08:02:25.394Z</time>
      </trkpt>
      <trkpt lat="47.30821" lon="4.95872">
        <ele>386</ele>
        <time>2013-11-09T08:02:29.402Z</time>
      </trkpt>
      <trkpt lat="47.30817" lon="4.95869">
        <ele>386</ele>
        <time>2013-11-09T08:02:32.407Z</time>
      </trkpt>
      <trkpt lat="47.30811" lon="4.95865">
        <ele>386</ele>
        <time>2013-11-09T08:02:37.389Z</time>
      </trkpt>
      <trkpt lat="47.30808" lon="4.95863">
        <ele>387</ele>
        <time>2013-11-09T08:02:39.398Z</time>
      </trkpt>
      <trkpt lat="47.308" lon="4.95856">
        <ele>387</ele>
        <time>2013-11-09T08:02:44.406Z</time>
      </trkpt>
      <trkpt lat="47.30795" lon="4.95853">
        <ele>387</ele>
        <time>2013-11-09T08:02:47.392Z</time>
      </trkpt>
      <trkpt lat="47.30789" lon="4.95852">
        <ele>387</ele>
        <time>2013-11-09T08:02:51.398Z</time>
      </trkpt>
      <trkpt lat="47.30785" lon="4.95851">
        <ele>387</ele>
        <time>2013-11-09T08:02:54.403Z</time>
      </trkpt>
      <trkpt lat="47.30777" lon="4.95845">
        <ele>388</ele>
        <time>2013-11-09T08:03:02.415Z</time>
      </trkpt>
      <trkpt lat="47.30774" lon="4.95845">
        <ele>388</ele>
        <time>2013-11-09T08:03:05.386Z</time>
      </trkpt>
      <trkpt lat="47.30767" lon="4.95843">
        <ele>389</ele>
        <time>2013-11-09T08:03:11.382Z</time>
      </trkpt>
      <trkpt lat="47.30764" lon="4.95842">
        <ele>389</ele>
        <time>2013-11-09T08:03:13.398Z</time>
      </trkpt>
      <trkpt lat="47.30757" lon="4.95841">
        <ele>390</ele>
        <time>2013-11-09T08:03:18.415Z</time>
      </trkpt>
      <trkpt lat="47.30751" lon="4.95838">
        <ele>391</ele>
        <time>2013-11-09T08:03:21.385Z</time>
      </trkpt>
      <trkpt lat="47.30746" lon="4.95835">
        <ele>391</ele>
        <time>2013-11-09T08:03:23.389Z</time>
      </trkpt>
      <trkpt lat="47.30741" lon="4.95832">
        <ele>393</ele>
        <time>2013-11-09T08:03:25.396Z</time>
      </trkpt>
      <trkpt lat="47.3073" lon="4.95828">
        <ele>392</ele>
        <time>2013-11-09T08:03:28.391Z</time>
      </trkpt>
      <trkpt lat="47.30722" lon="4.95824">
        <ele>392</ele>
        <time>2013-11-09T08:03:33.388Z</time>
      </trkpt>
      <trkpt lat="47.30717" lon="4.95821">
        <ele>391</ele>
        <time>2013-11-09T08:03:36.394Z</time>
      </trkpt>
      <trkpt lat="47.30709" lon="4.95818">
        <ele>391</ele>
        <time>2013-11-09T08:03:41.383Z</time>
      </trkpt>
      <trkpt lat="47.30706" lon="4.95818">
        <ele>390</ele>
        <time>2013-11-09T08:03:43.390Z</time>
      </trkpt>
      <trkpt lat="47.30697" lon="4.95815">
        <ele>389</ele>
        <time>2013-11-09T08:03:48.388Z</time>
      </trkpt>
      <trkpt lat="47.30693" lon="4.95814">
        <ele>389</ele>
        <time>2013-11-09T08:03:50.408Z</time>
      </trkpt>
      <trkpt lat="47.30687" lon="4.9581">
        <ele>389</ele>
        <time>2013-11-09T08:03:55.398Z</time>
      </trkpt>
      <trkpt lat="47.30684" lon="4.95806">
        <ele>389</ele>
        <time>2013-11-09T08:03:58.389Z</time>
      </trkpt>
      <trkpt lat="47.3068" lon="4.95798">
        <ele>390</ele>
        <time>2013-11-09T08:04:01.401Z</time>
      </trkpt>
      <trkpt lat="47.30676" lon="4.95791">
        <ele>391</ele>
        <time>2013-11-09T08:04:04.394Z</time>
      </trkpt>
      <trkpt lat="47.30672" lon="4.95784">
        <ele>391</ele>
        <time>2013-11-09T08:04:07.384Z</time>
      </trkpt>
      <trkpt lat="47.3067" lon="4.95779">
        <ele>392</ele>
        <time>2013-11-09T08:04:09.392Z</time>
      </trkpt>
      <trkpt lat="47.30668" lon="4.95769">
        <ele>393</ele>
        <time>2013-11-09T08:04:13.396Z</time>
      </trkpt>
      <trkpt lat="47.30667" lon="4.95766">
        <ele>387</ele>
        <time>2013-11-09T08:04:15.402Z</time>
      </trkpt>
      <trkpt lat="47.30663" lon="4.9576">
        <ele>389</ele>
        <time>2013-11-09T08:04:20.398Z</time>
      </trkpt>
      <trkpt lat="47.3066" lon="4.95756">
        <ele>390</ele>
        <time>2013-11-09T08:04:23.399Z</time>
      </trkpt>
      <trkpt lat="47.30656" lon="4.95748">
        <ele>395</ele>
        <time>2013-11-09T08:04:32.405Z</time>
      </trkpt>
      <trkpt lat="47.30657" lon="4.95741">
        <ele>395</ele>
        <time>2013-11-09T08:04:35.385Z</time>
      </trkpt>
      <trkpt lat="47.30659" lon="4.95728">
        <ele>395</ele>
        <time>2013-11-09T08:04:41.398Z</time>
      </trkpt>
      <trkpt lat="47.30659" lon="4.95725">
        <ele>395</ele>
        <time>2013-11-09T08:04:44.422Z</time>
      </trkpt>
      <trkpt lat="47.30659" lon="4.95725">
        <ele>395</ele>
        <time>2013-11-09T08:04:47.439Z</time>
      </trkpt>
      <trkpt lat="47.30659" lon="4.95722">
        <ele>396</ele>
        <time>2013-11-09T08:04:50.412Z</time>
      </trkpt>
      <trkpt lat="47.30657" lon="4.95711">
        <ele>397</ele>
        <time>2013-11-09T08:04:57.393Z</time>
      </trkpt>
      <trkpt lat="47.30656" lon="4.95705">
        <ele>397</ele>
        <time>2013-11-09T08:04:59.396Z</time>
      </trkpt>
      <trkpt lat="47.30656" lon="4.957">
        <ele>398</ele>
        <time>2013-11-09T08:05:01.397Z</time>
      </trkpt>
      <trkpt lat="47.30656" lon="4.95691">
        <ele>399</ele>
        <time>2013-11-09T08:05:04.392Z</time>
      </trkpt>
      <trkpt lat="47.30656" lon="4.95684">
        <ele>400</ele>
        <time>2013-11-09T08:05:09.385Z</time>
      </trkpt>
      <trkpt lat="47.30656" lon="4.95676">
        <ele>402</ele>
        <time>2013-11-09T08:05:11.415Z</time>
      </trkpt>
      <trkpt lat="47.30653" lon="4.95666">
        <ele>407</ele>
        <time>2013-11-09T08:05:14.404Z</time>
      </trkpt>
      <trkpt lat="47.30652" lon="4.95657">
        <ele>407</ele>
        <time>2013-11-09T08:05:17.404Z</time>
      </trkpt>
      <trkpt lat="47.30652" lon="4.95647">
        <ele>407</ele>
        <time>2013-11-09T08:05:20.406Z</time>
      </trkpt>
      <trkpt lat="47.30653" lon="4.95639">
        <ele>407</ele>
        <time>2013-11-09T08:05:23.401Z</time>
      </trkpt>
      <trkpt lat="47.30656" lon="4.95629">
        <ele>408</ele>
        <time>2013-11-09T08:05:28.395Z</time>
      </trkpt>
      <trkpt lat="47.30657" lon="4.95621">
        <ele>408</ele>
        <time>2013-11-09T08:05:31.391Z</time>
      </trkpt>
      <trkpt lat="47.3066" lon="4.95612">
        <ele>409</ele>
        <time>2013-11-09T08:05:35.402Z</time>
      </trkpt>
      <trkpt lat="47.30661" lon="4.95607">
        <ele>410</ele>
        <time>2013-11-09T08:05:38.403Z</time>
      </trkpt>
      <trkpt lat="47.30664" lon="4.95598">
        <ele>411</ele>
        <time>2013-11-09T08:05:43.392Z</time>
      </trkpt>
      <trkpt lat="47.30665" lon="4.95594">
        <ele>412</ele>
        <time>2013-11-09T08:05:45.407Z</time>
      </trkpt>
      <trkpt lat="47.30667" lon="4.95583">
        <ele>414</ele>
        <time>2013-11-09T08:05:50.422Z</time>
      </trkpt>
      <trkpt lat="47.30668" lon="4.95577">
        <ele>414</ele>
        <time>2013-11-09T08:05:53.413Z</time>
      </trkpt>
      <trkpt lat="47.30669" lon="4.95565">
        <ele>414</ele>
        <time>2013-11-09T08:06:00.406Z</time>
      </trkpt>
      <trkpt lat="47.3067" lon="4.95561">
        <ele>414</ele>
        <time>2013-11-09T08:06:02.411Z</time>
      </trkpt>
      <trkpt lat="47.30672" lon="4.95554">
        <ele>415</ele>
        <time>2013-11-09T08:06:05.415Z</time>
      </trkpt>
      <trkpt lat="47.30673" lon="4.95547">
        <ele>415</ele>
        <time>2013-11-09T08:06:08.405Z</time>
      </trkpt>
      <trkpt lat="47.30675" lon="4.95536">
        <ele>415</ele>
        <time>2013-11-09T08:06:14.424Z</time>
      </trkpt>
      <trkpt lat="47.30677" lon="4.95531">
        <ele>415</ele>
        <time>2013-11-09T08:06:17.404Z</time>
      </trkpt>
      <trkpt lat="47.3068" lon="4.95522">
        <ele>415</ele>
        <time>2013-11-09T08:06:22.400Z</time>
      </trkpt>
      <trkpt lat="47.30681" lon="4.95517">
        <ele>416</ele>
        <time>2013-11-09T08:06:24.401Z</time>
      </trkpt>
      <trkpt lat="47.30685" lon="4.95508">
        <ele>416</ele>
        <time>2013-11-09T08:06:29.403Z</time>
      </trkpt>
      <trkpt lat="47.30687" lon="4.95504">
        <ele>416</ele>
        <time>2013-11-09T08:06:32.412Z</time>
      </trkpt>
      <trkpt lat="47.30692" lon="4.95493">
        <ele>417</ele>
        <time>2013-11-09T08:06:38.412Z</time>
      </trkpt>
      <trkpt lat="47.30693" lon="4.9549">
        <ele>417</ele>
        <time>2013-11-09T08:06:41.392Z</time>
      </trkpt>
      <trkpt lat="47.30698" lon="4.95479">
        <ele>417</ele>
        <time>2013-11-09T08:06:50.401Z</time>
      </trkpt>
      <trkpt lat="47.307" lon="4.9547">
        <ele>417</ele>
        <time>2013-11-09T08:06:53.388Z</time>
      </trkpt>
      <trkpt lat="47.30702" lon="4.95463">
        <ele>417</ele>
        <time>2013-11-09T08:06:55.390Z</time>
      </trkpt>
      <trkpt lat="47.30704" lon="4.95457">
        <ele>417</ele>
        <time>2013-11-09T08:06:57.396Z</time>
      </trkpt>
      <trkpt lat="47.30704" lon="4.9545">
        <ele>417</ele>
        <time>2013-11-09T08:07:00.544Z</time>
      </trkpt>
      <trkpt lat="47.30703" lon="4.95443">
        <ele>417</ele>
        <time>2013-11-09T08:07:03.518Z</time>
      </trkpt>
      <trkpt lat="47.307" lon="4.95433">
        <ele>417</ele>
        <time>2013-11-09T08:07:08.512Z</time>
      </trkpt>
      <trkpt lat="47.30699" lon="4.95429">
        <ele>417</ele>
        <time>2013-11-09T08:07:11.509Z</time>
      </trkpt>
      <trkpt lat="47.30696" lon="4.95419">
        <ele>418</ele>
        <time>2013-11-09T08:07:20.542Z</time>
      </trkpt>
      <trkpt lat="47.30696" lon="4.95419">
        <ele>418</ele>
        <time>2013-11-09T08:07:23.537Z</time>
      </trkpt>
      <trkpt lat="47.30691" lon="4.95412">
        <ele>419</ele>
        <time>2013-11-09T08:07:26.520Z</time>
      </trkpt>
      <trkpt lat="47.30687" lon="4.9541">
        <ele>419</ele>
        <time>2013-11-09T08:07:28.597Z</time>
      </trkpt>
      <trkpt lat="47.30683" lon="4.95408">
        <ele>419</ele>
        <time>2013-11-09T08:07:31.555Z</time>
      </trkpt>
      <trkpt lat="47.30675" lon="4.95403">
        <ele>419</ele>
        <time>2013-11-09T08:07:34.529Z</time>
      </trkpt>
      <trkpt lat="47.30666" lon="4.95402">
        <ele>420</ele>
        <time>2013-11-09T08:07:37.524Z</time>
      </trkpt>
      <trkpt lat="47.3066" lon="4.95399">
        <ele>420</ele>
        <time>2013-11-09T08:07:40.528Z</time>
      </trkpt>
      <trkpt lat="47.30654" lon="4.95394">
        <ele>420</ele>
        <time>2013-11-09T08:07:43.525Z</time>
      </trkpt>
      <trkpt lat="47.30651" lon="4.95391">
        <ele>421</ele>
        <time>2013-11-09T08:07:45.528Z</time>
      </trkpt>
      <trkpt lat="47.30647" lon="4.95384">
        <ele>421</ele>
        <time>2013-11-09T08:07:48.520Z</time>
      </trkpt>
      <trkpt lat="47.30641" lon="4.95376">
        <ele>421</ele>
        <time>2013-11-09T08:07:52.522Z</time>
      </trkpt>
      <trkpt lat="47.30639" lon="4.95371">
        <ele>421</ele>
        <time>2013-11-09T08:07:54.530Z</time>
      </trkpt>
      <trkpt lat="47.30638" lon="4.95365">
        <ele>421</ele>
        <time>2013-11-09T08:07:57.522Z</time>
      </trkpt>
      <trkpt lat="47.30638" lon="4.95358">
        <ele>421</ele>
        <time>2013-11-09T08:07:59.522Z</time>
      </trkpt>
      <trkpt lat="47.30638" lon="4.95351">
        <ele>422</ele>
        <time>2013-11-09T08:08:01.550Z</time>
      </trkpt>
      <trkpt lat="47.30638" lon="4.95345">
        <ele>422</ele>
        <time>2013-11-09T08:08:04.545Z</time>
      </trkpt>
      <trkpt lat="47.30634" lon="4.95334">
        <ele>422</ele>
        <time>2013-11-09T08:08:10.524Z</time>
      </trkpt>
      <trkpt lat="47.30632" lon="4.95332">
        <ele>424</ele>
        <time>2013-11-09T08:08:12.542Z</time>
      </trkpt>
      <trkpt lat="47.30629" lon="4.95326">
        <ele>424</ele>
        <time>2013-11-09T08:08:16.551Z</time>
      </trkpt>
      <trkpt lat="47.30626" lon="4.9532">
        <ele>424</ele>
        <time>2013-11-09T08:08:19.564Z</time>
      </trkpt>
      <trkpt lat="47.30619" lon="4.95313">
        <ele>425</ele>
        <time>2013-11-09T08:08:22.554Z</time>
      </trkpt>
      <trkpt lat="47.30615" lon="4.95309">
        <ele>425</ele>
        <time>2013-11-09T08:08:24.557Z</time>
      </trkpt>
      <trkpt lat="47.3061" lon="4.95302">
        <ele>425</ele>
        <time>2013-11-09T08:08:27.555Z</time>
      </trkpt>
      <trkpt lat="47.30607" lon="4.95299">
        <ele>425</ele>
        <time>2013-11-09T08:08:29.555Z</time>
      </trkpt>
      <trkpt lat="47.306" lon="4.95294">
        <ele>425</ele>
        <time>2013-11-09T08:08:34.546Z</time>
      </trkpt>
      <trkpt lat="47.30597" lon="4.95292">
        <ele>425</ele>
        <time>2013-11-09T08:08:37.551Z</time>
      </trkpt>
      <trkpt lat="47.30591" lon="4.95287">
        <ele>425</ele>
        <time>2013-11-09T08:08:41.569Z</time>
      </trkpt>
      <trkpt lat="47.30586" lon="4.9528">
        <ele>425</ele>
        <time>2013-11-09T08:08:44.579Z</time>
      </trkpt>
      <trkpt lat="47.30582" lon="4.95273">
        <ele>425</ele>
        <time>2013-11-09T08:08:47.555Z</time>
      </trkpt>
      <trkpt lat="47.30579" lon="4.95269">
        <ele>425</ele>
        <time>2013-11-09T08:08:49.562Z</time>
      </trkpt>
      <trkpt lat="47.30574" lon="4.95267">
        <ele>425</ele>
        <time>2013-11-09T08:08:52.524Z</time>
      </trkpt>
      <trkpt lat="47.30571" lon="4.95265">
        <ele>425</ele>
        <time>2013-11-09T08:08:54.553Z</time>
      </trkpt>
      <trkpt lat="47.30562" lon="4.95262">
        <ele>425</ele>
        <time>2013-11-09T08:08:59.577Z</time>
      </trkpt>
      <trkpt lat="47.30557" lon="4.95259">
        <ele>425</ele>
        <time>2013-11-09T08:09:02.536Z</time>
      </trkpt>
      <trkpt lat="47.30551" lon="4.95255">
        <ele>425</ele>
        <time>2013-11-09T08:09:06.551Z</time>
      </trkpt>
      <trkpt lat="47.30548" lon="4.95254">
        <ele>425</ele>
        <time>2013-11-09T08:09:08.557Z</time>
      </trkpt>
      <trkpt lat="47.30542" lon="4.9525">
        <ele>426</ele>
        <time>2013-11-09T08:09:12.541Z</time>
      </trkpt>
      <trkpt lat="47.30538" lon="4.95248">
        <ele>426</ele>
        <time>2013-11-09T08:09:14.557Z</time>
      </trkpt>
      <trkpt lat="47.3053" lon="4.95244">
        <ele>426</ele>
        <time>2013-11-09T08:09:19.565Z</time>
      </trkpt>
      <trkpt lat="47.30525" lon="4.95242">
        <ele>426</ele>
        <time>2013-11-09T08:09:22.526Z</time>
      </trkpt>
      <trkpt lat="47.30517" lon="4.95239">
        <ele>426</ele>
        <time>2013-11-09T08:09:28.518Z</time>
      </trkpt>
      <trkpt lat="47.30514" lon="4.95237">
        <ele>426</ele>
        <time>2013-11-09T08:09:30.518Z</time>
      </trkpt>
      <trkpt lat="47.30507" lon="4.95231">
        <ele>426</ele>
        <time>2013-11-09T08:09:35.530Z</time>
      </trkpt>
      <trkpt lat="47.30502" lon="4.95228">
        <ele>426</ele>
        <time>2013-11-09T08:09:38.512Z</time>
      </trkpt>
      <trkpt lat="47.30495" lon="4.95224">
        <ele>425</ele>
        <time>2013-11-09T08:09:43.499Z</time>
      </trkpt>
      <trkpt lat="47.30492" lon="4.95222">
        <ele>425</ele>
        <time>2013-11-09T08:09:45.543Z</time>
      </trkpt>
      <trkpt lat="47.30486" lon="4.95213">
        <ele>425</ele>
        <time>2013-11-09T08:09:50.512Z</time>
      </trkpt>
      <trkpt lat="47.30482" lon="4.95208">
        <ele>425</ele>
        <time>2013-11-09T08:09:53.505Z</time>
      </trkpt>
      <trkpt lat="47.30476" lon="4.95202">
        <ele>425</ele>
        <time>2013-11-09T08:09:57.510Z</time>
      </trkpt>
      <trkpt lat="47.30473" lon="4.95195">
        <ele>425</ele>
        <time>2013-11-09T08:10:00.530Z</time>
      </trkpt>
      <trkpt lat="47.30471" lon="4.9519">
        <ele>425</ele>
        <time>2013-11-09T08:10:02.571Z</time>
      </trkpt>
      <trkpt lat="47.30469" lon="4.95183">
        <ele>425</ele>
        <time>2013-11-09T08:10:05.529Z</time>
      </trkpt>
      <trkpt lat="47.30463" lon="4.95172">
        <ele>425</ele>
        <time>2013-11-09T08:10:11.523Z</time>
      </trkpt>
      <trkpt lat="47.30461" lon="4.95169">
        <ele>425</ele>
        <time>2013-11-09T08:10:13.529Z</time>
      </trkpt>
      <trkpt lat="47.30456" lon="4.95159">
        <ele>427</ele>
        <time>2013-11-09T08:10:18.545Z</time>
      </trkpt>
      <trkpt lat="47.30454" lon="4.95155">
        <ele>427</ele>
        <time>2013-11-09T08:10:20.566Z</time>
      </trkpt>
      <trkpt lat="47.30449" lon="4.95148">
        <ele>427</ele>
        <time>2013-11-09T08:10:25.546Z</time>
      </trkpt>
      <trkpt lat="47.30445" lon="4.95144">
        <ele>427</ele>
        <time>2013-11-09T08:10:28.540Z</time>
      </trkpt>
      <trkpt lat="47.30438" lon="4.95136">
        <ele>427</ele>
        <time>2013-11-09T08:10:34.523Z</time>
      </trkpt>
      <trkpt lat="47.30437" lon="4.95135">
        <ele>427</ele>
        <time>2013-11-09T08:10:36.524Z</time>
      </trkpt>
      <trkpt lat="47.30434" lon="4.9513">
        <ele>427</ele>
        <time>2013-11-09T08:10:44.550Z</time>
      </trkpt>
      <trkpt lat="47.30434" lon="4.95131">
        <ele>427</ele>
        <time>2013-11-09T08:10:47.545Z</time>
      </trkpt>
      <trkpt lat="47.30434" lon="4.95131">
        <ele>427</ele>
        <time>2013-11-09T08:13:38.558Z</time>
      </trkpt>
      <trkpt lat="47.30432" lon="4.95129">
        <ele>427</ele>
        <time>2013-11-09T08:13:41.551Z</time>
      </trkpt>
      <trkpt lat="47.30425" lon="4.95135">
        <ele>427</ele>
        <time>2013-11-09T08:13:50.574Z</time>
      </trkpt>
      <trkpt lat="47.30421" lon="4.95136">
        <ele>427</ele>
        <time>2013-11-09T08:13:53.567Z</time>
      </trkpt>
      <trkpt lat="47.30412" lon="4.95136">
        <ele>424</ele>
        <time>2013-11-09T08:13:58.561Z</time>
      </trkpt>
      <trkpt lat="47.30408" lon="4.95134">
        <ele>424</ele>
        <time>2013-11-09T08:14:01.563Z</time>
      </trkpt>
      <trkpt lat="47.30402" lon="4.95128">
        <ele>424</ele>
        <time>2013-11-09T08:14:06.546Z</time>
      </trkpt>
      <trkpt lat="47.304" lon="4.95125">
        <ele>424</ele>
        <time>2013-11-09T08:14:08.570Z</time>
      </trkpt>
      <trkpt lat="47.30395" lon="4.95118">
        <ele>424</ele>
        <time>2013-11-09T08:14:13.564Z</time>
      </trkpt>
      <trkpt lat="47.30393" lon="4.95115">
        <ele>424</ele>
        <time>2013-11-09T08:14:15.564Z</time>
      </trkpt>
      <trkpt lat="47.30388" lon="4.95108">
        <ele>425</ele>
        <time>2013-11-09T08:14:23.575Z</time>
      </trkpt>
      <trkpt lat="47.30385" lon="4.95104">
        <ele>425</ele>
        <time>2013-11-09T08:14:26.568Z</time>
      </trkpt>
      <trkpt lat="47.30379" lon="4.95096">
        <ele>425</ele>
        <time>2013-11-09T08:14:31.563Z</time>
      </trkpt>
      <trkpt lat="47.30376" lon="4.9509">
        <ele>425</ele>
        <time>2013-11-09T08:14:34.549Z</time>
      </trkpt>
      <trkpt lat="47.30373" lon="4.95083">
        <ele>425</ele>
        <time>2013-11-09T08:14:38.573Z</time>
      </trkpt>
      <trkpt lat="47.30371" lon="4.95078">
        <ele>427</ele>
        <time>2013-11-09T08:14:41.560Z</time>
      </trkpt>
      <trkpt lat="47.30367" lon="4.95071">
        <ele>427</ele>
        <time>2013-11-09T08:14:45.562Z</time>
      </trkpt>
      <trkpt lat="47.30365" lon="4.95068">
        <ele>427</ele>
        <time>2013-11-09T08:14:48.573Z</time>
      </trkpt>
      <trkpt lat="47.30357" lon="4.95068">
        <ele>426</ele>
        <time>2013-11-09T08:14:55.573Z</time>
      </trkpt>
      <trkpt lat="47.30355" lon="4.95069">
        <ele>426</ele>
        <time>2013-11-09T08:14:57.594Z</time>
      </trkpt>
      <trkpt lat="47.30349" lon="4.95077">
        <ele>426</ele>
        <time>2013-11-09T08:15:05.563Z</time>
      </trkpt>
      <trkpt lat="47.30347" lon="4.95079">
        <ele>426</ele>
        <time>2013-11-09T08:15:08.579Z</time>
      </trkpt>
      <trkpt lat="47.30343" lon="4.95085">
        <ele>424</ele>
        <time>2013-11-09T08:15:13.591Z</time>
      </trkpt>
      <trkpt lat="47.3034" lon="4.95089">
        <ele>424</ele>
        <time>2013-11-09T08:15:16.575Z</time>
      </trkpt>
      <trkpt lat="47.30336" lon="4.95095">
        <ele>424</ele>
        <time>2013-11-09T08:15:22.560Z</time>
      </trkpt>
      <trkpt lat="47.30333" lon="4.95097">
        <ele>420</ele>
        <time>2013-11-09T08:15:25.549Z</time>
      </trkpt>
      <trkpt lat="47.30326" lon="4.95098">
        <ele>420</ele>
        <time>2013-11-09T08:15:30.551Z</time>
      </trkpt>
      <trkpt lat="47.30323" lon="4.95097">
        <ele>420</ele>
        <time>2013-11-09T08:15:32.569Z</time>
      </trkpt>
      <trkpt lat="47.30318" lon="4.9509">
        <ele>420</ele>
        <time>2013-11-09T08:15:38.571Z</time>
      </trkpt>
      <trkpt lat="47.30316" lon="4.95088">
        <ele>419</ele>
        <time>2013-11-09T08:15:41.549Z</time>
      </trkpt>
      <trkpt lat="47.30309" lon="4.95083">
        <ele>421</ele>
        <time>2013-11-09T08:15:48.560Z</time>
      </trkpt>
      <trkpt lat="47.30307" lon="4.95082">
        <ele>421</ele>
        <time>2013-11-09T08:15:50.577Z</time>
      </trkpt>
      <trkpt lat="47.303" lon="4.95076">
        <ele>420</ele>
        <time>2013-11-09T08:15:58.568Z</time>
      </trkpt>
      <trkpt lat="47.30299" lon="4.95074">
        <ele>420</ele>
        <time>2013-11-09T08:16:01.558Z</time>
      </trkpt>
      <trkpt lat="47.30294" lon="4.95065">
        <ele>420</ele>
        <time>2013-11-09T08:16:09.563Z</time>
      </trkpt>
      <trkpt lat="47.30293" lon="4.95063">
        <ele>420</ele>
        <time>2013-11-09T08:16:11.566Z</time>
      </trkpt>
      <trkpt lat="47.30285" lon="4.95058">
        <ele>419</ele>
        <time>2013-11-09T08:16:19.561Z</time>
      </trkpt>
      <trkpt lat="47.30282" lon="4.95056">
        <ele>419</ele>
        <time>2013-11-09T08:16:22.552Z</time>
      </trkpt>
      <trkpt lat="47.30275" lon="4.95051">
        <ele>418</ele>
        <time>2013-11-09T08:16:30.544Z</time>
      </trkpt>
      <trkpt lat="47.30273" lon="4.9505">
        <ele>418</ele>
        <time>2013-11-09T08:16:32.553Z</time>
      </trkpt>
      <trkpt lat="47.30268" lon="4.95045">
        <ele>418</ele>
        <time>2013-11-09T08:16:38.554Z</time>
      </trkpt>
      <trkpt lat="47.30264" lon="4.95041">
        <ele>418</ele>
        <time>2013-11-09T08:16:41.550Z</time>
      </trkpt>
      <trkpt lat="47.3026" lon="4.95036">
        <ele>418</ele>
        <time>2013-11-09T08:16:44.571Z</time>
      </trkpt>
      <trkpt lat="47.30257" lon="4.9503">
        <ele>418</ele>
        <time>2013-11-09T08:16:47.571Z</time>
      </trkpt>
      <trkpt lat="47.30255" lon="4.95018">
        <ele>418</ele>
        <time>2013-11-09T08:16:53.558Z</time>
      </trkpt>
      <trkpt lat="47.30254" lon="4.95015">
        <ele>417</ele>
        <time>2013-11-09T08:16:55.559Z</time>
      </trkpt>
      <trkpt lat="47.30248" lon="4.95008">
        <ele>414</ele>
        <time>2013-11-09T08:17:07.554Z</time>
      </trkpt>
      <trkpt lat="47.30246" lon="4.95006">
        <ele>414</ele>
        <time>2013-11-09T08:17:09.555Z</time>
      </trkpt>
      <trkpt lat="47.3024" lon="4.95">
        <ele>415</ele>
        <time>2013-11-09T08:17:14.555Z</time>
      </trkpt>
      <trkpt lat="47.30239" lon="4.94998">
        <ele>414</ele>
        <time>2013-11-09T08:17:16.564Z</time>
      </trkpt>
      <trkpt lat="47.30233" lon="4.94993">
        <ele>414</ele>
        <time>2013-11-09T08:17:21.567Z</time>
      </trkpt>
      <trkpt lat="47.3023" lon="4.94992">
        <ele>413</ele>
        <time>2013-11-09T08:17:23.576Z</time>
      </trkpt>
      <trkpt lat="47.30224" lon="4.94984">
        <ele>413</ele>
        <time>2013-11-09T08:17:31.552Z</time>
      </trkpt>
      <trkpt lat="47.30222" lon="4.9498">
        <ele>412</ele>
        <time>2013-11-09T08:17:34.168Z</time>
      </trkpt>
      <trkpt lat="47.30218" lon="4.94975">
        <ele>412</ele>
        <time>2013-11-09T08:17:38.230Z</time>
      </trkpt>
      <trkpt lat="47.30211" lon="4.94958">
        <ele>412</ele>
        <time>2013-11-09T08:17:41.207Z</time>
      </trkpt>
      <trkpt lat="47.30204" lon="4.94945">
        <ele>412</ele>
        <time>2013-11-09T08:17:43.214Z</time>
      </trkpt>
      <trkpt lat="47.30197" lon="4.94938">
        <ele>411</ele>
        <time>2013-11-09T08:17:47.236Z</time>
      </trkpt>
      <trkpt lat="47.30194" lon="4.94937">
        <ele>411</ele>
        <time>2013-11-09T08:17:49.241Z</time>
      </trkpt>
      <trkpt lat="47.30187" lon="4.94934">
        <ele>411</ele>
        <time>2013-11-09T08:17:53.248Z</time>
      </trkpt>
      <trkpt lat="47.30185" lon="4.94932">
        <ele>410</ele>
        <time>2013-11-09T08:17:55.249Z</time>
      </trkpt>
      <trkpt lat="47.30179" lon="4.94929">
        <ele>410</ele>
        <time>2013-11-09T08:17:59.252Z</time>
      </trkpt>
      <trkpt lat="47.30176" lon="4.94926">
        <ele>410</ele>
        <time>2013-11-09T08:18:01.260Z</time>
      </trkpt>
      <trkpt lat="47.3017" lon="4.9492">
        <ele>409</ele>
        <time>2013-11-09T08:18:06.251Z</time>
      </trkpt>
      <trkpt lat="47.30167" lon="4.94917">
        <ele>408</ele>
        <time>2013-11-09T08:18:08.263Z</time>
      </trkpt>
      <trkpt lat="47.30161" lon="4.94909">
        <ele>408</ele>
        <time>2013-11-09T08:18:13.248Z</time>
      </trkpt>
      <trkpt lat="47.30159" lon="4.94908">
        <ele>409</ele>
        <time>2013-11-09T08:18:15.257Z</time>
      </trkpt>
      <trkpt lat="47.30152" lon="4.94904">
        <ele>409</ele>
        <time>2013-11-09T08:18:21.282Z</time>
      </trkpt>
      <trkpt lat="47.30149" lon="4.94903">
        <ele>409</ele>
        <time>2013-11-09T08:18:24.247Z</time>
      </trkpt>
      <trkpt lat="47.30143" lon="4.94905">
        <ele>409</ele>
        <time>2013-11-09T08:18:31.268Z</time>
      </trkpt>
      <trkpt lat="47.30139" lon="4.94906">
        <ele>409</ele>
        <time>2013-11-09T08:18:34.244Z</time>
      </trkpt>
      <trkpt lat="47.30134" lon="4.94907">
        <ele>409</ele>
        <time>2013-11-09T08:18:38.287Z</time>
      </trkpt>
      <trkpt lat="47.3013" lon="4.94909">
        <ele>409</ele>
        <time>2013-11-09T08:18:41.249Z</time>
      </trkpt>
      <trkpt lat="47.30126" lon="4.94911">
        <ele>409</ele>
        <time>2013-11-09T08:18:45.256Z</time>
      </trkpt>
      <trkpt lat="47.30122" lon="4.94914">
        <ele>409</ele>
        <time>2013-11-09T08:18:48.262Z</time>
      </trkpt>
      <trkpt lat="47.30115" lon="4.94917">
        <ele>408</ele>
        <time>2013-11-09T08:18:53.273Z</time>
      </trkpt>
      <trkpt lat="47.30113" lon="4.94917">
        <ele>408</ele>
        <time>2013-11-09T08:18:55.277Z</time>
      </trkpt>
      <trkpt lat="47.30106" lon="4.94911">
        <ele>408</ele>
        <time>2013-11-09T08:19:05.260Z</time>
      </trkpt>
      <trkpt lat="47.30106" lon="4.94911">
        <ele>408</ele>
        <time>2013-11-09T08:19:07.262Z</time>
      </trkpt>
      <trkpt lat="47.30106" lon="4.94912">
        <ele>408</ele>
        <time>2013-11-09T08:19:13.277Z</time>
      </trkpt>
      <trkpt lat="47.30102" lon="4.94909">
        <ele>408</ele>
        <time>2013-11-09T08:19:16.265Z</time>
      </trkpt>
      <trkpt lat="47.30101" lon="4.94909">
        <ele>408</ele>
        <time>2013-11-09T08:19:19.254Z</time>
      </trkpt>
      <trkpt lat="47.30102" lon="4.94909">
        <ele>408</ele>
        <time>2013-11-09T08:19:21.256Z</time>
      </trkpt>
      <trkpt lat="47.30102" lon="4.94909">
        <ele>408</ele>
        <time>2013-11-09T08:19:28.272Z</time>
      </trkpt>
      <trkpt lat="47.30102" lon="4.94905">
        <ele>408</ele>
        <time>2013-11-09T08:19:31.267Z</time>
      </trkpt>
      <trkpt lat="47.30103" lon="4.949">
        <ele>408</ele>
        <time>2013-11-09T08:19:34.247Z</time>
      </trkpt>
      <trkpt lat="47.30103" lon="4.94901">
        <ele>408</ele>
        <time>2013-11-09T08:19:37.233Z</time>
      </trkpt>
      <trkpt lat="47.30103" lon="4.94901">
        <ele>408</ele>
        <time>2013-11-09T08:19:42.263Z</time>
      </trkpt>
      <trkpt lat="47.30104" lon="4.94896">
        <ele>408</ele>
        <time>2013-11-09T08:19:45.247Z</time>
      </trkpt>
      <trkpt lat="47.30104" lon="4.94895">
        <ele>408</ele>
        <time>2013-11-09T08:19:47.257Z</time>
      </trkpt>
      <trkpt lat="47.30104" lon="4.94896">
        <ele>408</ele>
        <time>2013-11-09T08:19:49.259Z</time>
      </trkpt>
      <trkpt lat="47.30104" lon="4.94896">
        <ele>408</ele>
        <time>2013-11-09T08:20:14.256Z</time>
      </trkpt>
      <trkpt lat="47.30099" lon="4.94899">
        <ele>408</ele>
        <time>2013-11-09T08:20:17.256Z</time>
      </trkpt>
      <trkpt lat="47.301" lon="4.94911">
        <ele>408</ele>
        <time>2013-11-09T08:20:27.261Z</time>
      </trkpt>
      <trkpt lat="47.301" lon="4.94915">
        <ele>408</ele>
        <time>2013-11-09T08:20:30.245Z</time>
      </trkpt>
      <trkpt lat="47.30103" lon="4.94924">
        <ele>407</ele>
        <time>2013-11-09T08:20:37.246Z</time>
      </trkpt>
      <trkpt lat="47.30104" lon="4.94927">
        <ele>407</ele>
        <time>2013-11-09T08:20:39.248Z</time>
      </trkpt>
      <trkpt lat="47.30109" lon="4.94938">
        <ele>407</ele>
        <time>2013-11-09T08:20:47.310Z</time>
      </trkpt>
      <trkpt lat="47.30112" lon="4.9494">
        <ele>407</ele>
        <time>2013-11-09T08:20:50.348Z</time>
      </trkpt>
      <trkpt lat="47.30117" lon="4.94946">
        <ele>407</ele>
        <time>2013-11-09T08:20:55.332Z</time>
      </trkpt>
      <trkpt lat="47.30119" lon="4.9495">
        <ele>407</ele>
        <time>2013-11-09T08:20:58.280Z</time>
      </trkpt>
      <trkpt lat="47.30125" lon="4.94956">
        <ele>407</ele>
        <time>2013-11-09T08:21:04.269Z</time>
      </trkpt>
      <trkpt lat="47.30127" lon="4.94959">
        <ele>406</ele>
        <time>2013-11-09T08:21:07.260Z</time>
      </trkpt>
      <trkpt lat="47.30134" lon="4.94964">
        <ele>406</ele>
        <time>2013-11-09T08:21:15.285Z</time>
      </trkpt>
      <trkpt lat="47.30137" lon="4.94966">
        <ele>406</ele>
        <time>2013-11-09T08:21:18.255Z</time>
      </trkpt>
      <trkpt lat="47.30145" lon="4.94971">
        <ele>406</ele>
        <time>2013-11-09T08:21:25.265Z</time>
      </trkpt>
      <trkpt lat="47.30148" lon="4.94974">
        <ele>406</ele>
        <time>2013-11-09T08:21:28.271Z</time>
      </trkpt>
      <trkpt lat="47.30156" lon="4.9498">
        <ele>406</ele>
        <time>2013-11-09T08:21:35.252Z</time>
      </trkpt>
      <trkpt lat="47.30159" lon="4.94983">
        <ele>405</ele>
        <time>2013-11-09T08:21:38.226Z</time>
      </trkpt>
      <trkpt lat="47.30163" lon="4.94994">
        <ele>405</ele>
        <time>2013-11-09T08:21:47.262Z</time>
      </trkpt>
      <trkpt lat="47.30165" lon="4.94999">
        <ele>404</ele>
        <time>2013-11-09T08:21:50.273Z</time>
      </trkpt>
      <trkpt lat="47.3017" lon="4.95007">
        <ele>405</ele>
        <time>2013-11-09T08:21:55.270Z</time>
      </trkpt>
      <trkpt lat="47.30173" lon="4.95011">
        <ele>406</ele>
        <time>2013-11-09T08:21:58.245Z</time>
      </trkpt>
      <trkpt lat="47.30175" lon="4.9502">
        <ele>406</ele>
        <time>2013-11-09T08:22:04.226Z</time>
      </trkpt>
      <trkpt lat="47.30177" lon="4.95024">
        <ele>407</ele>
        <time>2013-11-09T08:22:06.229Z</time>
      </trkpt>
      <trkpt lat="47.3018" lon="4.95033">
        <ele>407</ele>
        <time>2013-11-09T08:22:11.258Z</time>
      </trkpt>
      <trkpt lat="47.30182" lon="4.9504">
        <ele>407</ele>
        <time>2013-11-09T08:22:14.248Z</time>
      </trkpt>
      <trkpt lat="47.30185" lon="4.95051">
        <ele>407</ele>
        <time>2013-11-09T08:22:21.260Z</time>
      </trkpt>
      <trkpt lat="47.30185" lon="4.95055">
        <ele>407</ele>
        <time>2013-11-09T08:22:24.248Z</time>
      </trkpt>
      <trkpt lat="47.30184" lon="4.95067">
        <ele>406</ele>
        <time>2013-11-09T08:22:31.235Z</time>
      </trkpt>
      <trkpt lat="47.30184" lon="4.9507">
        <ele>406</ele>
        <time>2013-11-09T08:22:33.238Z</time>
      </trkpt>
      <trkpt lat="47.30186" lon="4.9508">
        <ele>406</ele>
        <time>2013-11-09T08:22:40.248Z</time>
      </trkpt>
      <trkpt lat="47.30186" lon="4.95084">
        <ele>403</ele>
        <time>2013-11-09T08:22:42.256Z</time>
      </trkpt>
      <trkpt lat="47.30187" lon="4.95092">
        <ele>404</ele>
        <time>2013-11-09T08:22:47.241Z</time>
      </trkpt>
      <trkpt lat="47.30189" lon="4.95097">
        <ele>404</ele>
        <time>2013-11-09T08:22:49.258Z</time>
      </trkpt>
      <trkpt lat="47.3019" lon="4.95105">
        <ele>404</ele>
        <time>2013-11-09T08:22:52.256Z</time>
      </trkpt>
      <trkpt lat="47.30192" lon="4.95112">
        <ele>404</ele>
        <time>2013-11-09T08:22:55.249Z</time>
      </trkpt>
      <trkpt lat="47.30192" lon="4.95121">
        <ele>403</ele>
        <time>2013-11-09T08:22:59.269Z</time>
      </trkpt>
      <trkpt lat="47.30192" lon="4.95128">
        <ele>403</ele>
        <time>2013-11-09T08:23:02.225Z</time>
      </trkpt>
      <trkpt lat="47.30193" lon="4.95139">
        <ele>403</ele>
        <time>2013-11-09T08:23:07.230Z</time>
      </trkpt>
      <trkpt lat="47.30193" lon="4.95144">
        <ele>403</ele>
        <time>2013-11-09T08:23:09.237Z</time>
      </trkpt>
      <trkpt lat="47.30193" lon="4.95151">
        <ele>402</ele>
        <time>2013-11-09T08:23:11.233Z</time>
      </trkpt>
      <trkpt lat="47.30194" lon="4.95157">
        <ele>402</ele>
        <time>2013-11-09T08:23:14.242Z</time>
      </trkpt>
      <trkpt lat="47.30195" lon="4.95164">
        <ele>402</ele>
        <time>2013-11-09T08:23:17.211Z</time>
      </trkpt>
      <trkpt lat="47.30197" lon="4.95173">
        <ele>400</ele>
        <time>2013-11-09T08:23:20.226Z</time>
      </trkpt>
      <trkpt lat="47.30198" lon="4.95187">
        <ele>400</ele>
        <time>2013-11-09T08:23:23.222Z</time>
      </trkpt>
      <trkpt lat="47.30199" lon="4.95195">
        <ele>400</ele>
        <time>2013-11-09T08:23:25.243Z</time>
      </trkpt>
      <trkpt lat="47.30199" lon="4.95202">
        <ele>400</ele>
        <time>2013-11-09T08:23:27.252Z</time>
      </trkpt>
      <trkpt lat="47.30201" lon="4.95212">
        <ele>400</ele>
        <time>2013-11-09T08:23:30.223Z</time>
      </trkpt>
      <trkpt lat="47.30202" lon="4.95218">
        <ele>400</ele>
        <time>2013-11-09T08:23:32.230Z</time>
      </trkpt>
      <trkpt lat="47.30205" lon="4.95229">
        <ele>400</ele>
        <time>2013-11-09T08:23:36.237Z</time>
      </trkpt>
      <trkpt lat="47.30207" lon="4.95234">
        <ele>399</ele>
        <time>2013-11-09T08:23:38.248Z</time>
      </trkpt>
      <trkpt lat="47.30208" lon="4.95244">
        <ele>399</ele>
        <time>2013-11-09T08:23:43.243Z</time>
      </trkpt>
      <trkpt lat="47.30209" lon="4.95248">
        <ele>399</ele>
        <time>2013-11-09T08:23:45.242Z</time>
      </trkpt>
      <trkpt lat="47.30211" lon="4.95257">
        <ele>398</ele>
        <time>2013-11-09T08:23:49.246Z</time>
      </trkpt>
      <trkpt lat="47.30212" lon="4.95264">
        <ele>398</ele>
        <time>2013-11-09T08:23:52.251Z</time>
      </trkpt>
      <trkpt lat="47.30212" lon="4.95276">
        <ele>398</ele>
        <time>2013-11-09T08:23:57.254Z</time>
      </trkpt>
      <trkpt lat="47.30213" lon="4.9528">
        <ele>398</ele>
        <time>2013-11-09T08:23:59.254Z</time>
      </trkpt>
      <trkpt lat="47.30215" lon="4.95292">
        <ele>397</ele>
        <time>2013-11-09T08:24:05.230Z</time>
      </trkpt>
      <trkpt lat="47.30216" lon="4.95295">
        <ele>397</ele>
        <time>2013-11-09T08:24:07.232Z</time>
      </trkpt>
      <trkpt lat="47.30219" lon="4.95307">
        <ele>397</ele>
        <time>2013-11-09T08:24:13.223Z</time>
      </trkpt>
      <trkpt lat="47.3022" lon="4.95311">
        <ele>397</ele>
        <time>2013-11-09T08:24:15.318Z</time>
      </trkpt>
      <trkpt lat="47.30224" lon="4.9532">
        <ele>396</ele>
        <time>2013-11-09T08:24:20.347Z</time>
      </trkpt>
      <trkpt lat="47.30227" lon="4.95326">
        <ele>396</ele>
        <time>2013-11-09T08:24:23.253Z</time>
      </trkpt>
      <trkpt lat="47.30231" lon="4.95331">
        <ele>395</ele>
        <time>2013-11-09T08:24:26.261Z</time>
      </trkpt>
      <trkpt lat="47.30235" lon="4.95337">
        <ele>394</ele>
        <time>2013-11-09T08:24:29.259Z</time>
      </trkpt>
      <trkpt lat="47.30238" lon="4.95343">
        <ele>394</ele>
        <time>2013-11-09T08:24:32.243Z</time>
      </trkpt>
      <trkpt lat="47.30242" lon="4.95348">
        <ele>394</ele>
        <time>2013-11-09T08:24:35.254Z</time>
      </trkpt>
      <trkpt lat="47.30245" lon="4.95355">
        <ele>395</ele>
        <time>2013-11-09T08:24:38.241Z</time>
      </trkpt>
      <trkpt lat="47.30248" lon="4.95363">
        <ele>395</ele>
        <time>2013-11-09T08:24:41.234Z</time>
      </trkpt>
      <trkpt lat="47.3025" lon="4.95369">
        <ele>394</ele>
        <time>2013-11-09T08:24:43.242Z</time>
      </trkpt>
      <trkpt lat="47.30253" lon="4.95376">
        <ele>394</ele>
        <time>2013-11-09T08:24:45.248Z</time>
      </trkpt>
      <trkpt lat="47.30254" lon="4.95382">
        <ele>393</ele>
        <time>2013-11-09T08:24:47.283Z</time>
      </trkpt>
      <trkpt lat="47.30257" lon="4.95391">
        <ele>393</ele>
        <time>2013-11-09T08:24:50.261Z</time>
      </trkpt>
      <trkpt lat="47.30261" lon="4.95396">
        <ele>393</ele>
        <time>2013-11-09T08:24:53.254Z</time>
      </trkpt>
      <trkpt lat="47.30264" lon="4.95402">
        <ele>393</ele>
        <time>2013-11-09T08:24:56.257Z</time>
      </trkpt>
      <trkpt lat="47.30267" lon="4.9541">
        <ele>393</ele>
        <time>2013-11-09T08:24:59.247Z</time>
      </trkpt>
      <trkpt lat="47.30268" lon="4.95414">
        <ele>393</ele>
        <time>2013-11-09T08:25:01.250Z</time>
      </trkpt>
      <trkpt lat="47.3027" lon="4.95427">
        <ele>391</ele>
        <time>2013-11-09T08:25:11.230Z</time>
      </trkpt>
      <trkpt lat="47.3027" lon="4.95426">
        <ele>391</ele>
        <time>2013-11-09T08:25:13.237Z</time>
      </trkpt>
      <trkpt lat="47.3027" lon="4.9543">
        <ele>391</ele>
        <time>2013-11-09T08:25:15.252Z</time>
      </trkpt>
      <trkpt lat="47.3027" lon="4.9544">
        <ele>390</ele>
        <time>2013-11-09T08:25:20.252Z</time>
      </trkpt>
      <trkpt lat="47.3027" lon="4.95446">
        <ele>390</ele>
        <time>2013-11-09T08:25:23.228Z</time>
      </trkpt>
      <trkpt lat="47.30273" lon="4.95453">
        <ele>390</ele>
        <time>2013-11-09T08:25:27.236Z</time>
      </trkpt>
      <trkpt lat="47.30275" lon="4.95458">
        <ele>390</ele>
        <time>2013-11-09T08:25:30.219Z</time>
      </trkpt>
      <trkpt lat="47.30278" lon="4.95468">
        <ele>390</ele>
        <time>2013-11-09T08:25:35.239Z</time>
      </trkpt>
      <trkpt lat="47.30279" lon="4.95474">
        <ele>390</ele>
        <time>2013-11-09T08:25:38.241Z</time>
      </trkpt>
      <trkpt lat="47.30281" lon="4.95484">
        <ele>390</ele>
        <time>2013-11-09T08:25:41.223Z</time>
      </trkpt>
      <trkpt lat="47.30283" lon="4.95492">
        <ele>390</ele>
        <time>2013-11-09T08:25:43.236Z</time>
      </trkpt>
      <trkpt lat="47.30284" lon="4.95503">
        <ele>388</ele>
        <time>2013-11-09T08:25:45.250Z</time>
      </trkpt>
      <trkpt lat="47.30285" lon="4.95512">
        <ele>388</ele>
        <time>2013-11-09T08:25:47.281Z</time>
      </trkpt>
      <trkpt lat="47.30286" lon="4.95521">
        <ele>388</ele>
        <time>2013-11-09T08:25:50.255Z</time>
      </trkpt>
      <trkpt lat="47.30286" lon="4.9553">
        <ele>388</ele>
        <time>2013-11-09T08:25:53.248Z</time>
      </trkpt>
      <trkpt lat="47.30291" lon="4.95538">
        <ele>388</ele>
        <time>2013-11-09T08:25:58.247Z</time>
      </trkpt>
      <trkpt lat="47.30295" lon="4.95545">
        <ele>387</ele>
        <time>2013-11-09T08:26:01.237Z</time>
      </trkpt>
      <trkpt lat="47.30299" lon="4.95554">
        <ele>387</ele>
        <time>2013-11-09T08:26:06.223Z</time>
      </trkpt>
      <trkpt lat="47.30301" lon="4.95559">
        <ele>386</ele>
        <time>2013-11-09T08:26:09.225Z</time>
      </trkpt>
      <trkpt lat="47.30305" lon="4.95569">
        <ele>386</ele>
        <time>2013-11-09T08:26:15.252Z</time>
      </trkpt>
      <trkpt lat="47.30307" lon="4.95575">
        <ele>385</ele>
        <time>2013-11-09T08:26:18.240Z</time>
      </trkpt>
      <trkpt lat="47.30309" lon="4.95585">
        <ele>385</ele>
        <time>2013-11-09T08:26:23.250Z</time>
      </trkpt>
      <trkpt lat="47.30309" lon="4.95589">
        <ele>386</ele>
        <time>2013-11-09T08:26:25.250Z</time>
      </trkpt>
      <trkpt lat="47.30311" lon="4.95602">
        <ele>386</ele>
        <time>2013-11-09T08:26:32.255Z</time>
      </trkpt>
      <trkpt lat="47.30313" lon="4.95611">
        <ele>386</ele>
        <time>2013-11-09T08:26:35.239Z</time>
      </trkpt>
      <trkpt lat="47.30315" lon="4.95618">
        <ele>386</ele>
        <time>2013-11-09T08:26:38.268Z</time>
      </trkpt>
      <trkpt lat="47.30318" lon="4.95625">
        <ele>387</ele>
        <time>2013-11-09T08:26:41.250Z</time>
      </trkpt>
      <trkpt lat="47.30322" lon="4.95636">
        <ele>386</ele>
        <time>2013-11-09T08:26:46.257Z</time>
      </trkpt>
      <trkpt lat="47.30325" lon="4.95641">
        <ele>386</ele>
        <time>2013-11-09T08:26:49.268Z</time>
      </trkpt>
      <trkpt lat="47.30329" lon="4.95648">
        <ele>386</ele>
        <time>2013-11-09T08:26:54.250Z</time>
      </trkpt>
      <trkpt lat="47.30334" lon="4.95652">
        <ele>381</ele>
        <time>2013-11-09T08:26:56.270Z</time>
      </trkpt>
      <trkpt lat="47.3034" lon="4.95658">
        <ele>382</ele>
        <time>2013-11-09T08:26:59.250Z</time>
      </trkpt>
      <trkpt lat="47.30346" lon="4.95663">
        <ele>381</ele>
        <time>2013-11-09T08:27:02.258Z</time>
      </trkpt>
      <trkpt lat="47.30351" lon="4.95667">
        <ele>382</ele>
        <time>2013-11-09T08:27:05.234Z</time>
      </trkpt>
      <trkpt lat="47.30354" lon="4.9567">
        <ele>382</ele>
        <time>2013-11-09T08:27:07.243Z</time>
      </trkpt>
      <trkpt lat="47.30362" lon="4.95674">
        <ele>381</ele>
        <time>2013-11-09T08:27:11.241Z</time>
      </trkpt>
      <trkpt lat="47.30366" lon="4.95675">
        <ele>381</ele>
        <time>2013-11-09T08:27:13.244Z</time>
      </trkpt>
      <trkpt lat="47.30372" lon="4.95679">
        <ele>381</ele>
        <time>2013-11-09T08:27:17.263Z</time>
      </trkpt>
      <trkpt lat="47.30377" lon="4.95684">
        <ele>381</ele>
        <time>2013-11-09T08:27:20.268Z</time>
      </trkpt>
      <trkpt lat="47.30383" lon="4.95688">
        <ele>380</ele>
        <time>2013-11-09T08:27:23.252Z</time>
      </trkpt>
      <trkpt lat="47.30388" lon="4.95691">
        <ele>380</ele>
        <time>2013-11-09T08:27:25.259Z</time>
      </trkpt>
      <trkpt lat="47.30394" lon="4.95695">
        <ele>380</ele>
        <time>2013-11-09T08:27:28.243Z</time>
      </trkpt>
      <trkpt lat="47.30398" lon="4.95697">
        <ele>380</ele>
        <time>2013-11-09T08:27:30.244Z</time>
      </trkpt>
      <trkpt lat="47.30405" lon="4.95702">
        <ele>380</ele>
        <time>2013-11-09T08:27:34.264Z</time>
      </trkpt>
      <trkpt lat="47.30408" lon="4.95705">
        <ele>380</ele>
        <time>2013-11-09T08:27:37.238Z</time>
      </trkpt>
      <trkpt lat="47.30415" lon="4.95708">
        <ele>379</ele>
        <time>2013-11-09T08:27:42.245Z</time>
      </trkpt>
      <trkpt lat="47.30419" lon="4.95709">
        <ele>376</ele>
        <time>2013-11-09T08:27:44.259Z</time>
      </trkpt>
      <trkpt lat="47.30422" lon="4.95711">
        <ele>376</ele>
        <time>2013-11-09T08:27:46.267Z</time>
      </trkpt>
      <trkpt lat="47.30428" lon="4.95713">
        <ele>376</ele>
        <time>2013-11-09T08:27:49.254Z</time>
      </trkpt>
      <trkpt lat="47.30433" lon="4.95717">
        <ele>376</ele>
        <time>2013-11-09T08:27:53.255Z</time>
      </trkpt>
      <trkpt lat="47.30437" lon="4.95719">
        <ele>376</ele>
        <time>2013-11-09T08:27:55.256Z</time>
      </trkpt>
      <trkpt lat="47.3044" lon="4.95722">
        <ele>376</ele>
        <time>2013-11-09T08:27:57.271Z</time>
      </trkpt>
      <trkpt lat="47.30446" lon="4.95726">
        <ele>376</ele>
        <time>2013-11-09T08:28:00.219Z</time>
      </trkpt>
      <trkpt lat="47.3045" lon="4.95727">
        <ele>376</ele>
        <time>2013-11-09T08:28:02.247Z</time>
      </trkpt>
      <trkpt lat="47.30455" lon="4.9573">
        <ele>376</ele>
        <time>2013-11-09T08:28:05.249Z</time>
      </trkpt>
      <trkpt lat="47.30463" lon="4.95733">
        <ele>375</ele>
        <time>2013-11-09T08:28:11.267Z</time>
      </trkpt>
      <trkpt lat="47.30467" lon="4.95734">
        <ele>375</ele>
        <time>2013-11-09T08:28:14.250Z</time>
      </trkpt>
      <trkpt lat="47.30474" lon="4.95737">
        <ele>374</ele>
        <time>2013-11-09T08:28:19.243Z</time>
      </trkpt>
      <trkpt lat="47.30477" lon="4.95739">
        <ele>374</ele>
        <time>2013-11-09T08:28:21.252Z</time>
      </trkpt>
      <trkpt lat="47.30484" lon="4.95742">
        <ele>373</ele>
        <time>2013-11-09T08:28:26.266Z</time>
      </trkpt>
      <trkpt lat="47.30488" lon="4.95746">
        <ele>372</ele>
        <time>2013-11-09T08:28:29.244Z</time>
      </trkpt>
      <trkpt lat="47.30494" lon="4.95753">
        <ele>371</ele>
        <time>2013-11-09T08:28:34.245Z</time>
      </trkpt>
      <trkpt lat="47.30497" lon="4.95756">
        <ele>371</ele>
        <time>2013-11-09T08:28:37.244Z</time>
      </trkpt>
      <trkpt lat="47.30503" lon="4.95764">
        <ele>371</ele>
        <time>2013-11-09T08:28:42.258Z</time>
      </trkpt>
      <trkpt lat="47.30507" lon="4.9577">
        <ele>371</ele>
        <time>2013-11-09T08:28:45.263Z</time>
      </trkpt>
      <trkpt lat="47.30512" lon="4.95778">
        <ele>371</ele>
        <time>2013-11-09T08:28:50.259Z</time>
      </trkpt>
      <trkpt lat="47.30515" lon="4.95781">
        <ele>372</ele>
        <time>2013-11-09T08:28:52.262Z</time>
      </trkpt>
      <trkpt lat="47.3052" lon="4.95787">
        <ele>372</ele>
        <time>2013-11-09T08:28:57.263Z</time>
      </trkpt>
      <trkpt lat="47.30524" lon="4.95793">
        <ele>372</ele>
        <time>2013-11-09T08:29:00.207Z</time>
      </trkpt>
      <trkpt lat="47.30528" lon="4.95797">
        <ele>372</ele>
        <time>2013-11-09T08:29:02.247Z</time>
      </trkpt>
      <trkpt lat="47.30532" lon="4.95802">
        <ele>372</ele>
        <time>2013-11-09T08:29:05.228Z</time>
      </trkpt>
      <trkpt lat="47.30537" lon="4.95807">
        <ele>372</ele>
        <time>2013-11-09T08:29:09.233Z</time>
      </trkpt>
      <trkpt lat="47.30539" lon="4.95811">
        <ele>372</ele>
        <time>2013-11-09T08:29:11.231Z</time>
      </trkpt>
      <trkpt lat="47.30543" lon="4.95817">
        <ele>371</ele>
        <time>2013-11-09T08:29:14.260Z</time>
      </trkpt>
      <trkpt lat="47.30547" lon="4.95823">
        <ele>371</ele>
        <time>2013-11-09T08:29:17.245Z</time>
      </trkpt>
      <trkpt lat="47.30549" lon="4.95828">
        <ele>370</ele>
        <time>2013-11-09T08:29:19.251Z</time>
      </trkpt>
      <trkpt lat="47.30552" lon="4.95834">
        <ele>372</ele>
        <time>2013-11-09T08:29:21.251Z</time>
      </trkpt>
      <trkpt lat="47.30556" lon="4.95841">
        <ele>371</ele>
        <time>2013-11-09T08:29:24.270Z</time>
      </trkpt>
      <trkpt lat="47.30561" lon="4.95846">
        <ele>371</ele>
        <time>2013-11-09T08:29:27.227Z</time>
      </trkpt>
      <trkpt lat="47.30565" lon="4.9585">
        <ele>371</ele>
        <time>2013-11-09T08:29:29.248Z</time>
      </trkpt>
      <trkpt lat="47.3057" lon="4.95858">
        <ele>371</ele>
        <time>2013-11-09T08:29:32.242Z</time>
      </trkpt>
      <trkpt lat="47.30573" lon="4.95865">
        <ele>371</ele>
        <time>2013-11-09T08:29:34.249Z</time>
      </trkpt>
      <trkpt lat="47.30579" lon="4.95875">
        <ele>372</ele>
        <time>2013-11-09T08:29:37.250Z</time>
      </trkpt>
      <trkpt lat="47.30584" lon="4.95883">
        <ele>369</ele>
        <time>2013-11-09T08:29:40.237Z</time>
      </trkpt>
      <trkpt lat="47.30587" lon="4.95887">
        <ele>369</ele>
        <time>2013-11-09T08:29:42.240Z</time>
      </trkpt>
      <trkpt lat="47.30592" lon="4.95896">
        <ele>369</ele>
        <time>2013-11-09T08:29:47.250Z</time>
      </trkpt>
      <trkpt lat="47.30594" lon="4.959">
        <ele>369</ele>
        <time>2013-11-09T08:29:49.253Z</time>
      </trkpt>
      <trkpt lat="47.30599" lon="4.95907">
        <ele>369</ele>
        <time>2013-11-09T08:29:52.250Z</time>
      </trkpt>
      <trkpt lat="47.30605" lon="4.95916">
        <ele>369</ele>
        <time>2013-11-09T08:29:55.248Z</time>
      </trkpt>
      <trkpt lat="47.30609" lon="4.95926">
        <ele>369</ele>
        <time>2013-11-09T08:30:02.241Z</time>
      </trkpt>
      <trkpt lat="47.30611" lon="4.9593">
        <ele>369</ele>
        <time>2013-11-09T08:30:05.259Z</time>
      </trkpt>
      <trkpt lat="47.30616" lon="4.95933">
        <ele>369</ele>
        <time>2013-11-09T08:30:08.228Z</time>
      </trkpt>
      <trkpt lat="47.3062" lon="4.95935">
        <ele>368</ele>
        <time>2013-11-09T08:30:10.253Z</time>
      </trkpt>
      <trkpt lat="47.30626" lon="4.9594">
        <ele>368</ele>
        <time>2013-11-09T08:30:15.250Z</time>
      </trkpt>
      <trkpt lat="47.3063" lon="4.95941">
        <ele>368</ele>
        <time>2013-11-09T08:30:17.254Z</time>
      </trkpt>
      <trkpt lat="47.30636" lon="4.95944">
        <ele>367</ele>
        <time>2013-11-09T08:30:22.249Z</time>
      </trkpt>
      <trkpt lat="47.30642" lon="4.95946">
        <ele>367</ele>
        <time>2013-11-09T08:30:25.263Z</time>
      </trkpt>
      <trkpt lat="47.30646" lon="4.95948">
        <ele>366</ele>
        <time>2013-11-09T08:30:28.246Z</time>
      </trkpt>
      <trkpt lat="47.3065" lon="4.95951">
        <ele>366</ele>
        <time>2013-11-09T08:30:31.230Z</time>
      </trkpt>
      <trkpt lat="47.30654" lon="4.95954">
        <ele>366</ele>
        <time>2013-11-09T08:30:33.250Z</time>
      </trkpt>
      <trkpt lat="47.30659" lon="4.95956">
        <ele>365</ele>
        <time>2013-11-09T08:30:36.238Z</time>
      </trkpt>
      <trkpt lat="47.30665" lon="4.9596">
        <ele>365</ele>
        <time>2013-11-09T08:30:40.241Z</time>
      </trkpt>
      <trkpt lat="47.30669" lon="4.95962">
        <ele>361</ele>
        <time>2013-11-09T08:30:42.242Z</time>
      </trkpt>
      <trkpt lat="47.30674" lon="4.95964">
        <ele>361</ele>
        <time>2013-11-09T08:30:44.244Z</time>
      </trkpt>
      <trkpt lat="47.30678" lon="4.95966">
        <ele>360</ele>
        <time>2013-11-09T08:30:46.252Z</time>
      </trkpt>
      <trkpt lat="47.30683" lon="4.9597">
        <ele>360</ele>
        <time>2013-11-09T08:30:49.268Z</time>
      </trkpt>
      <trkpt lat="47.30688" lon="4.95972">
        <ele>360</ele>
        <time>2013-11-09T08:30:52.254Z</time>
      </trkpt>
      <trkpt lat="47.30693" lon="4.95975">
        <ele>360</ele>
        <time>2013-11-09T08:30:55.255Z</time>
      </trkpt>
      <trkpt lat="47.30698" lon="4.95975">
        <ele>360</ele>
        <time>2013-11-09T08:30:58.244Z</time>
      </trkpt>
      <trkpt lat="47.30703" lon="4.95976">
        <ele>360</ele>
        <time>2013-11-09T08:31:01.239Z</time>
      </trkpt>
      <trkpt lat="47.3071" lon="4.95978">
        <ele>360</ele>
        <time>2013-11-09T08:31:04.232Z</time>
      </trkpt>
      <trkpt lat="47.30714" lon="4.9598">
        <ele>360</ele>
        <time>2013-11-09T08:31:06.245Z</time>
      </trkpt>
      <trkpt lat="47.30721" lon="4.95983">
        <ele>359</ele>
        <time>2013-11-09T08:31:09.239Z</time>
      </trkpt>
      <trkpt lat="47.30725" lon="4.95985">
        <ele>359</ele>
        <time>2013-11-09T08:31:11.234Z</time>
      </trkpt>
      <trkpt lat="47.3073" lon="4.95988">
        <ele>358</ele>
        <time>2013-11-09T08:31:13.240Z</time>
      </trkpt>
      <trkpt lat="47.30735" lon="4.9599">
        <ele>357</ele>
        <time>2013-11-09T08:31:15.253Z</time>
      </trkpt>
      <trkpt lat="47.30741" lon="4.95991">
        <ele>356</ele>
        <time>2013-11-09T08:31:18.256Z</time>
      </trkpt>
      <trkpt lat="47.30749" lon="4.95995">
        <ele>354</ele>
        <time>2013-11-09T08:31:23.259Z</time>
      </trkpt>
      <trkpt lat="47.30752" lon="4.95997">
        <ele>354</ele>
        <time>2013-11-09T08:31:25.264Z</time>
      </trkpt>
      <trkpt lat="47.30756" lon="4.95999">
        <ele>354</ele>
        <time>2013-11-09T08:31:27.266Z</time>
      </trkpt>
      <trkpt lat="47.30761" lon="4.96004">
        <ele>353</ele>
        <time>2013-11-09T08:31:30.237Z</time>
      </trkpt>
      <trkpt lat="47.30764" lon="4.96004">
        <ele>353</ele>
        <time>2013-11-09T08:31:32.257Z</time>
      </trkpt>
      <trkpt lat="47.3077" lon="4.96006">
        <ele>354</ele>
        <time>2013-11-09T08:31:35.230Z</time>
      </trkpt>
      <trkpt lat="47.30774" lon="4.9601">
        <ele>354</ele>
        <time>2013-11-09T08:31:37.234Z</time>
      </trkpt>
      <trkpt lat="47.3078" lon="4.96014">
        <ele>354</ele>
        <time>2013-11-09T08:31:40.237Z</time>
      </trkpt>
      <trkpt lat="47.30786" lon="4.96018">
        <ele>354</ele>
        <time>2013-11-09T08:31:43.200Z</time>
      </trkpt>
      <trkpt lat="47.3079" lon="4.96021">
        <ele>354</ele>
        <time>2013-11-09T08:31:45.216Z</time>
      </trkpt>
      <trkpt lat="47.30795" lon="4.96025">
        <ele>354</ele>
        <time>2013-11-09T08:31:47.217Z</time>
      </trkpt>
      <trkpt lat="47.30804" lon="4.96033">
        <ele>354</ele>
        <time>2013-11-09T08:31:50.234Z</time>
      </trkpt>
      <trkpt lat="47.30809" lon="4.96036">
        <ele>354</ele>
        <time>2013-11-09T08:31:52.247Z</time>
      </trkpt>
      <trkpt lat="47.30813" lon="4.96039">
        <ele>354</ele>
        <time>2013-11-09T08:31:54.256Z</time>
      </trkpt>
      <trkpt lat="47.30818" lon="4.96041">
        <ele>354</ele>
        <time>2013-11-09T08:31:56.266Z</time>
      </trkpt>
      <trkpt lat="47.30824" lon="4.96045">
        <ele>354</ele>
        <time>2013-11-09T08:31:59.252Z</time>
      </trkpt>
      <trkpt lat="47.3083" lon="4.96049">
        <ele>353</ele>
        <time>2013-11-09T08:32:02.243Z</time>
      </trkpt>
      <trkpt lat="47.30835" lon="4.96051">
        <ele>352</ele>
        <time>2013-11-09T08:32:05.230Z</time>
      </trkpt>
      <trkpt lat="47.30842" lon="4.96054">
        <ele>352</ele>
        <time>2013-11-09T08:32:09.243Z</time>
      </trkpt>
      <trkpt lat="47.30845" lon="4.96055">
        <ele>352</ele>
        <time>2013-11-09T08:32:11.246Z</time>
      </trkpt>
      <trkpt lat="47.30853" lon="4.96061">
        <ele>352</ele>
        <time>2013-11-09T08:32:16.247Z</time>
      </trkpt>
      <trkpt lat="47.30856" lon="4.96062">
        <ele>352</ele>
        <time>2013-11-09T08:32:18.247Z</time>
      </trkpt>
      <trkpt lat="47.30864" lon="4.96067">
        <ele>351</ele>
        <time>2013-11-09T08:32:23.253Z</time>
      </trkpt>
      <trkpt lat="47.30867" lon="4.96069">
        <ele>351</ele>
        <time>2013-11-09T08:32:25.254Z</time>
      </trkpt>
      <trkpt lat="47.30874" lon="4.96074">
        <ele>351</ele>
        <time>2013-11-09T08:32:31.239Z</time>
      </trkpt>
      <trkpt lat="47.3088" lon="4.96077">
        <ele>350</ele>
        <time>2013-11-09T08:32:34.249Z</time>
      </trkpt>
      <trkpt lat="47.30886" lon="4.96083">
        <ele>350</ele>
        <time>2013-11-09T08:32:39.234Z</time>
      </trkpt>
      <trkpt lat="47.30887" lon="4.96086">
        <ele>351</ele>
        <time>2013-11-09T08:32:41.233Z</time>
      </trkpt>
      <trkpt lat="47.30888" lon="4.96088">
        <ele>351</ele>
        <time>2013-11-09T08:32:45.268Z</time>
      </trkpt>
      <trkpt lat="47.30892" lon="4.96097">
        <ele>351</ele>
        <time>2013-11-09T08:32:48.252Z</time>
      </trkpt>
      <trkpt lat="47.30896" lon="4.96099">
        <ele>351</ele>
        <time>2013-11-09T08:32:50.255Z</time>
      </trkpt>
      <trkpt lat="47.30901" lon="4.96103">
        <ele>350</ele>
        <time>2013-11-09T08:32:53.226Z</time>
      </trkpt>
      <trkpt lat="47.30907" lon="4.96109">
        <ele>351</ele>
        <time>2013-11-09T08:32:57.247Z</time>
      </trkpt>
      <trkpt lat="47.30911" lon="4.96112">
        <ele>351</ele>
        <time>2013-11-09T08:33:00.214Z</time>
      </trkpt>
      <trkpt lat="47.30918" lon="4.96117">
        <ele>345</ele>
        <time>2013-11-09T08:33:05.240Z</time>
      </trkpt>
      <trkpt lat="47.30924" lon="4.96119">
        <ele>345</ele>
        <time>2013-11-09T08:33:08.237Z</time>
      </trkpt>
      <trkpt lat="47.3093" lon="4.96123">
        <ele>345</ele>
        <time>2013-11-09T08:33:11.233Z</time>
      </trkpt>
      <trkpt lat="47.30933" lon="4.96126">
        <ele>345</ele>
        <time>2013-11-09T08:33:14.241Z</time>
      </trkpt>
      <trkpt lat="47.3094" lon="4.96129">
        <ele>345</ele>
        <time>2013-11-09T08:33:19.246Z</time>
      </trkpt>
      <trkpt lat="47.30944" lon="4.96132">
        <ele>345</ele>
        <time>2013-11-09T08:33:22.242Z</time>
      </trkpt>
      <trkpt lat="47.3095" lon="4.96138">
        <ele>345</ele>
        <time>2013-11-09T08:33:27.238Z</time>
      </trkpt>
      <trkpt lat="47.30953" lon="4.9614">
        <ele>345</ele>
        <time>2013-11-09T08:33:29.245Z</time>
      </trkpt>
      <trkpt lat="47.30958" lon="4.96143">
        <ele>345</ele>
        <time>2013-11-09T08:33:32.248Z</time>
      </trkpt>
      <trkpt lat="47.30961" lon="4.96147">
        <ele>344</ele>
        <time>2013-11-09T08:33:35.231Z</time>
      </trkpt>
      <trkpt lat="47.30969" lon="4.96154">
        <ele>343</ele>
        <time>2013-11-09T08:33:41.234Z</time>
      </trkpt>
      <trkpt lat="47.30971" lon="4.96157">
        <ele>343</ele>
        <time>2013-11-09T08:33:43.235Z</time>
      </trkpt>
      <trkpt lat="47.30976" lon="4.96163">
        <ele>342</ele>
        <time>2013-11-09T08:33:47.238Z</time>
      </trkpt>
      <trkpt lat="47.30978" lon="4.96166">
        <ele>342</ele>
        <time>2013-11-09T08:33:49.254Z</time>
      </trkpt>
      <trkpt lat="47.30983" lon="4.96174">
        <ele>344</ele>
        <time>2013-11-09T08:33:54.264Z</time>
      </trkpt>
      <trkpt lat="47.30986" lon="4.96176">
        <ele>344</ele>
        <time>2013-11-09T08:33:56.300Z</time>
      </trkpt>
      <trkpt lat="47.30991" lon="4.96176">
        <ele>343</ele>
        <time>2013-11-09T08:34:04.239Z</time>
      </trkpt>
      <trkpt lat="47.30991" lon="4.96176">
        <ele>343</ele>
        <time>2013-11-09T08:34:06.244Z</time>
      </trkpt>
      <trkpt lat="47.30991" lon="4.96176">
        <ele>343</ele>
        <time>2013-11-09T08:34:35.227Z</time>
      </trkpt>
      <trkpt lat="47.30992" lon="4.96181">
        <ele>344</ele>
        <time>2013-11-09T08:34:37.229Z</time>
      </trkpt>
      <trkpt lat="47.30993" lon="4.96182">
        <ele>344</ele>
        <time>2013-11-09T08:34:39.230Z</time>
      </trkpt>
      <trkpt lat="47.30993" lon="4.96182">
        <ele>344</ele>
        <time>2013-11-09T08:34:42.235Z</time>
      </trkpt>
      <trkpt lat="47.30993" lon="4.96182">
        <ele>344</ele>
        <time>2013-11-09T08:34:59.238Z</time>
      </trkpt>
      <trkpt lat="47.30995" lon="4.96187">
        <ele>345</ele>
        <time>2013-11-09T08:35:02.239Z</time>
      </trkpt>
      <trkpt lat="47.30995" lon="4.96187">
        <ele>345</ele>
        <time>2013-11-09T08:35:05.233Z</time>
      </trkpt>
      <trkpt lat="47.30995" lon="4.96187">
        <ele>345</ele>
        <time>2013-11-09T08:35:42.233Z</time>
      </trkpt>
      <trkpt lat="47.30998" lon="4.96189">
        <ele>345</ele>
        <time>2013-11-09T08:35:44.249Z</time>
      </trkpt>
      <trkpt lat="47.30998" lon="4.96189">
        <ele>345</ele>
        <time>2013-11-09T08:35:46.249Z</time>
      </trkpt>
      <trkpt lat="47.30998" lon="4.96189">
        <ele>345</ele>
        <time>2013-11-09T08:35:48.248Z</time>
      </trkpt>
      <trkpt lat="47.30998" lon="4.96189">
        <ele>345</ele>
        <time>2013-11-09T08:36:23.240Z</time>
      </trkpt>
      <trkpt lat="47.30998" lon="4.96186">
        <ele>344</ele>
        <time>2013-11-09T08:36:26.255Z</time>
      </trkpt>
      <trkpt lat="47.30998" lon="4.96177">
        <ele>342</ele>
        <time>2013-11-09T08:36:31.258Z</time>
      </trkpt>
      <trkpt lat="47.30999" lon="4.96171">
        <ele>339</ele>
        <time>2013-11-09T08:36:34.230Z</time>
      </trkpt>
      <trkpt lat="47.30998" lon="4.9616">
        <ele>339</ele>
        <time>2013-11-09T08:36:39.229Z</time>
      </trkpt>
      <trkpt lat="47.30999" lon="4.96155">
        <ele>340</ele>
        <time>2013-11-09T08:36:41.231Z</time>
      </trkpt>
      <trkpt lat="47.31001" lon="4.96143">
        <ele>340</ele>
        <time>2013-11-09T08:36:47.250Z</time>
      </trkpt>
      <trkpt lat="47.31002" lon="4.96139">
        <ele>341</ele>
        <time>2013-11-09T08:36:49.270Z</time>
      </trkpt>
      <trkpt lat="47.31005" lon="4.96128">
        <ele>342</ele>
        <time>2013-11-09T08:36:55.270Z</time>
      </trkpt>
      <trkpt lat="47.31007" lon="4.96124">
        <ele>342</ele>
        <time>2013-11-09T08:36:58.266Z</time>
      </trkpt>
      <trkpt lat="47.31011" lon="4.96115">
        <ele>342</ele>
        <time>2013-11-09T08:37:05.243Z</time>
      </trkpt>
      <trkpt lat="47.31012" lon="4.96112">
        <ele>343</ele>
        <time>2013-11-09T08:37:07.232Z</time>
      </trkpt>
      <trkpt lat="47.31015" lon="4.96102">
        <ele>343</ele>
        <time>2013-11-09T08:37:13.246Z</time>
      </trkpt>
      <trkpt lat="47.31016" lon="4.96099">
        <ele>343</ele>
        <time>2013-11-09T08:37:15.265Z</time>
      </trkpt>
      <trkpt lat="47.3102" lon="4.96088">
        <ele>344</ele>
        <time>2013-11-09T08:37:21.248Z</time>
      </trkpt>
      <trkpt lat="47.31021" lon="4.96085">
        <ele>344</ele>
        <time>2013-11-09T08:37:23.257Z</time>
      </trkpt>
      <trkpt lat="47.31022" lon="4.96074">
        <ele>349</ele>
        <time>2013-11-09T08:37:29.255Z</time>
      </trkpt>
      <trkpt lat="47.31022" lon="4.9607">
        <ele>349</ele>
        <time>2013-11-09T08:37:31.255Z</time>
      </trkpt>
      <trkpt lat="47.31022" lon="4.96057">
        <ele>350</ele>
        <time>2013-11-09T08:37:38.249Z</time>
      </trkpt>
      <trkpt lat="47.31023" lon="4.96052">
        <ele>351</ele>
        <time>2013-11-09T08:37:41.236Z</time>
      </trkpt>
      <trkpt lat="47.31025" lon="4.96039">
        <ele>352</ele>
        <time>2013-11-09T08:37:49.266Z</time>
      </trkpt>
      <trkpt lat="47.31025" lon="4.96036">
        <ele>353</ele>
        <time>2013-11-09T08:37:51.270Z</time>
      </trkpt>
      <trkpt lat="47.31026" lon="4.96025">
        <ele>354</ele>
        <time>2013-11-09T08:37:58.272Z</time>
      </trkpt>
      <trkpt lat="47.31025" lon="4.9602">
        <ele>354</ele>
        <time>2013-11-09T08:38:01.240Z</time>
      </trkpt>
      <trkpt lat="47.31025" lon="4.96008">
        <ele>355</ele>
        <time>2013-11-09T08:38:08.242Z</time>
      </trkpt>
      <trkpt lat="47.31024" lon="4.96002">
        <ele>356</ele>
        <time>2013-11-09T08:38:11.228Z</time>
      </trkpt>
      <trkpt lat="47.31021" lon="4.95994">
        <ele>361</ele>
        <time>2013-11-09T08:38:15.232Z</time>
      </trkpt>
      <trkpt lat="47.3102" lon="4.95987">
        <ele>361</ele>
        <time>2013-11-09T08:38:17.242Z</time>
      </trkpt>
      <trkpt lat="47.31019" lon="4.95978">
        <ele>361</ele>
        <time>2013-11-09T08:38:20.245Z</time>
      </trkpt>
      <trkpt lat="47.31018" lon="4.9597">
        <ele>361</ele>
        <time>2013-11-09T08:38:23.243Z</time>
      </trkpt>
      <trkpt lat="47.31015" lon="4.95959">
        <ele>362</ele>
        <time>2013-11-09T08:38:27.248Z</time>
      </trkpt>
      <trkpt lat="47.31014" lon="4.95954">
        <ele>362</ele>
        <time>2013-11-09T08:38:29.263Z</time>
      </trkpt>
      <trkpt lat="47.3101" lon="4.95947">
        <ele>363</ele>
        <time>2013-11-09T08:38:32.237Z</time>
      </trkpt>
      <trkpt lat="47.31006" lon="4.95941">
        <ele>364</ele>
        <time>2013-11-09T08:38:35.231Z</time>
      </trkpt>
      <trkpt lat="47.31004" lon="4.95931">
        <ele>365</ele>
        <time>2013-11-09T08:38:39.235Z</time>
      </trkpt>
      <trkpt lat="47.31003" lon="4.95926">
        <ele>367</ele>
        <time>2013-11-09T08:38:41.244Z</time>
      </trkpt>
      <trkpt lat="47.31" lon="4.95917">
        <ele>370</ele>
        <time>2013-11-09T08:38:45.256Z</time>
      </trkpt>
      <trkpt lat="47.30999" lon="4.95913">
        <ele>371</ele>
        <time>2013-11-09T08:38:48.268Z</time>
      </trkpt>
      <trkpt lat="47.30994" lon="4.95902">
        <ele>373</ele>
        <time>2013-11-09T08:38:54.240Z</time>
      </trkpt>
      <trkpt lat="47.30993" lon="4.95898">
        <ele>373</ele>
        <time>2013-11-09T08:38:56.242Z</time>
      </trkpt>
      <trkpt lat="47.30989" lon="4.95886">
        <ele>374</ele>
        <time>2013-11-09T08:39:02.256Z</time>
      </trkpt>
      <trkpt lat="47.30987" lon="4.95878">
        <ele>374</ele>
        <time>2013-11-09T08:39:05.222Z</time>
      </trkpt>
      <trkpt lat="47.30987" lon="4.95871">
        <ele>374</ele>
        <time>2013-11-09T08:39:07.225Z</time>
      </trkpt>
      <trkpt lat="47.30986" lon="4.95852">
        <ele>372</ele>
        <time>2013-11-09T08:39:10.224Z</time>
      </trkpt>
      <trkpt lat="47.30986" lon="4.95847">
        <ele>372</ele>
        <time>2013-11-09T08:39:11.232Z</time>
      </trkpt>
      <trkpt lat="47.30985" lon="4.95839">
        <ele>371</ele>
        <time>2013-11-09T08:39:13.232Z</time>
      </trkpt>
      <trkpt lat="47.3099" lon="4.95832">
        <ele>369</ele>
        <time>2013-11-09T08:39:17.244Z</time>
      </trkpt>
      <trkpt lat="47.30995" lon="4.95829">
        <ele>367</ele>
        <time>2013-11-09T08:39:20.240Z</time>
      </trkpt>
      <trkpt lat="47.31" lon="4.95824">
        <ele>364</ele>
        <time>2013-11-09T08:39:23.240Z</time>
      </trkpt>
      <trkpt lat="47.31003" lon="4.95819">
        <ele>364</ele>
        <time>2013-11-09T08:39:26.244Z</time>
      </trkpt>
      <trkpt lat="47.31004" lon="4.95815">
        <ele>363</ele>
        <time>2013-11-09T08:39:28.258Z</time>
      </trkpt>
      <trkpt lat="47.31008" lon="4.95807">
        <ele>363</ele>
        <time>2013-11-09T08:39:31.236Z</time>
      </trkpt>
      <trkpt lat="47.31012" lon="4.95798">
        <ele>363</ele>
        <time>2013-11-09T08:39:34.231Z</time>
      </trkpt>
      <trkpt lat="47.31015" lon="4.95793">
        <ele>363</ele>
        <time>2013-11-09T08:39:36.235Z</time>
      </trkpt>
      <trkpt lat="47.31022" lon="4.95787">
        <ele>362</ele>
        <time>2013-11-09T08:39:41.190Z</time>
      </trkpt>
      <trkpt lat="47.31023" lon="4.95784">
        <ele>362</ele>
        <time>2013-11-09T08:39:43.195Z</time>
      </trkpt>
      <trkpt lat="47.31027" lon="4.95782">
        <ele>362</ele>
        <time>2013-11-09T08:39:49.264Z</time>
      </trkpt>
      <trkpt lat="47.31026" lon="4.95782">
        <ele>362</ele>
        <time>2013-11-09T08:39:52.257Z</time>
      </trkpt>
      <trkpt lat="47.31026" lon="4.95782">
        <ele>362</ele>
        <time>2013-11-09T08:39:59.241Z</time>
      </trkpt>
      <trkpt lat="47.31023" lon="4.95774">
        <ele>362</ele>
        <time>2013-11-09T08:40:02.238Z</time>
      </trkpt>
      <trkpt lat="47.31022" lon="4.95772">
        <ele>362</ele>
        <time>2013-11-09T08:40:05.226Z</time>
      </trkpt>
      <trkpt lat="47.31022" lon="4.95773">
        <ele>362</ele>
        <time>2013-11-09T08:40:07.241Z</time>
      </trkpt>
      <trkpt lat="47.31021" lon="4.9577">
        <ele>362</ele>
        <time>2013-11-09T08:40:10.228Z</time>
      </trkpt>
      <trkpt lat="47.3102" lon="4.95765">
        <ele>362</ele>
        <time>2013-11-09T08:40:15.246Z</time>
      </trkpt>
      <trkpt lat="47.3102" lon="4.95766">
        <ele>362</ele>
        <time>2013-11-09T08:40:17.246Z</time>
      </trkpt>
      <trkpt lat="47.3102" lon="4.95766">
        <ele>362</ele>
        <time>2013-11-09T08:40:29.240Z</time>
      </trkpt>
      <trkpt lat="47.31021" lon="4.95762">
        <ele>362</ele>
        <time>2013-11-09T08:40:31.241Z</time>
      </trkpt>
      <trkpt lat="47.31022" lon="4.9576">
        <ele>362</ele>
        <time>2013-11-09T08:40:34.226Z</time>
      </trkpt>
      <trkpt lat="47.31022" lon="4.9576">
        <ele>362</ele>
        <time>2013-11-09T08:40:36.231Z</time>
      </trkpt>
      <trkpt lat="47.31022" lon="4.9576">
        <ele>362</ele>
        <time>2013-11-09T08:40:52.245Z</time>
      </trkpt>
      <trkpt lat="47.31023" lon="4.95758">
        <ele>362</ele>
        <time>2013-11-09T08:40:54.256Z</time>
      </trkpt>
      <trkpt lat="47.31026" lon="4.95755">
        <ele>362</ele>
        <time>2013-11-09T08:40:56.267Z</time>
      </trkpt>
      <trkpt lat="47.31026" lon="4.95756">
        <ele>362</ele>
        <time>2013-11-09T08:40:59.266Z</time>
      </trkpt>
      <trkpt lat="47.31026" lon="4.95756">
        <ele>362</ele>
        <time>2013-11-09T08:41:11.206Z</time>
      </trkpt>
      <trkpt lat="47.31027" lon="4.95757">
        <ele>362</ele>
        <time>2013-11-09T08:41:13.242Z</time>
      </trkpt>
      <trkpt lat="47.31032" lon="4.95765">
        <ele>362</ele>
        <time>2013-11-09T08:41:18.270Z</time>
      </trkpt>
      <trkpt lat="47.31035" lon="4.95771">
        <ele>362</ele>
        <time>2013-11-09T08:41:20.337Z</time>
      </trkpt>
      <trkpt lat="47.31037" lon="4.95779">
        <ele>362</ele>
        <time>2013-11-09T08:41:23.271Z</time>
      </trkpt>
      <trkpt lat="47.31038" lon="4.95784">
        <ele>362</ele>
        <time>2013-11-09T08:41:25.319Z</time>
      </trkpt>
      <trkpt lat="47.31035" lon="4.95796">
        <ele>362</ele>
        <time>2013-11-09T08:41:35.241Z</time>
      </trkpt>
      <trkpt lat="47.31034" lon="4.95804">
        <ele>362</ele>
        <time>2013-11-09T08:41:38.206Z</time>
      </trkpt>
      <trkpt lat="47.31035" lon="4.95814">
        <ele>363</ele>
        <time>2013-11-09T08:41:42.230Z</time>
      </trkpt>
      <trkpt lat="47.31035" lon="4.95819">
        <ele>363</ele>
        <time>2013-11-09T08:41:44.249Z</time>
      </trkpt>
      <trkpt lat="47.31036" lon="4.95832">
        <ele>363</ele>
        <time>2013-11-09T08:41:49.263Z</time>
      </trkpt>
      <trkpt lat="47.31038" lon="4.95841">
        <ele>363</ele>
        <time>2013-11-09T08:41:52.248Z</time>
      </trkpt>
      <trkpt lat="47.3104" lon="4.95849">
        <ele>362</ele>
        <time>2013-11-09T08:41:55.228Z</time>
      </trkpt>
      <trkpt lat="47.31042" lon="4.95854">
        <ele>362</ele>
        <time>2013-11-09T08:41:57.275Z</time>
      </trkpt>
      <trkpt lat="47.31046" lon="4.95865">
        <ele>362</ele>
        <time>2013-11-09T08:42:02.256Z</time>
      </trkpt>
      <trkpt lat="47.31049" lon="4.95869">
        <ele>362</ele>
        <time>2013-11-09T08:42:04.281Z</time>
      </trkpt>
      <trkpt lat="47.31054" lon="4.95878">
        <ele>361</ele>
        <time>2013-11-09T08:42:10.228Z</time>
      </trkpt>
      <trkpt lat="47.31055" lon="4.9588">
        <ele>361</ele>
        <time>2013-11-09T08:42:11.237Z</time>
      </trkpt>
      <trkpt lat="47.31056" lon="4.95886">
        <ele>361</ele>
        <time>2013-11-09T08:42:14.242Z</time>
      </trkpt>
      <trkpt lat="47.31059" lon="4.95894">
        <ele>361</ele>
        <time>2013-11-09T08:42:17.249Z</time>
      </trkpt>
      <trkpt lat="47.31064" lon="4.95905">
        <ele>359</ele>
        <time>2013-11-09T08:42:22.237Z</time>
      </trkpt>
      <trkpt lat="47.31067" lon="4.95908">
        <ele>359</ele>
        <time>2013-11-09T08:42:25.198Z</time>
      </trkpt>
      <trkpt lat="47.31073" lon="4.95914">
        <ele>357</ele>
        <time>2013-11-09T08:42:30.185Z</time>
      </trkpt>
      <trkpt lat="47.31076" lon="4.95917">
        <ele>356</ele>
        <time>2013-11-09T08:42:33.186Z</time>
      </trkpt>
      <trkpt lat="47.31081" lon="4.95921">
        <ele>355</ele>
        <time>2013-11-09T08:42:38.191Z</time>
      </trkpt>
      <trkpt lat="47.31085" lon="4.95923">
        <ele>357</ele>
        <time>2013-11-09T08:42:41.181Z</time>
      </trkpt>
      <trkpt lat="47.31093" lon="4.95919">
        <ele>358</ele>
        <time>2013-11-09T08:42:54.241Z</time>
      </trkpt>
      <trkpt lat="47.31095" lon="4.95913">
        <ele>361</ele>
        <time>2013-11-09T08:42:57.217Z</time>
      </trkpt>
      <trkpt lat="47.31098" lon="4.95903">
        <ele>364</ele>
        <time>2013-11-09T08:43:05.165Z</time>
      </trkpt>
      <trkpt lat="47.31097" lon="4.95897">
        <ele>365</ele>
        <time>2013-11-09T08:43:08.157Z</time>
      </trkpt>
      <trkpt lat="47.31095" lon="4.95886">
        <ele>366</ele>
        <time>2013-11-09T08:43:13.165Z</time>
      </trkpt>
      <trkpt lat="47.31094" lon="4.9588">
        <ele>367</ele>
        <time>2013-11-09T08:43:16.187Z</time>
      </trkpt>
      <trkpt lat="47.31094" lon="4.95872">
        <ele>367</ele>
        <time>2013-11-09T08:43:20.210Z</time>
      </trkpt>
      <trkpt lat="47.31093" lon="4.95865">
        <ele>367</ele>
        <time>2013-11-09T08:43:23.176Z</time>
      </trkpt>
      <trkpt lat="47.31097" lon="4.95854">
        <ele>367</ele>
        <time>2013-11-09T08:43:28.170Z</time>
      </trkpt>
      <trkpt lat="47.31099" lon="4.95851">
        <ele>367</ele>
        <time>2013-11-09T08:43:30.170Z</time>
      </trkpt>
      <trkpt lat="47.31104" lon="4.95842">
        <ele>367</ele>
        <time>2013-11-09T08:43:35.177Z</time>
      </trkpt>
      <trkpt lat="47.31105" lon="4.95837">
        <ele>368</ele>
        <time>2013-11-09T08:43:38.155Z</time>
      </trkpt>
      <trkpt lat="47.31107" lon="4.95827">
        <ele>370</ele>
        <time>2013-11-09T08:43:43.172Z</time>
      </trkpt>
      <trkpt lat="47.31109" lon="4.95822">
        <ele>371</ele>
        <time>2013-11-09T08:43:45.231Z</time>
      </trkpt>
      <trkpt lat="47.31112" lon="4.95816">
        <ele>372</ele>
        <time>2013-11-09T08:43:48.203Z</time>
      </trkpt>
      <trkpt lat="47.31115" lon="4.95811">
        <ele>373</ele>
        <time>2013-11-09T08:43:51.201Z</time>
      </trkpt>
      <trkpt lat="47.3112" lon="4.95804">
        <ele>374</ele>
        <time>2013-11-09T08:43:56.198Z</time>
      </trkpt>
      <trkpt lat="47.31123" lon="4.958">
        <ele>375</ele>
        <time>2013-11-09T08:43:59.168Z</time>
      </trkpt>
      <trkpt lat="47.31131" lon="4.95794">
        <ele>376</ele>
        <time>2013-11-09T08:44:05.151Z</time>
      </trkpt>
      <trkpt lat="47.31133" lon="4.95795">
        <ele>376</ele>
        <time>2013-11-09T08:44:07.162Z</time>
      </trkpt>
      <trkpt lat="47.31138" lon="4.95806">
        <ele>377</ele>
        <time>2013-11-09T08:44:13.162Z</time>
      </trkpt>
      <trkpt lat="47.3114" lon="4.95809">
        <ele>378</ele>
        <time>2013-11-09T08:44:15.247Z</time>
      </trkpt>
      <trkpt lat="47.31145" lon="4.95818">
        <ele>379</ele>
        <time>2013-11-09T08:44:21.177Z</time>
      </trkpt>
      <trkpt lat="47.31146" lon="4.95823">
        <ele>380</ele>
        <time>2013-11-09T08:44:23.197Z</time>
      </trkpt>
      <trkpt lat="47.31147" lon="4.95831">
        <ele>381</ele>
        <time>2013-11-09T08:44:26.194Z</time>
      </trkpt>
      <trkpt lat="47.31148" lon="4.95836">
        <ele>379</ele>
        <time>2013-11-09T08:44:28.241Z</time>
      </trkpt>
      <trkpt lat="47.31149" lon="4.95843">
        <ele>379</ele>
        <time>2013-11-09T08:44:31.165Z</time>
      </trkpt>
      <trkpt lat="47.31151" lon="4.9585">
        <ele>379</ele>
        <time>2013-11-09T08:44:34.156Z</time>
      </trkpt>
      <trkpt lat="47.31156" lon="4.95855">
        <ele>379</ele>
        <time>2013-11-09T08:44:39.151Z</time>
      </trkpt>
      <trkpt lat="47.31159" lon="4.95856">
        <ele>379</ele>
        <time>2013-11-09T08:44:42.152Z</time>
      </trkpt>
      <trkpt lat="47.31164" lon="4.95852">
        <ele>381</ele>
        <time>2013-11-09T08:44:46.187Z</time>
      </trkpt>
      <trkpt lat="47.31167" lon="4.95848">
        <ele>382</ele>
        <time>2013-11-09T08:44:49.186Z</time>
      </trkpt>
      <trkpt lat="47.3117" lon="4.95838">
        <ele>391</ele>
        <time>2013-11-09T08:44:55.134Z</time>
      </trkpt>
      <trkpt lat="47.31173" lon="4.95834">
        <ele>391</ele>
        <time>2013-11-09T08:44:58.106Z</time>
      </trkpt>
      <trkpt lat="47.3118" lon="4.95829">
        <ele>394</ele>
        <time>2013-11-09T08:45:02.145Z</time>
      </trkpt>
      <trkpt lat="47.31184" lon="4.95828">
        <ele>395</ele>
        <time>2013-11-09T08:45:04.151Z</time>
      </trkpt>
      <trkpt lat="47.31192" lon="4.95827">
        <ele>397</ele>
        <time>2013-11-09T08:45:11.147Z</time>
      </trkpt>
      <trkpt lat="47.31195" lon="4.95827">
        <ele>398</ele>
        <time>2013-11-09T08:45:14.112Z</time>
      </trkpt>
      <trkpt lat="47.312" lon="4.95826">
        <ele>399</ele>
        <time>2013-11-09T08:45:18.193Z</time>
      </trkpt>
      <trkpt lat="47.31205" lon="4.95823">
        <ele>400</ele>
        <time>2013-11-09T08:45:21.158Z</time>
      </trkpt>
      <trkpt lat="47.31212" lon="4.9582">
        <ele>401</ele>
        <time>2013-11-09T08:45:28.177Z</time>
      </trkpt>
      <trkpt lat="47.31214" lon="4.95822">
        <ele>402</ele>
        <time>2013-11-09T08:45:31.149Z</time>
      </trkpt>
      <trkpt lat="47.31218" lon="4.95828">
        <ele>403</ele>
        <time>2013-11-09T08:45:36.159Z</time>
      </trkpt>
      <trkpt lat="47.31221" lon="4.95833">
        <ele>402</ele>
        <time>2013-11-09T08:45:39.145Z</time>
      </trkpt>
      <trkpt lat="47.31226" lon="4.95842">
        <ele>403</ele>
        <time>2013-11-09T08:45:44.156Z</time>
      </trkpt>
      <trkpt lat="47.31228" lon="4.95845">
        <ele>403</ele>
        <time>2013-11-09T08:45:46.179Z</time>
      </trkpt>
      <trkpt lat="47.31232" lon="4.95854">
        <ele>403</ele>
        <time>2013-11-09T08:45:52.154Z</time>
      </trkpt>
      <trkpt lat="47.31234" lon="4.95856">
        <ele>403</ele>
        <time>2013-11-09T08:45:54.191Z</time>
      </trkpt>
      <trkpt lat="47.31241" lon="4.95862">
        <ele>403</ele>
        <time>2013-11-09T08:45:59.184Z</time>
      </trkpt>
      <trkpt lat="47.31243" lon="4.95865">
        <ele>403</ele>
        <time>2013-11-09T08:46:02.155Z</time>
      </trkpt>
      <trkpt lat="47.31247" lon="4.95872">
        <ele>403</ele>
        <time>2013-11-09T08:46:08.176Z</time>
      </trkpt>
      <trkpt lat="47.3125" lon="4.95876">
        <ele>403</ele>
        <time>2013-11-09T08:46:11.183Z</time>
      </trkpt>
      <trkpt lat="47.31257" lon="4.95884">
        <ele>413</ele>
        <time>2013-11-09T08:46:18.220Z</time>
      </trkpt>
      <trkpt lat="47.31259" lon="4.95885">
        <ele>413</ele>
        <time>2013-11-09T08:46:20.244Z</time>
      </trkpt>
      <trkpt lat="47.31265" lon="4.95893">
        <ele>413</ele>
        <time>2013-11-09T08:46:25.266Z</time>
      </trkpt>
      <trkpt lat="47.31268" lon="4.95898">
        <ele>413</ele>
        <time>2013-11-09T08:46:28.199Z</time>
      </trkpt>
      <trkpt lat="47.31273" lon="4.95906">
        <ele>413</ele>
        <time>2013-11-09T08:46:33.164Z</time>
      </trkpt>
      <trkpt lat="47.31276" lon="4.95912">
        <ele>413</ele>
        <time>2013-11-09T08:46:36.167Z</time>
      </trkpt>
      <trkpt lat="47.31281" lon="4.9592">
        <ele>412</ele>
        <time>2013-11-09T08:46:39.130Z</time>
      </trkpt>
      <trkpt lat="47.31284" lon="4.95925">
        <ele>412</ele>
        <time>2013-11-09T08:46:41.152Z</time>
      </trkpt>
      <trkpt lat="47.3129" lon="4.95933">
        <ele>412</ele>
        <time>2013-11-09T08:46:45.205Z</time>
      </trkpt>
      <trkpt lat="47.31294" lon="4.95939">
        <ele>413</ele>
        <time>2013-11-09T08:46:48.224Z</time>
      </trkpt>
      <trkpt lat="47.31299" lon="4.95945">
        <ele>413</ele>
        <time>2013-11-09T08:46:51.199Z</time>
      </trkpt>
      <trkpt lat="47.31301" lon="4.95949">
        <ele>413</ele>
        <time>2013-11-09T08:46:53.203Z</time>
      </trkpt>
      <trkpt lat="47.31307" lon="4.95958">
        <ele>413</ele>
        <time>2013-11-09T08:46:58.198Z</time>
      </trkpt>
      <trkpt lat="47.31311" lon="4.95962">
        <ele>413</ele>
        <time>2013-11-09T08:47:01.150Z</time>
      </trkpt>
      <trkpt lat="47.31318" lon="4.95968">
        <ele>414</ele>
        <time>2013-11-09T08:47:07.163Z</time>
      </trkpt>
      <trkpt lat="47.31322" lon="4.95972">
        <ele>414</ele>
        <time>2013-11-09T08:47:10.173Z</time>
      </trkpt>
      <trkpt lat="47.31329" lon="4.95979">
        <ele>414</ele>
        <time>2013-11-09T08:47:15.250Z</time>
      </trkpt>
      <trkpt lat="47.31333" lon="4.95982">
        <ele>418</ele>
        <time>2013-11-09T08:47:18.221Z</time>
      </trkpt>
      <trkpt lat="47.3134" lon="4.95987">
        <ele>418</ele>
        <time>2013-11-09T08:47:23.202Z</time>
      </trkpt>
      <trkpt lat="47.31342" lon="4.9599">
        <ele>418</ele>
        <time>2013-11-09T08:47:25.251Z</time>
      </trkpt>
      <trkpt lat="47.31348" lon="4.95995">
        <ele>418</ele>
        <time>2013-11-09T08:47:31.165Z</time>
      </trkpt>
      <trkpt lat="47.31351" lon="4.95998">
        <ele>418</ele>
        <time>2013-11-09T08:47:34.151Z</time>
      </trkpt>
      <trkpt lat="47.31357" lon="4.96002">
        <ele>416</ele>
        <time>2013-11-09T08:47:39.164Z</time>
      </trkpt>
      <trkpt lat="47.3136" lon="4.96004">
        <ele>416</ele>
        <time>2013-11-09T08:47:42.156Z</time>
      </trkpt>
      <trkpt lat="47.31367" lon="4.96011">
        <ele>416</ele>
        <time>2013-11-09T08:47:49.122Z</time>
      </trkpt>
      <trkpt lat="47.3137" lon="4.96011">
        <ele>416</ele>
        <time>2013-11-09T08:47:51.196Z</time>
      </trkpt>
      <trkpt lat="47.31377" lon="4.96007">
        <ele>416</ele>
        <time>2013-11-09T08:47:58.202Z</time>
      </trkpt>
      <trkpt lat="47.3138" lon="4.96004">
        <ele>416</ele>
        <time>2013-11-09T08:48:01.158Z</time>
      </trkpt>
      <trkpt lat="47.31388" lon="4.95996">
        <ele>419</ele>
        <time>2013-11-09T08:48:07.161Z</time>
      </trkpt>
      <trkpt lat="47.31391" lon="4.95992">
        <ele>419</ele>
        <time>2013-11-09T08:48:10.166Z</time>
      </trkpt>
      <trkpt lat="47.31395" lon="4.95982">
        <ele>419</ele>
        <time>2013-11-09T08:48:17.230Z</time>
      </trkpt>
      <trkpt lat="47.31394" lon="4.95979">
        <ele>419</ele>
        <time>2013-11-09T08:48:20.297Z</time>
      </trkpt>
      <trkpt lat="47.31394" lon="4.95971">
        <ele>419</ele>
        <time>2013-11-09T08:48:25.253Z</time>
      </trkpt>
      <trkpt lat="47.31393" lon="4.95966">
        <ele>419</ele>
        <time>2013-11-09T08:48:28.259Z</time>
      </trkpt>
      <trkpt lat="47.31393" lon="4.95963">
        <ele>420</ele>
        <time>2013-11-09T08:48:31.153Z</time>
      </trkpt>
      <trkpt lat="47.31393" lon="4.95963">
        <ele>420</ele>
        <time>2013-11-09T08:48:33.162Z</time>
      </trkpt>
      <trkpt lat="47.31394" lon="4.95966">
        <ele>419</ele>
        <time>2013-11-09T08:48:35.165Z</time>
      </trkpt>
      <trkpt lat="47.31397" lon="4.95974">
        <ele>419</ele>
        <time>2013-11-09T08:48:40.173Z</time>
      </trkpt>
      <trkpt lat="47.314" lon="4.95978">
        <ele>419</ele>
        <time>2013-11-09T08:48:43.144Z</time>
      </trkpt>
      <trkpt lat="47.31403" lon="4.95983">
        <ele>419</ele>
        <time>2013-11-09T08:48:53.213Z</time>
      </trkpt>
      <trkpt lat="47.31404" lon="4.95983">
        <ele>419</ele>
        <time>2013-11-09T08:48:55.263Z</time>
      </trkpt>
      <trkpt lat="47.31403" lon="4.95979">
        <ele>419</ele>
        <time>2013-11-09T08:48:58.215Z</time>
      </trkpt>
      <trkpt lat="47.31404" lon="4.95968">
        <ele>419</ele>
        <time>2013-11-09T08:49:04.180Z</time>
      </trkpt>
      <trkpt lat="47.31407" lon="4.95962">
        <ele>420</ele>
        <time>2013-11-09T08:49:07.155Z</time>
      </trkpt>
      <trkpt lat="47.31411" lon="4.95953">
        <ele>420</ele>
        <time>2013-11-09T08:49:11.150Z</time>
      </trkpt>
      <trkpt lat="47.31413" lon="4.95949">
        <ele>420</ele>
        <time>2013-11-09T08:49:13.155Z</time>
      </trkpt>
      <trkpt lat="47.31419" lon="4.95941">
        <ele>420</ele>
        <time>2013-11-09T08:49:18.188Z</time>
      </trkpt>
      <trkpt lat="47.31421" lon="4.95938">
        <ele>420</ele>
        <time>2013-11-09T08:49:20.206Z</time>
      </trkpt>
      <trkpt lat="47.31426" lon="4.95931">
        <ele>420</ele>
        <time>2013-11-09T08:49:25.224Z</time>
      </trkpt>
      <trkpt lat="47.31427" lon="4.95924">
        <ele>420</ele>
        <time>2013-11-09T08:49:28.192Z</time>
      </trkpt>
      <trkpt lat="47.31429" lon="4.95912">
        <ele>421</ele>
        <time>2013-11-09T08:49:33.158Z</time>
      </trkpt>
      <trkpt lat="47.31429" lon="4.95907">
        <ele>421</ele>
        <time>2013-11-09T08:49:35.159Z</time>
      </trkpt>
      <trkpt lat="47.31429" lon="4.95899">
        <ele>421</ele>
        <time>2013-11-09T08:49:38.156Z</time>
      </trkpt>
      <trkpt lat="47.3143" lon="4.95893">
        <ele>421</ele>
        <time>2013-11-09T08:49:40.164Z</time>
      </trkpt>
      <trkpt lat="47.31432" lon="4.9588">
        <ele>421</ele>
        <time>2013-11-09T08:49:45.234Z</time>
      </trkpt>
      <trkpt lat="47.31432" lon="4.95873">
        <ele>421</ele>
        <time>2013-11-09T08:49:48.191Z</time>
      </trkpt>
      <trkpt lat="47.31435" lon="4.95861">
        <ele>421</ele>
        <time>2013-11-09T08:49:53.184Z</time>
      </trkpt>
      <trkpt lat="47.31437" lon="4.95857">
        <ele>421</ele>
        <time>2013-11-09T08:49:55.252Z</time>
      </trkpt>
      <trkpt lat="47.31439" lon="4.9585">
        <ele>421</ele>
        <time>2013-11-09T08:49:58.173Z</time>
      </trkpt>
      <trkpt lat="47.31441" lon="4.95844">
        <ele>421</ele>
        <time>2013-11-09T08:50:01.158Z</time>
      </trkpt>
      <trkpt lat="47.31444" lon="4.95833">
        <ele>422</ele>
        <time>2013-11-09T08:50:07.170Z</time>
      </trkpt>
      <trkpt lat="47.31445" lon="4.95827">
        <ele>422</ele>
        <time>2013-11-09T08:50:10.151Z</time>
      </trkpt>
      <trkpt lat="47.31448" lon="4.95817">
        <ele>422</ele>
        <time>2013-11-09T08:50:15.243Z</time>
      </trkpt>
      <trkpt lat="47.3145" lon="4.95811">
        <ele>423</ele>
        <time>2013-11-09T08:50:18.183Z</time>
      </trkpt>
      <trkpt lat="47.31452" lon="4.958">
        <ele>423</ele>
        <time>2013-11-09T08:50:23.194Z</time>
      </trkpt>
      <trkpt lat="47.31454" lon="4.95792">
        <ele>423</ele>
        <time>2013-11-09T08:50:26.198Z</time>
      </trkpt>
      <trkpt lat="47.31455" lon="4.95786">
        <ele>423</ele>
        <time>2013-11-09T08:50:28.199Z</time>
      </trkpt>
      <trkpt lat="47.31455" lon="4.95778">
        <ele>423</ele>
        <time>2013-11-09T08:50:31.154Z</time>
      </trkpt>
      <trkpt lat="47.31456" lon="4.95772">
        <ele>423</ele>
        <time>2013-11-09T08:50:33.354Z</time>
      </trkpt>
      <trkpt lat="47.31457" lon="4.95764">
        <ele>423</ele>
        <time>2013-11-09T08:50:36.979Z</time>
      </trkpt>
      <trkpt lat="47.31461" lon="4.95755">
        <ele>423</ele>
        <time>2013-11-09T08:50:41.093Z</time>
      </trkpt>
      <trkpt lat="47.31464" lon="4.95748">
        <ele>424</ele>
        <time>2013-11-09T08:50:43.973Z</time>
      </trkpt>
      <trkpt lat="47.31468" lon="4.95738">
        <ele>424</ele>
        <time>2013-11-09T08:50:48.979Z</time>
      </trkpt>
      <trkpt lat="47.31468" lon="4.95734">
        <ele>424</ele>
        <time>2013-11-09T08:50:51.131Z</time>
      </trkpt>
      <trkpt lat="47.31471" lon="4.95722">
        <ele>424</ele>
        <time>2013-11-09T08:50:56.097Z</time>
      </trkpt>
      <trkpt lat="47.31473" lon="4.95714">
        <ele>424</ele>
        <time>2013-11-09T08:50:59.042Z</time>
      </trkpt>
      <trkpt lat="47.31475" lon="4.95707">
        <ele>424</ele>
        <time>2013-11-09T08:51:01.796Z</time>
      </trkpt>
      <trkpt lat="47.31478" lon="4.95699">
        <ele>424</ele>
        <time>2013-11-09T08:51:04.811Z</time>
      </trkpt>
      <trkpt lat="47.31479" lon="4.9569">
        <ele>424</ele>
        <time>2013-11-09T08:51:07.794Z</time>
      </trkpt>
      <trkpt lat="47.3148" lon="4.95682">
        <ele>424</ele>
        <time>2013-11-09T08:51:10.806Z</time>
      </trkpt>
      <trkpt lat="47.31482" lon="4.95673">
        <ele>424</ele>
        <time>2013-11-09T08:51:13.817Z</time>
      </trkpt>
      <trkpt lat="47.31483" lon="4.95668">
        <ele>424</ele>
        <time>2013-11-09T08:51:15.906Z</time>
      </trkpt>
      <trkpt lat="47.31485" lon="4.95659">
        <ele>424</ele>
        <time>2013-11-09T08:51:18.846Z</time>
      </trkpt>
      <trkpt lat="47.31486" lon="4.95653">
        <ele>424</ele>
        <time>2013-11-09T08:51:20.895Z</time>
      </trkpt>
      <trkpt lat="47.31493" lon="4.95645">
        <ele>424</ele>
        <time>2013-11-09T08:51:25.881Z</time>
      </trkpt>
      <trkpt lat="47.31498" lon="4.95645">
        <ele>424</ele>
        <time>2013-11-09T08:51:28.833Z</time>
      </trkpt>
      <trkpt lat="47.31506" lon="4.95646">
        <ele>423</ele>
        <time>2013-11-09T08:51:33.790Z</time>
      </trkpt>
      <trkpt lat="47.3151" lon="4.95646">
        <ele>423</ele>
        <time>2013-11-09T08:51:35.812Z</time>
      </trkpt>
      <trkpt lat="47.31515" lon="4.95647">
        <ele>423</ele>
        <time>2013-11-09T08:51:38.811Z</time>
      </trkpt>
      <trkpt lat="47.3152" lon="4.95647">
        <ele>423</ele>
        <time>2013-11-09T08:51:41.786Z</time>
      </trkpt>
      <trkpt lat="47.31525" lon="4.95648">
        <ele>423</ele>
        <time>2013-11-09T08:51:45.850Z</time>
      </trkpt>
      <trkpt lat="47.3153" lon="4.95649">
        <ele>423</ele>
        <time>2013-11-09T08:51:48.846Z</time>
      </trkpt>
      <trkpt lat="47.31538" lon="4.95651">
        <ele>423</ele>
        <time>2013-11-09T08:51:53.841Z</time>
      </trkpt>
      <trkpt lat="47.31541" lon="4.95651">
        <ele>423</ele>
        <time>2013-11-09T08:51:55.897Z</time>
      </trkpt>
      <trkpt lat="47.31547" lon="4.95651">
        <ele>422</ele>
        <time>2013-11-09T08:51:58.888Z</time>
      </trkpt>
      <trkpt lat="47.31552" lon="4.95652">
        <ele>422</ele>
        <time>2013-11-09T08:52:01.792Z</time>
      </trkpt>
      <trkpt lat="47.3156" lon="4.95654">
        <ele>422</ele>
        <time>2013-11-09T08:52:05.810Z</time>
      </trkpt>
      <trkpt lat="47.31565" lon="4.95654">
        <ele>422</ele>
        <time>2013-11-09T08:52:08.824Z</time>
      </trkpt>
      <trkpt lat="47.31573" lon="4.95661">
        <ele>422</ele>
        <time>2013-11-09T08:52:13.783Z</time>
      </trkpt>
      <trkpt lat="47.31574" lon="4.95665">
        <ele>421</ele>
        <time>2013-11-09T08:52:15.924Z</time>
      </trkpt>
      <trkpt lat="47.31577" lon="4.95672">
        <ele>421</ele>
        <time>2013-11-09T08:52:18.856Z</time>
      </trkpt>
      <trkpt lat="47.31579" lon="4.95676">
        <ele>421</ele>
        <time>2013-11-09T08:52:20.958Z</time>
      </trkpt>
      <trkpt lat="47.31583" lon="4.95683">
        <ele>422</ele>
        <time>2013-11-09T08:52:23.843Z</time>
      </trkpt>
      <trkpt lat="47.31585" lon="4.95688">
        <ele>420</ele>
        <time>2013-11-09T08:52:25.905Z</time>
      </trkpt>
      <trkpt lat="47.31586" lon="4.95698">
        <ele>420</ele>
        <time>2013-11-09T08:52:31.801Z</time>
      </trkpt>
      <trkpt lat="47.31587" lon="4.95704">
        <ele>420</ele>
        <time>2013-11-09T08:52:34.806Z</time>
      </trkpt>
      <trkpt lat="47.31589" lon="4.95717">
        <ele>420</ele>
        <time>2013-11-09T08:52:39.826Z</time>
      </trkpt>
      <trkpt lat="47.31591" lon="4.95724">
        <ele>420</ele>
        <time>2013-11-09T08:52:42.760Z</time>
      </trkpt>
      <trkpt lat="47.31594" lon="4.95734">
        <ele>420</ele>
        <time>2013-11-09T08:52:46.826Z</time>
      </trkpt>
      <trkpt lat="47.31595" lon="4.95739">
        <ele>420</ele>
        <time>2013-11-09T08:52:48.873Z</time>
      </trkpt>
      <trkpt lat="47.31597" lon="4.95747">
        <ele>420</ele>
        <time>2013-11-09T08:52:51.909Z</time>
      </trkpt>
      <trkpt lat="47.31599" lon="4.95753">
        <ele>420</ele>
        <time>2013-11-09T08:52:54.858Z</time>
      </trkpt>
      <trkpt lat="47.31601" lon="4.95761">
        <ele>420</ele>
        <time>2013-11-09T08:52:57.903Z</time>
      </trkpt>
      <trkpt lat="47.31602" lon="4.95769">
        <ele>420</ele>
        <time>2013-11-09T08:53:00.177Z</time>
      </trkpt>
      <trkpt lat="47.31605" lon="4.95781">
        <ele>420</ele>
        <time>2013-11-09T08:53:04.236Z</time>
      </trkpt>
      <trkpt lat="47.31607" lon="4.95789">
        <ele>420</ele>
        <time>2013-11-09T08:53:07.216Z</time>
      </trkpt>
      <trkpt lat="47.31608" lon="4.95801">
        <ele>420</ele>
        <time>2013-11-09T08:53:11.232Z</time>
      </trkpt>
      <trkpt lat="47.31607" lon="4.95807">
        <ele>420</ele>
        <time>2013-11-09T08:53:13.237Z</time>
      </trkpt>
      <trkpt lat="47.31607" lon="4.95813">
        <ele>420</ele>
        <time>2013-11-09T08:53:15.340Z</time>
      </trkpt>
      <trkpt lat="47.31608" lon="4.95823">
        <ele>420</ele>
        <time>2013-11-09T08:53:18.264Z</time>
      </trkpt>
      <trkpt lat="47.31608" lon="4.95829">
        <ele>420</ele>
        <time>2013-11-09T08:53:20.347Z</time>
      </trkpt>
      <trkpt lat="47.31609" lon="4.95839">
        <ele>420</ele>
        <time>2013-11-09T08:53:23.188Z</time>
      </trkpt>
      <trkpt lat="47.31609" lon="4.95846">
        <ele>420</ele>
        <time>2013-11-09T08:53:25.251Z</time>
      </trkpt>
      <trkpt lat="47.3161" lon="4.95855">
        <ele>420</ele>
        <time>2013-11-09T08:53:28.258Z</time>
      </trkpt>
      <trkpt lat="47.31611" lon="4.95867">
        <ele>419</ele>
        <time>2013-11-09T08:53:33.237Z</time>
      </trkpt>
      <trkpt lat="47.31613" lon="4.95874">
        <ele>419</ele>
        <time>2013-11-09T08:53:36.210Z</time>
      </trkpt>
      <trkpt lat="47.31616" lon="4.95886">
        <ele>419</ele>
        <time>2013-11-09T08:53:40.222Z</time>
      </trkpt>
      <trkpt lat="47.31617" lon="4.95893">
        <ele>419</ele>
        <time>2013-11-09T08:53:42.229Z</time>
      </trkpt>
      <trkpt lat="47.31618" lon="4.959">
        <ele>419</ele>
        <time>2013-11-09T08:53:44.256Z</time>
      </trkpt>
      <trkpt lat="47.31621" lon="4.95924">
        <ele>418</ele>
        <time>2013-11-09T08:53:47.231Z</time>
      </trkpt>
      <trkpt lat="47.31623" lon="4.95935">
        <ele>418</ele>
        <time>2013-11-09T08:53:49.230Z</time>
      </trkpt>
      <trkpt lat="47.31623" lon="4.95942">
        <ele>418</ele>
        <time>2013-11-09T08:53:51.234Z</time>
      </trkpt>
      <trkpt lat="47.31624" lon="4.95947">
        <ele>418</ele>
        <time>2013-11-09T08:53:53.241Z</time>
      </trkpt>
      <trkpt lat="47.31625" lon="4.95956">
        <ele>418</ele>
        <time>2013-11-09T08:53:56.257Z</time>
      </trkpt>
      <trkpt lat="47.31627" lon="4.95964">
        <ele>418</ele>
        <time>2013-11-09T08:53:59.250Z</time>
      </trkpt>
      <trkpt lat="47.31629" lon="4.95971">
        <ele>418</ele>
        <time>2013-11-09T08:54:02.240Z</time>
      </trkpt>
      <trkpt lat="47.31626" lon="4.95983">
        <ele>418</ele>
        <time>2013-11-09T08:54:07.231Z</time>
      </trkpt>
      <trkpt lat="47.31624" lon="4.95988">
        <ele>418</ele>
        <time>2013-11-09T08:54:09.255Z</time>
      </trkpt>
      <trkpt lat="47.31623" lon="4.95991">
        <ele>418</ele>
        <time>2013-11-09T08:54:11.234Z</time>
      </trkpt>
      <trkpt lat="47.3162" lon="4.96">
        <ele>418</ele>
        <time>2013-11-09T08:54:14.253Z</time>
      </trkpt>
      <trkpt lat="47.31614" lon="4.96002">
        <ele>417</ele>
        <time>2013-11-09T08:54:17.219Z</time>
      </trkpt>
      <trkpt lat="47.31609" lon="4.96002">
        <ele>417</ele>
        <time>2013-11-09T08:54:20.214Z</time>
      </trkpt>
      <trkpt lat="47.31601" lon="4.96001">
        <ele>417</ele>
        <time>2013-11-09T08:54:25.255Z</time>
      </trkpt>
      <trkpt lat="47.31598" lon="4.95999">
        <ele>418</ele>
        <time>2013-11-09T08:54:27.261Z</time>
      </trkpt>
      <trkpt lat="47.31593" lon="4.95997">
        <ele>417</ele>
        <time>2013-11-09T08:54:30.249Z</time>
      </trkpt>
      <trkpt lat="47.31588" lon="4.95995">
        <ele>417</ele>
        <time>2013-11-09T08:54:33.208Z</time>
      </trkpt>
      <trkpt lat="47.31581" lon="4.95989">
        <ele>417</ele>
        <time>2013-11-09T08:54:38.231Z</time>
      </trkpt>
      <trkpt lat="47.31578" lon="4.95986">
        <ele>418</ele>
        <time>2013-11-09T08:54:40.236Z</time>
      </trkpt>
      <trkpt lat="47.31571" lon="4.95981">
        <ele>418</ele>
        <time>2013-11-09T08:54:45.261Z</time>
      </trkpt>
      <trkpt lat="47.31568" lon="4.95978">
        <ele>418</ele>
        <time>2013-11-09T08:54:47.248Z</time>
      </trkpt>
      <trkpt lat="47.31563" lon="4.95974">
        <ele>418</ele>
        <time>2013-11-09T08:54:50.250Z</time>
      </trkpt>
      <trkpt lat="47.3156" lon="4.95971">
        <ele>418</ele>
        <time>2013-11-09T08:54:52.274Z</time>
      </trkpt>
      <trkpt lat="47.31555" lon="4.95967">
        <ele>418</ele>
        <time>2013-11-09T08:54:55.253Z</time>
      </trkpt>
      <trkpt lat="47.3155" lon="4.95964">
        <ele>418</ele>
        <time>2013-11-09T08:54:58.282Z</time>
      </trkpt>
      <trkpt lat="47.31542" lon="4.95959">
        <ele>418</ele>
        <time>2013-11-09T08:55:03.220Z</time>
      </trkpt>
      <trkpt lat="47.31537" lon="4.95956">
        <ele>418</ele>
        <time>2013-11-09T08:55:06.230Z</time>
      </trkpt>
      <trkpt lat="47.31532" lon="4.95951">
        <ele>418</ele>
        <time>2013-11-09T08:55:11.218Z</time>
      </trkpt>
      <trkpt lat="47.31529" lon="4.95949">
        <ele>418</ele>
        <time>2013-11-09T08:55:13.219Z</time>
      </trkpt>
      <trkpt lat="47.31522" lon="4.95944">
        <ele>419</ele>
        <time>2013-11-09T08:55:18.181Z</time>
      </trkpt>
      <trkpt lat="47.31518" lon="4.95942">
        <ele>419</ele>
        <time>2013-11-09T08:55:20.261Z</time>
      </trkpt>
      <trkpt lat="47.31513" lon="4.95937">
        <ele>419</ele>
        <time>2013-11-09T08:55:25.240Z</time>
      </trkpt>
      <trkpt lat="47.3151" lon="4.95935">
        <ele>419</ele>
        <time>2013-11-09T08:55:28.233Z</time>
      </trkpt>
      <trkpt lat="47.31503" lon="4.95928">
        <ele>419</ele>
        <time>2013-11-09T08:55:35.241Z</time>
      </trkpt>
      <trkpt lat="47.315" lon="4.95915">
        <ele>420</ele>
        <time>2013-11-09T08:55:38.232Z</time>
      </trkpt>
      <trkpt lat="47.31494" lon="4.95903">
        <ele>420</ele>
        <time>2013-11-09T08:55:41.216Z</time>
      </trkpt>
      <trkpt lat="47.31488" lon="4.95894">
        <ele>421</ele>
        <time>2013-11-09T08:55:44.232Z</time>
      </trkpt>
      <trkpt lat="47.31489" lon="4.95884">
        <ele>421</ele>
        <time>2013-11-09T08:55:47.228Z</time>
      </trkpt>
      <trkpt lat="47.3149" lon="4.95875">
        <ele>421</ele>
        <time>2013-11-09T08:55:50.238Z</time>
      </trkpt>
      <trkpt lat="47.31491" lon="4.95865">
        <ele>421</ele>
        <time>2013-11-09T08:55:53.205Z</time>
      </trkpt>
      <trkpt lat="47.31492" lon="4.95859">
        <ele>421</ele>
        <time>2013-11-09T08:55:55.220Z</time>
      </trkpt>
      <trkpt lat="47.31493" lon="4.95852">
        <ele>421</ele>
        <time>2013-11-09T08:55:57.226Z</time>
      </trkpt>
      <trkpt lat="47.31494" lon="4.95846">
        <ele>421</ele>
        <time>2013-11-09T08:55:59.246Z</time>
      </trkpt>
      <trkpt lat="47.31495" lon="4.95838">
        <ele>421</ele>
        <time>2013-11-09T08:56:02.239Z</time>
      </trkpt>
      <trkpt lat="47.31497" lon="4.95831">
        <ele>421</ele>
        <time>2013-11-09T08:56:05.218Z</time>
      </trkpt>
      <trkpt lat="47.31498" lon="4.95825">
        <ele>422</ele>
        <time>2013-11-09T08:56:07.222Z</time>
      </trkpt>
      <trkpt lat="47.315" lon="4.95816">
        <ele>421</ele>
        <time>2013-11-09T08:56:10.195Z</time>
      </trkpt>
      <trkpt lat="47.31501" lon="4.95813">
        <ele>421</ele>
        <time>2013-11-09T08:56:11.239Z</time>
      </trkpt>
      <trkpt lat="47.31504" lon="4.95801">
        <ele>421</ele>
        <time>2013-11-09T08:56:14.247Z</time>
      </trkpt>
      <trkpt lat="47.31507" lon="4.9579">
        <ele>422</ele>
        <time>2013-11-09T08:56:17.227Z</time>
      </trkpt>
      <trkpt lat="47.31508" lon="4.95784">
        <ele>422</ele>
        <time>2013-11-09T08:56:19.230Z</time>
      </trkpt>
      <trkpt lat="47.31511" lon="4.95777">
        <ele>422</ele>
        <time>2013-11-09T08:56:21.232Z</time>
      </trkpt>
      <trkpt lat="47.31514" lon="4.95766">
        <ele>422</ele>
        <time>2013-11-09T08:56:24.228Z</time>
      </trkpt>
      <trkpt lat="47.31515" lon="4.95759">
        <ele>423</ele>
        <time>2013-11-09T08:56:26.235Z</time>
      </trkpt>
      <trkpt lat="47.31518" lon="4.9575">
        <ele>423</ele>
        <time>2013-11-09T08:56:29.237Z</time>
      </trkpt>
      <trkpt lat="47.31521" lon="4.95742">
        <ele>423</ele>
        <time>2013-11-09T08:56:32.240Z</time>
      </trkpt>
      <trkpt lat="47.31522" lon="4.95734">
        <ele>423</ele>
        <time>2013-11-09T08:56:35.225Z</time>
      </trkpt>
      <trkpt lat="47.31523" lon="4.95729">
        <ele>423</ele>
        <time>2013-11-09T08:56:37.236Z</time>
      </trkpt>
      <trkpt lat="47.31525" lon="4.9572">
        <ele>423</ele>
        <time>2013-11-09T08:56:40.232Z</time>
      </trkpt>
      <trkpt lat="47.31527" lon="4.95712">
        <ele>423</ele>
        <time>2013-11-09T08:56:43.228Z</time>
      </trkpt>
      <trkpt lat="47.3153" lon="4.95706">
        <ele>422</ele>
        <time>2013-11-09T08:56:45.277Z</time>
      </trkpt>
      <trkpt lat="47.31532" lon="4.957">
        <ele>422</ele>
        <time>2013-11-09T08:56:47.283Z</time>
      </trkpt>
      <trkpt lat="47.31536" lon="4.95692">
        <ele>422</ele>
        <time>2013-11-09T08:56:50.288Z</time>
      </trkpt>
      <trkpt lat="47.31539" lon="4.95684">
        <ele>422</ele>
        <time>2013-11-09T08:56:53.242Z</time>
      </trkpt>
      <trkpt lat="47.31542" lon="4.95678">
        <ele>422</ele>
        <time>2013-11-09T08:56:55.272Z</time>
      </trkpt>
      <trkpt lat="47.31545" lon="4.95668">
        <ele>422</ele>
        <time>2013-11-09T08:56:58.203Z</time>
      </trkpt>
      <trkpt lat="47.31548" lon="4.95656">
        <ele>422</ele>
        <time>2013-11-09T08:57:02.228Z</time>
      </trkpt>
      <trkpt lat="47.3155" lon="4.9565">
        <ele>422</ele>
        <time>2013-11-09T08:57:04.233Z</time>
      </trkpt>
      <trkpt lat="47.31554" lon="4.95644">
        <ele>422</ele>
        <time>2013-11-09T08:57:07.225Z</time>
      </trkpt>
      <trkpt lat="47.31558" lon="4.95642">
        <ele>422</ele>
        <time>2013-11-09T08:57:10.241Z</time>
      </trkpt>
      <trkpt lat="47.31565" lon="4.95644">
        <ele>422</ele>
        <time>2013-11-09T08:57:15.280Z</time>
      </trkpt>
      <trkpt lat="47.31569" lon="4.95644">
        <ele>422</ele>
        <time>2013-11-09T08:57:18.250Z</time>
      </trkpt>
      <trkpt lat="47.31574" lon="4.95644">
        <ele>422</ele>
        <time>2013-11-09T08:57:23.259Z</time>
      </trkpt>
      <trkpt lat="47.31579" lon="4.95643">
        <ele>422</ele>
        <time>2013-11-09T08:57:26.256Z</time>
      </trkpt>
      <trkpt lat="47.31587" lon="4.95641">
        <ele>420</ele>
        <time>2013-11-09T08:57:31.217Z</time>
      </trkpt>
      <trkpt lat="47.3159" lon="4.95641">
        <ele>420</ele>
        <time>2013-11-09T08:57:33.223Z</time>
      </trkpt>
      <trkpt lat="47.31594" lon="4.95641">
        <ele>420</ele>
        <time>2013-11-09T08:57:35.233Z</time>
      </trkpt>
      <trkpt lat="47.316" lon="4.95641">
        <ele>420</ele>
        <time>2013-11-09T08:57:38.242Z</time>
      </trkpt>
      <trkpt lat="47.31606" lon="4.95642">
        <ele>420</ele>
        <time>2013-11-09T08:57:41.214Z</time>
      </trkpt>
      <trkpt lat="47.31611" lon="4.95642">
        <ele>420</ele>
        <time>2013-11-09T08:57:44.251Z</time>
      </trkpt>
      <trkpt lat="47.31619" lon="4.95644">
        <ele>419</ele>
        <time>2013-11-09T08:57:49.261Z</time>
      </trkpt>
      <trkpt lat="47.31622" lon="4.95645">
        <ele>419</ele>
        <time>2013-11-09T08:57:51.282Z</time>
      </trkpt>
      <trkpt lat="47.31627" lon="4.95655">
        <ele>419</ele>
        <time>2013-11-09T08:57:56.274Z</time>
      </trkpt>
      <trkpt lat="47.3163" lon="4.95662">
        <ele>419</ele>
        <time>2013-11-09T08:57:59.261Z</time>
      </trkpt>
      <trkpt lat="47.31632" lon="4.95669">
        <ele>419</ele>
        <time>2013-11-09T08:58:02.240Z</time>
      </trkpt>
      <trkpt lat="47.31634" lon="4.95676">
        <ele>419</ele>
        <time>2013-11-09T08:58:05.247Z</time>
      </trkpt>
      <trkpt lat="47.31636" lon="4.95683">
        <ele>419</ele>
        <time>2013-11-09T08:58:08.219Z</time>
      </trkpt>
      <trkpt lat="47.31638" lon="4.95688">
        <ele>419</ele>
        <time>2013-11-09T08:58:10.233Z</time>
      </trkpt>
      <trkpt lat="47.31642" lon="4.95698">
        <ele>419</ele>
        <time>2013-11-09T08:58:18.244Z</time>
      </trkpt>
      <trkpt lat="47.31643" lon="4.957">
        <ele>419</ele>
        <time>2013-11-09T08:58:20.301Z</time>
      </trkpt>
      <trkpt lat="47.31643" lon="4.95702">
        <ele>419</ele>
        <time>2013-11-09T08:58:23.263Z</time>
      </trkpt>
      <trkpt lat="47.31643" lon="4.95702">
        <ele>419</ele>
        <time>2013-11-09T08:58:25.281Z</time>
      </trkpt>
      <trkpt lat="47.31643" lon="4.95701">
        <ele>419</ele>
        <time>2013-11-09T08:58:33.219Z</time>
      </trkpt>
      <trkpt lat="47.31643" lon="4.95705">
        <ele>419</ele>
        <time>2013-11-09T08:58:36.239Z</time>
      </trkpt>
      <trkpt lat="47.31646" lon="4.95693">
        <ele>419</ele>
        <time>2013-11-09T08:58:45.303Z</time>
      </trkpt>
      <trkpt lat="47.31648" lon="4.95691">
        <ele>419</ele>
        <time>2013-11-09T08:58:48.235Z</time>
      </trkpt>
      <trkpt lat="47.31655" lon="4.95685">
        <ele>419</ele>
        <time>2013-11-09T08:58:55.282Z</time>
      </trkpt>
      <trkpt lat="47.31658" lon="4.95683">
        <ele>419</ele>
        <time>2013-11-09T08:58:58.253Z</time>
      </trkpt>
      <trkpt lat="47.31665" lon="4.95682">
        <ele>419</ele>
        <time>2013-11-09T08:59:03.741Z</time>
      </trkpt>
      <trkpt lat="47.31668" lon="4.95681">
        <ele>417</ele>
        <time>2013-11-09T08:59:06.715Z</time>
      </trkpt>
      <trkpt lat="47.31676" lon="4.95681">
        <ele>417</ele>
        <time>2013-11-09T08:59:11.728Z</time>
      </trkpt>
      <trkpt lat="47.3168" lon="4.95681">
        <ele>416</ele>
        <time>2013-11-09T08:59:14.753Z</time>
      </trkpt>
      <trkpt lat="47.31687" lon="4.95682">
        <ele>416</ele>
        <time>2013-11-09T08:59:19.763Z</time>
      </trkpt>
      <trkpt lat="47.31691" lon="4.95682">
        <ele>416</ele>
        <time>2013-11-09T08:59:21.774Z</time>
      </trkpt>
      <trkpt lat="47.31696" lon="4.95683">
        <ele>416</ele>
        <time>2013-11-09T08:59:24.750Z</time>
      </trkpt>
      <trkpt lat="47.317" lon="4.95684">
        <ele>416</ele>
        <time>2013-11-09T08:59:26.770Z</time>
      </trkpt>
      <trkpt lat="47.31709" lon="4.95687">
        <ele>415</ele>
        <time>2013-11-09T08:59:31.751Z</time>
      </trkpt>
      <trkpt lat="47.31713" lon="4.95688">
        <ele>415</ele>
        <time>2013-11-09T08:59:34.745Z</time>
      </trkpt>
      <trkpt lat="47.31719" lon="4.95688">
        <ele>415</ele>
        <time>2013-11-09T08:59:37.743Z</time>
      </trkpt>
      <trkpt lat="47.31725" lon="4.95689">
        <ele>414</ele>
        <time>2013-11-09T08:59:40.705Z</time>
      </trkpt>
      <trkpt lat="47.31732" lon="4.95691">
        <ele>414</ele>
        <time>2013-11-09T08:59:44.747Z</time>
      </trkpt>
      <trkpt lat="47.31736" lon="4.95692">
        <ele>414</ele>
        <time>2013-11-09T08:59:46.765Z</time>
      </trkpt>
      <trkpt lat="47.31745" lon="4.95692">
        <ele>414</ele>
        <time>2013-11-09T08:59:50.813Z</time>
      </trkpt>
      <trkpt lat="47.31752" lon="4.95693">
        <ele>410</ele>
        <time>2013-11-09T08:59:53.766Z</time>
      </trkpt>
      <trkpt lat="47.31757" lon="4.95695">
        <ele>409</ele>
        <time>2013-11-09T08:59:56.727Z</time>
      </trkpt>
      <trkpt lat="47.31763" lon="4.95694">
        <ele>409</ele>
        <time>2013-11-09T08:59:59.775Z</time>
      </trkpt>
      <trkpt lat="47.3177" lon="4.95693">
        <ele>409</ele>
        <time>2013-11-09T09:00:02.700Z</time>
      </trkpt>
      <trkpt lat="47.31774" lon="4.95693">
        <ele>409</ele>
        <time>2013-11-09T09:00:04.704Z</time>
      </trkpt>
      <trkpt lat="47.31782" lon="4.95692">
        <ele>408</ele>
        <time>2013-11-09T09:00:09.703Z</time>
      </trkpt>
      <trkpt lat="47.31786" lon="4.95692">
        <ele>408</ele>
        <time>2013-11-09T09:00:11.689Z</time>
      </trkpt>
      <trkpt lat="47.31791" lon="4.9569">
        <ele>408</ele>
        <time>2013-11-09T09:00:14.692Z</time>
      </trkpt>
      <trkpt lat="47.31795" lon="4.9569">
        <ele>408</ele>
        <time>2013-11-09T09:00:16.732Z</time>
      </trkpt>
      <trkpt lat="47.31801" lon="4.95687">
        <ele>407</ele>
        <time>2013-11-09T09:00:19.741Z</time>
      </trkpt>
      <trkpt lat="47.31806" lon="4.95684">
        <ele>407</ele>
        <time>2013-11-09T09:00:22.719Z</time>
      </trkpt>
      <trkpt lat="47.31812" lon="4.95678">
        <ele>407</ele>
        <time>2013-11-09T09:00:26.732Z</time>
      </trkpt>
      <trkpt lat="47.31816" lon="4.95674">
        <ele>407</ele>
        <time>2013-11-09T09:00:29.650Z</time>
      </trkpt>
      <trkpt lat="47.31821" lon="4.95667">
        <ele>407</ele>
        <time>2013-11-09T09:00:33.696Z</time>
      </trkpt>
      <trkpt lat="47.31824" lon="4.95662">
        <ele>407</ele>
        <time>2013-11-09T09:00:36.680Z</time>
      </trkpt>
      <trkpt lat="47.3183" lon="4.95668">
        <ele>406</ele>
        <time>2013-11-09T09:00:43.684Z</time>
      </trkpt>
      <trkpt lat="47.31831" lon="4.95675">
        <ele>406</ele>
        <time>2013-11-09T09:00:46.724Z</time>
      </trkpt>
      <trkpt lat="47.31832" lon="4.95683">
        <ele>406</ele>
        <time>2013-11-09T09:00:49.719Z</time>
      </trkpt>
      <trkpt lat="47.31834" lon="4.95691">
        <ele>402</ele>
        <time>2013-11-09T09:00:52.722Z</time>
      </trkpt>
      <trkpt lat="47.31836" lon="4.95699">
        <ele>401</ele>
        <time>2013-11-09T09:00:55.719Z</time>
      </trkpt>
      <trkpt lat="47.31837" lon="4.95705">
        <ele>401</ele>
        <time>2013-11-09T09:00:57.763Z</time>
      </trkpt>
      <trkpt lat="47.3184" lon="4.95716">
        <ele>400</ele>
        <time>2013-11-09T09:01:02.699Z</time>
      </trkpt>
      <trkpt lat="47.31843" lon="4.95722">
        <ele>400</ele>
        <time>2013-11-09T09:01:05.687Z</time>
      </trkpt>
      <trkpt lat="47.31846" lon="4.95728">
        <ele>400</ele>
        <time>2013-11-09T09:01:08.688Z</time>
      </trkpt>
      <trkpt lat="47.31849" lon="4.95735">
        <ele>399</ele>
        <time>2013-11-09T09:01:11.069Z</time>
      </trkpt>
      <trkpt lat="47.31853" lon="4.95744">
        <ele>399</ele>
        <time>2013-11-09T09:01:15.208Z</time>
      </trkpt>
      <trkpt lat="47.31856" lon="4.9575">
        <ele>396</ele>
        <time>2013-11-09T09:01:18.146Z</time>
      </trkpt>
      <trkpt lat="47.3186" lon="4.95761">
        <ele>396</ele>
        <time>2013-11-09T09:01:23.134Z</time>
      </trkpt>
      <trkpt lat="47.31861" lon="4.95766">
        <ele>396</ele>
        <time>2013-11-09T09:01:25.184Z</time>
      </trkpt>
      <trkpt lat="47.31863" lon="4.95777">
        <ele>395</ele>
        <time>2013-11-09T09:01:30.116Z</time>
      </trkpt>
      <trkpt lat="47.31864" lon="4.95785">
        <ele>395</ele>
        <time>2013-11-09T09:01:33.107Z</time>
      </trkpt>
      <trkpt lat="47.31866" lon="4.95791">
        <ele>395</ele>
        <time>2013-11-09T09:01:35.117Z</time>
      </trkpt>
      <trkpt lat="47.31868" lon="4.95798">
        <ele>395</ele>
        <time>2013-11-09T09:01:38.118Z</time>
      </trkpt>
      <trkpt lat="47.31871" lon="4.95804">
        <ele>394</ele>
        <time>2013-11-09T09:01:41.107Z</time>
      </trkpt>
      <trkpt lat="47.31874" lon="4.95809">
        <ele>394</ele>
        <time>2013-11-09T09:01:43.112Z</time>
      </trkpt>
      <trkpt lat="47.31875" lon="4.9581">
        <ele>394</ele>
        <time>2013-11-09T09:01:47.144Z</time>
      </trkpt>
      <trkpt lat="47.31875" lon="4.9581">
        <ele>394</ele>
        <time>2013-11-09T09:01:49.145Z</time>
      </trkpt>
      <trkpt lat="47.31877" lon="4.95811">
        <ele>394</ele>
        <time>2013-11-09T09:01:51.146Z</time>
      </trkpt>
      <trkpt lat="47.31882" lon="4.95814">
        <ele>393</ele>
        <time>2013-11-09T09:01:54.136Z</time>
      </trkpt>
      <trkpt lat="47.31886" lon="4.95817">
        <ele>393</ele>
        <time>2013-11-09T09:01:56.148Z</time>
      </trkpt>
      <trkpt lat="47.31892" lon="4.9582">
        <ele>392</ele>
        <time>2013-11-09T09:01:59.153Z</time>
      </trkpt>
      <trkpt lat="47.31897" lon="4.95824">
        <ele>392</ele>
        <time>2013-11-09T09:02:02.099Z</time>
      </trkpt>
      <trkpt lat="47.31903" lon="4.95828">
        <ele>391</ele>
        <time>2013-11-09T09:02:05.088Z</time>
      </trkpt>
      <trkpt lat="47.31909" lon="4.95831">
        <ele>390</ele>
        <time>2013-11-09T09:02:08.088Z</time>
      </trkpt>
      <trkpt lat="47.31915" lon="4.95834">
        <ele>388</ele>
        <time>2013-11-09T09:02:11.037Z</time>
      </trkpt>
      <trkpt lat="47.31919" lon="4.95836">
        <ele>387</ele>
        <time>2013-11-09T09:02:13.067Z</time>
      </trkpt>
      <trkpt lat="47.31922" lon="4.95837">
        <ele>387</ele>
        <time>2013-11-09T09:02:15.161Z</time>
      </trkpt>
      <trkpt lat="47.31928" lon="4.9584">
        <ele>386</ele>
        <time>2013-11-09T09:02:18.131Z</time>
      </trkpt>
      <trkpt lat="47.31932" lon="4.95842">
        <ele>385</ele>
        <time>2013-11-09T09:02:20.166Z</time>
      </trkpt>
      <trkpt lat="47.31937" lon="4.95844">
        <ele>384</ele>
        <time>2013-11-09T09:02:23.073Z</time>
      </trkpt>
      <trkpt lat="47.31941" lon="4.95846">
        <ele>384</ele>
        <time>2013-11-09T09:02:25.157Z</time>
      </trkpt>
      <trkpt lat="47.31946" lon="4.95848">
        <ele>384</ele>
        <time>2013-11-09T09:02:28.124Z</time>
      </trkpt>
      <trkpt lat="47.3195" lon="4.9585">
        <ele>383</ele>
        <time>2013-11-09T09:02:31.083Z</time>
      </trkpt>
      <trkpt lat="47.31955" lon="4.95853">
        <ele>383</ele>
        <time>2013-11-09T09:02:34.082Z</time>
      </trkpt>
      <trkpt lat="47.31961" lon="4.95854">
        <ele>382</ele>
        <time>2013-11-09T09:02:37.098Z</time>
      </trkpt>
      <trkpt lat="47.31964" lon="4.95855">
        <ele>382</ele>
        <time>2013-11-09T09:02:39.101Z</time>
      </trkpt>
      <trkpt lat="47.3197" lon="4.95858">
        <ele>382</ele>
        <time>2013-11-09T09:02:42.088Z</time>
      </trkpt>
      <trkpt lat="47.31976" lon="4.9586">
        <ele>381</ele>
        <time>2013-11-09T09:02:45.190Z</time>
      </trkpt>
      <trkpt lat="47.31981" lon="4.95863">
        <ele>381</ele>
        <time>2013-11-09T09:02:48.113Z</time>
      </trkpt>
      <trkpt lat="47.31985" lon="4.95864">
        <ele>381</ele>
        <time>2013-11-09T09:02:50.166Z</time>
      </trkpt>
      <trkpt lat="47.31991" lon="4.95866">
        <ele>381</ele>
        <time>2013-11-09T09:02:53.118Z</time>
      </trkpt>
      <trkpt lat="47.31995" lon="4.95868">
        <ele>380</ele>
        <time>2013-11-09T09:02:55.163Z</time>
      </trkpt>
      <trkpt lat="47.32001" lon="4.9587">
        <ele>379</ele>
        <time>2013-11-09T09:02:58.039Z</time>
      </trkpt>
      <trkpt lat="47.32005" lon="4.95871">
        <ele>379</ele>
        <time>2013-11-09T09:03:00.044Z</time>
      </trkpt>
      <trkpt lat="47.32012" lon="4.95872">
        <ele>379</ele>
        <time>2013-11-09T09:03:03.084Z</time>
      </trkpt>
      <trkpt lat="47.32018" lon="4.95873">
        <ele>379</ele>
        <time>2013-11-09T09:03:06.082Z</time>
      </trkpt>
      <trkpt lat="47.32025" lon="4.95874">
        <ele>379</ele>
        <time>2013-11-09T09:03:09.079Z</time>
      </trkpt>
      <trkpt lat="47.32029" lon="4.95874">
        <ele>379</ele>
        <time>2013-11-09T09:03:11.082Z</time>
      </trkpt>
      <trkpt lat="47.32033" lon="4.95876">
        <ele>379</ele>
        <time>2013-11-09T09:03:14.084Z</time>
      </trkpt>
      <trkpt lat="47.32037" lon="4.9588">
        <ele>379</ele>
        <time>2013-11-09T09:03:17.113Z</time>
      </trkpt>
      <trkpt lat="47.32042" lon="4.95883">
        <ele>380</ele>
        <time>2013-11-09T09:03:21.141Z</time>
      </trkpt>
      <trkpt lat="47.32046" lon="4.95886">
        <ele>380</ele>
        <time>2013-11-09T09:03:24.112Z</time>
      </trkpt>
      <trkpt lat="47.32048" lon="4.9589">
        <ele>380</ele>
        <time>2013-11-09T09:03:26.117Z</time>
      </trkpt>
      <trkpt lat="47.32052" lon="4.95896">
        <ele>379</ele>
        <time>2013-11-09T09:03:29.102Z</time>
      </trkpt>
      <trkpt lat="47.32056" lon="4.95901">
        <ele>379</ele>
        <time>2013-11-09T09:03:32.080Z</time>
      </trkpt>
      <trkpt lat="47.32058" lon="4.95905">
        <ele>379</ele>
        <time>2013-11-09T09:03:34.082Z</time>
      </trkpt>
      <trkpt lat="47.32063" lon="4.9591">
        <ele>379</ele>
        <time>2013-11-09T09:03:37.085Z</time>
      </trkpt>
      <trkpt lat="47.32069" lon="4.95916">
        <ele>379</ele>
        <time>2013-11-09T09:03:40.080Z</time>
      </trkpt>
      <trkpt lat="47.32072" lon="4.95919">
        <ele>378</ele>
        <time>2013-11-09T09:03:42.086Z</time>
      </trkpt>
      <trkpt lat="47.32076" lon="4.95923">
        <ele>378</ele>
        <time>2013-11-09T09:03:44.087Z</time>
      </trkpt>
      <trkpt lat="47.3208" lon="4.95926">
        <ele>378</ele>
        <time>2013-11-09T09:03:46.165Z</time>
      </trkpt>
      <trkpt lat="47.32085" lon="4.95928">
        <ele>380</ele>
        <time>2013-11-09T09:03:49.126Z</time>
      </trkpt>
      <trkpt lat="47.32091" lon="4.9593">
        <ele>381</ele>
        <time>2013-11-09T09:03:52.116Z</time>
      </trkpt>
      <trkpt lat="47.32097" lon="4.95931">
        <ele>381</ele>
        <time>2013-11-09T09:03:55.062Z</time>
      </trkpt>
      <trkpt lat="47.32105" lon="4.95932">
        <ele>382</ele>
        <time>2013-11-09T09:04:00.065Z</time>
      </trkpt>
      <trkpt lat="47.3211" lon="4.95931">
        <ele>382</ele>
        <time>2013-11-09T09:04:03.072Z</time>
      </trkpt>
      <trkpt lat="47.32118" lon="4.9593">
        <ele>383</ele>
        <time>2013-11-09T09:04:08.081Z</time>
      </trkpt>
      <trkpt lat="47.32123" lon="4.9593">
        <ele>384</ele>
        <time>2013-11-09T09:04:11.078Z</time>
      </trkpt>
      <trkpt lat="47.32132" lon="4.95929">
        <ele>385</ele>
        <time>2013-11-09T09:04:16.094Z</time>
      </trkpt>
      <trkpt lat="47.32135" lon="4.95929">
        <ele>385</ele>
        <time>2013-11-09T09:04:18.102Z</time>
      </trkpt>
      <trkpt lat="47.32143" lon="4.95929">
        <ele>387</ele>
        <time>2013-11-09T09:04:23.095Z</time>
      </trkpt>
      <trkpt lat="47.32147" lon="4.95929">
        <ele>387</ele>
        <time>2013-11-09T09:04:25.108Z</time>
      </trkpt>
      <trkpt lat="47.32153" lon="4.95931">
        <ele>388</ele>
        <time>2013-11-09T09:04:28.054Z</time>
      </trkpt>
      <trkpt lat="47.32157" lon="4.95933">
        <ele>388</ele>
        <time>2013-11-09T09:04:30.072Z</time>
      </trkpt>
      <trkpt lat="47.32161" lon="4.95934">
        <ele>388</ele>
        <time>2013-11-09T09:04:32.085Z</time>
      </trkpt>
      <trkpt lat="47.32167" lon="4.95937">
        <ele>394</ele>
        <time>2013-11-09T09:04:35.076Z</time>
      </trkpt>
      <trkpt lat="47.32173" lon="4.9594">
        <ele>394</ele>
        <time>2013-11-09T09:04:38.055Z</time>
      </trkpt>
      <trkpt lat="47.32176" lon="4.95943">
        <ele>395</ele>
        <time>2013-11-09T09:04:40.084Z</time>
      </trkpt>
      <trkpt lat="47.32182" lon="4.95947">
        <ele>395</ele>
        <time>2013-11-09T09:04:43.090Z</time>
      </trkpt>
      <trkpt lat="47.32185" lon="4.95949">
        <ele>395</ele>
        <time>2013-11-09T09:04:45.104Z</time>
      </trkpt>
      <trkpt lat="47.32189" lon="4.95952">
        <ele>395</ele>
        <time>2013-11-09T09:04:47.123Z</time>
      </trkpt>
      <trkpt lat="47.32194" lon="4.95956">
        <ele>395</ele>
        <time>2013-11-09T09:04:50.112Z</time>
      </trkpt>
      <trkpt lat="47.32202" lon="4.95963">
        <ele>396</ele>
        <time>2013-11-09T09:04:55.108Z</time>
      </trkpt>
      <trkpt lat="47.32205" lon="4.95967">
        <ele>396</ele>
        <time>2013-11-09T09:04:58.108Z</time>
      </trkpt>
      <trkpt lat="47.32209" lon="4.95973">
        <ele>396</ele>
        <time>2013-11-09T09:05:01.101Z</time>
      </trkpt>
      <trkpt lat="47.32215" lon="4.95978">
        <ele>396</ele>
        <time>2013-11-09T09:05:04.092Z</time>
      </trkpt>
      <trkpt lat="47.3222" lon="4.95984">
        <ele>397</ele>
        <time>2013-11-09T09:05:07.110Z</time>
      </trkpt>
      <trkpt lat="47.32224" lon="4.95989">
        <ele>397</ele>
        <time>2013-11-09T09:05:10.082Z</time>
      </trkpt>
      <trkpt lat="47.32229" lon="4.95994">
        <ele>398</ele>
        <time>2013-11-09T09:05:13.088Z</time>
      </trkpt>
      <trkpt lat="47.32232" lon="4.95997">
        <ele>398</ele>
        <time>2013-11-09T09:05:15.157Z</time>
      </trkpt>
      <trkpt lat="47.32238" lon="4.96001">
        <ele>398</ele>
        <time>2013-11-09T09:05:18.100Z</time>
      </trkpt>
      <trkpt lat="47.32244" lon="4.96005">
        <ele>399</ele>
        <time>2013-11-09T09:05:21.114Z</time>
      </trkpt>
      <trkpt lat="47.32249" lon="4.96007">
        <ele>399</ele>
        <time>2013-11-09T09:05:24.110Z</time>
      </trkpt>
      <trkpt lat="47.32256" lon="4.9601">
        <ele>401</ele>
        <time>2013-11-09T09:05:27.100Z</time>
      </trkpt>
      <trkpt lat="47.3226" lon="4.96011">
        <ele>401</ele>
        <time>2013-11-09T09:05:29.105Z</time>
      </trkpt>
      <trkpt lat="47.32266" lon="4.96013">
        <ele>401</ele>
        <time>2013-11-09T09:05:32.101Z</time>
      </trkpt>
      <trkpt lat="47.32273" lon="4.96015">
        <ele>401</ele>
        <time>2013-11-09T09:05:35.115Z</time>
      </trkpt>
      <trkpt lat="47.32279" lon="4.96016">
        <ele>401</ele>
        <time>2013-11-09T09:05:38.067Z</time>
      </trkpt>
      <trkpt lat="47.32283" lon="4.96017">
        <ele>401</ele>
        <time>2013-11-09T09:05:40.090Z</time>
      </trkpt>
      <trkpt lat="47.32289" lon="4.96018">
        <ele>401</ele>
        <time>2013-11-09T09:05:43.101Z</time>
      </trkpt>
      <trkpt lat="47.32293" lon="4.96019">
        <ele>401</ele>
        <time>2013-11-09T09:05:45.114Z</time>
      </trkpt>
      <trkpt lat="47.32299" lon="4.96021">
        <ele>402</ele>
        <time>2013-11-09T09:05:48.116Z</time>
      </trkpt>
      <trkpt lat="47.32305" lon="4.96022">
        <ele>402</ele>
        <time>2013-11-09T09:05:51.052Z</time>
      </trkpt>
      <trkpt lat="47.32309" lon="4.96024">
        <ele>402</ele>
        <time>2013-11-09T09:05:53.110Z</time>
      </trkpt>
      <trkpt lat="47.32314" lon="4.96025">
        <ele>402</ele>
        <time>2013-11-09T09:05:55.116Z</time>
      </trkpt>
      <trkpt lat="47.3232" lon="4.96027">
        <ele>402</ele>
        <time>2013-11-09T09:05:58.110Z</time>
      </trkpt>
      <trkpt lat="47.32326" lon="4.96029">
        <ele>402</ele>
        <time>2013-11-09T09:06:01.064Z</time>
      </trkpt>
      <trkpt lat="47.32333" lon="4.96031">
        <ele>402</ele>
        <time>2013-11-09T09:06:04.088Z</time>
      </trkpt>
      <trkpt lat="47.32339" lon="4.96033">
        <ele>403</ele>
        <time>2013-11-09T09:06:07.106Z</time>
      </trkpt>
      <trkpt lat="47.32345" lon="4.96035">
        <ele>403</ele>
        <time>2013-11-09T09:06:10.120Z</time>
      </trkpt>
      <trkpt lat="47.32351" lon="4.96037">
        <ele>403</ele>
        <time>2013-11-09T09:06:13.107Z</time>
      </trkpt>
      <trkpt lat="47.32357" lon="4.96038">
        <ele>403</ele>
        <time>2013-11-09T09:06:16.085Z</time>
      </trkpt>
      <trkpt lat="47.32362" lon="4.96035">
        <ele>403</ele>
        <time>2013-11-09T09:06:18.109Z</time>
      </trkpt>
      <trkpt lat="47.32367" lon="4.96031">
        <ele>404</ele>
        <time>2013-11-09T09:06:21.102Z</time>
      </trkpt>
      <trkpt lat="47.32374" lon="4.96024">
        <ele>404</ele>
        <time>2013-11-09T09:06:25.134Z</time>
      </trkpt>
      <trkpt lat="47.32379" lon="4.96019">
        <ele>404</ele>
        <time>2013-11-09T09:06:28.101Z</time>
      </trkpt>
      <trkpt lat="47.32384" lon="4.96014">
        <ele>404</ele>
        <time>2013-11-09T09:06:31.108Z</time>
      </trkpt>
      <trkpt lat="47.3239" lon="4.96009">
        <ele>404</ele>
        <time>2013-11-09T09:06:34.113Z</time>
      </trkpt>
      <trkpt lat="47.32394" lon="4.96003">
        <ele>404</ele>
        <time>2013-11-09T09:06:37.103Z</time>
      </trkpt>
      <trkpt lat="47.32399" lon="4.95999">
        <ele>404</ele>
        <time>2013-11-09T09:06:40.091Z</time>
      </trkpt>
      <trkpt lat="47.32405" lon="4.95994">
        <ele>404</ele>
        <time>2013-11-09T09:06:43.100Z</time>
      </trkpt>
      <trkpt lat="47.3241" lon="4.9599">
        <ele>404</ele>
        <time>2013-11-09T09:06:46.054Z</time>
      </trkpt>
      <trkpt lat="47.32414" lon="4.95987">
        <ele>404</ele>
        <time>2013-11-09T09:06:48.101Z</time>
      </trkpt>
      <trkpt lat="47.3242" lon="4.95983">
        <ele>405</ele>
        <time>2013-11-09T09:06:51.100Z</time>
      </trkpt>
      <trkpt lat="47.32425" lon="4.95979">
        <ele>405</ele>
        <time>2013-11-09T09:06:54.099Z</time>
      </trkpt>
      <trkpt lat="47.32428" lon="4.95976">
        <ele>405</ele>
        <time>2013-11-09T09:06:56.107Z</time>
      </trkpt>
      <trkpt lat="47.32433" lon="4.95972">
        <ele>405</ele>
        <time>2013-11-09T09:06:59.097Z</time>
      </trkpt>
      <trkpt lat="47.32437" lon="4.95969">
        <ele>405</ele>
        <time>2013-11-09T09:07:01.102Z</time>
      </trkpt>
      <trkpt lat="47.32443" lon="4.95966">
        <ele>405</ele>
        <time>2013-11-09T09:07:04.095Z</time>
      </trkpt>
      <trkpt lat="47.32447" lon="4.95963">
        <ele>405</ele>
        <time>2013-11-09T09:07:06.097Z</time>
      </trkpt>
      <trkpt lat="47.3245" lon="4.9596">
        <ele>405</ele>
        <time>2013-11-09T09:07:08.103Z</time>
      </trkpt>
      <trkpt lat="47.32456" lon="4.95955">
        <ele>405</ele>
        <time>2013-11-09T09:07:11.089Z</time>
      </trkpt>
      <trkpt lat="47.32461" lon="4.95951">
        <ele>405</ele>
        <time>2013-11-09T09:07:14.077Z</time>
      </trkpt>
      <trkpt lat="47.32464" lon="4.95948">
        <ele>405</ele>
        <time>2013-11-09T09:07:16.098Z</time>
      </trkpt>
      <trkpt lat="47.32468" lon="4.95943">
        <ele>405</ele>
        <time>2013-11-09T09:07:19.128Z</time>
      </trkpt>
      <trkpt lat="47.32473" lon="4.95939">
        <ele>405</ele>
        <time>2013-11-09T09:07:22.120Z</time>
      </trkpt>
      <trkpt lat="47.32477" lon="4.95935">
        <ele>405</ele>
        <time>2013-11-09T09:07:25.168Z</time>
      </trkpt>
      <trkpt lat="47.32481" lon="4.95931">
        <ele>405</ele>
        <time>2013-11-09T09:07:28.137Z</time>
      </trkpt>
      <trkpt lat="47.32489" lon="4.95927">
        <ele>405</ele>
        <time>2013-11-09T09:07:36.094Z</time>
      </trkpt>
      <trkpt lat="47.32491" lon="4.95926">
        <ele>405</ele>
        <time>2013-11-09T09:07:38.104Z</time>
      </trkpt>
      <trkpt lat="47.32499" lon="4.95919">
        <ele>405</ele>
        <time>2013-11-09T09:07:46.104Z</time>
      </trkpt>
      <trkpt lat="47.32501" lon="4.95917">
        <ele>405</ele>
        <time>2013-11-09T09:07:49.123Z</time>
      </trkpt>
      <trkpt lat="47.32505" lon="4.95909">
        <ele>405</ele>
        <time>2013-11-09T09:07:55.196Z</time>
      </trkpt>
      <trkpt lat="47.32507" lon="4.95906">
        <ele>405</ele>
        <time>2013-11-09T09:07:58.101Z</time>
      </trkpt>
      <trkpt lat="47.3251" lon="4.95905">
        <ele>405</ele>
        <time>2013-11-09T09:08:01.086Z</time>
      </trkpt>
      <trkpt lat="47.3251" lon="4.95906">
        <ele>405</ele>
        <time>2013-11-09T09:08:04.088Z</time>
      </trkpt>
      <trkpt lat="47.3251" lon="4.95906">
        <ele>405</ele>
        <time>2013-11-09T09:11:12.523Z</time>
      </trkpt>
    </trkseg>
  </trk>
</gpx>